[[{"header":{"parameterUnit":"m.s-1","parameterCategory":1,"la1":31.0,"la2":29.5877,"lo1":-88.7671,"lo2":-86.6584,"dy":0.0162,"dx":0.0185,"nx":115,"ny":88,"refTime":"2023-05-22T00:00:00:Z","depth":0,"parameterNumber":2,"parameterNumberName":"U-component_of_WINDS"},"data":[0.0,0.0,0.0,0.0,0.0,0.0,0.0,0.0,0.0,0.0,0.0,0.0,0.0,0.0,0.0,0.0,0.0,0.0,0.0,0.0,0.0,0.0,0.0,0.0,0.0,0.0,0.0,0.0,0.0,0.0,0.0,0.0,0.0,0.0,0.0,0.0,0.0,0.0,0.0,0.0,0.0,0.0,0.0,0.0,0.0,0.0,0.0,0.0,0.0,0.0,0.0,0.0,0.0,0.0,0.0,0.0,0.0,0.0,0.0,0.0,0.0,0.0,0.0,0.0,0.0,0.0,0.0,0.0,0.0,0.0,0.0,0.0,0.0,0.0,0.0,0.0,0.0,0.0,0.0,0.0,0.0,0.0,0.0,0.0,0.0,0.0,0.0,0.0,0.0,0.0,0.0,0.0,0.0,0.0,0.0,0.0,0.0,0.0,0.0,0.0,0.0,0.0,0.0,0.0,0.0,0.0,0.0,0.0,0.0,0.0,0.0,0.0,0.0,0.0,0.0,0.0,0.0,0.0,0.0,0.0,0.0,0.0,0.0,0.0,0.0,0.0,0.0,0.0,0.0,0.0,0.0,0.0,0.0,0.0,0.0,0.0,0.0,0.0,0.0,0.0,0.0,0.0,0.0,0.0,0.0,0.0,0.0,0.0,0.0,0.0,0.0,0.0,0.0,0.0,0.0,0.0,0.0,0.0,0.0,0.0,0.0,0.0,0.0,0.0,0.0,0.0,0.0,0.0,0.0,0.0,0.0,0.0,0.0,0.0,0.0,0.0,0.0,0.0,0.0,0.0,0.0,0.0,0.0,0.0,0.0,0.0,0.0,0.0,0.0,0.0,0.0,0.0,0.0,0.0,0.0,0.0,0.0,0.0,0.0,0.0,0.0,0.0,0.0,0.0,0.0,0.0,0.0,0.0,0.0,0.0,0.0,0.0,0.0,0.0,0.0,0.0,0.0,0.0,0.0,0.0,0.0,0.0,0.0,0.0,0.0,0.0,0.0,0.0,0.0,0.0,0.0,0.0,0.0,0.0,0.0,0.0,0.0,0.0,0.0,0.0,0.0,0.0,0.0,0.0,0.0,0.0,0.0,0.0,0.0,0.0,0.0,0.0,0.0,0.0,0.0,0.0,0.0,0.0,0.0,0.0,0.0,0.0,0.0,0.0,0.0,0.0,0.0,0.0,0.0,0.0,0.0,0.0,0.0,0.0,0.0,0.0,0.0,0.0,0.0,0.0,0.0,0.0,0.0,0.0,0.0,0.0,0.0,0.0,0.0,0.0,0.0,0.0,0.0,0.0,0.0,0.0,0.0,0.0,0.0,0.0,0.0,0.0,0.0,0.0,0.0,0.0,0.0,0.0,0.0,0.0,0.0,0.0,0.0,0.0,0.0,0.0,0.0,0.0,0.0,0.0,0.0,0.0,0.0,0.0,0.0,0.0,0.0,0.0,0.0,0.0,0.0,0.0,0.0,0.0,0.0,0.0,0.0,0.0,0.0,0.0,0.0,0.0,0.0,0.0,0.0,0.0,0.0,0.0,0.0,0.0,0.0,0.0,0.0,0.0,0.0,0.0,0.0,0.0,0.0,0.0,0.0,0.0,0.0,0.0,0.0,0.0,0.0,0.0,0.0,0.0,0.0,0.0,0.0,0.0,0.0,0.0,0.0,0.0,0.0,0.0,0.0,0.0,0.0,0.0,0.0,0.0,0.0,0.0,0.0,0.0,0.0,0.0,0.0,0.0,0.0,0.0,0.0,0.0,0.0,0.0,0.0,0.0,0.0,0.0,0.0,0.0,0.0,0.0,0.0,0.0,0.0,0.0,0.0,0.0,0.0,0.0,0.0,0.0,0.0,0.0,0.0,0.0,0.0,0.0,0.0,0.0,0.0,0.0,0.0,0.0,0.0,0.0,0.0,0.0,0.0,0.0,0.0,0.0,0.0,0.0,0.0,0.0,0.0,0.0,0.0,0.0,0.0,0.0,0.0,0.0,0.0,0.0,0.0,0.0,0.0,0.0,0.0,0.0,0.0,0.0,0.0,0.0,0.0,0.0,0.0,0.0,0.0,0.0,0.0,0.0,0.0,0.0,0.0,0.0,0.0,0.0,0.0,0.0,0.0,0.0,0.0,0.0,0.0,0.0,0.0,0.0,0.0,0.0,0.0,0.0,0.0,0.0,0.0,0.0,0.0,0.0,0.0,0.0,0.0,0.0,0.0,0.0,0.0,0.0,0.0,0.0,0.0,0.0,0.0,0.0,0.0,0.0,0.0,0.0,0.0,0.0,0.0,0.0,0.0,0.0,0.0,0.0,0.0,0.0,0.0,0.0,0.0,0.0,0.0,0.0,0.0,0.0,0.0,0.0,0.0,0.0,0.0,0.0,0.0,0.0,0.0,0.0,0.0,0.0,0.0,0.0,0.0,0.0,0.0,0.0,0.0,0.0,0.0,0.0,0.0,0.0,0.0,0.0,0.0,0.0,0.0,0.0,0.0,0.0,0.0,0.0,0.0,0.0,0.0,0.0,0.0,0.0,0.0,0.0,0.0,0.0,0.0,0.0,0.0,0.0,0.0,0.0,0.0,0.0,0.0,0.0,0.0,0.0,0.0,0.0,0.0,0.0,0.0,0.0,0.0,0.0,0.0,0.0,0.0,0.0,0.0,0.0,0.0,0.0,0.0,0.0,0.0,0.0,0.0,0.0,0.0,0.0,0.0,0.0,0.0,0.0,0.0,0.0,0.0,0.0,0.0,0.0,0.0,0.0,0.0,0.0,0.0,0.0,0.0,0.0,0.0,0.0,0.0,0.0,0.0,0.0,0.0,0.0,0.0,0.0,0.0,0.0,0.0,0.0,0.0,0.0,0.0,0.0,0.0,0.0,0.0,0.0,0.0,0.0,0.0,0.0,0.0,0.0,0.0,0.0,0.0,0.0,0.0,0.0,0.0,0.0,0.0,0.0,0.0,0.0,0.0,0.0,0.0,0.0,0.0,0.0,0.0,0.0,0.0,0.0,0.0,0.0,0.0,0.0,0.0,0.0,0.0,0.0,0.0,0.0,0.0,0.0,0.0,0.0,0.0,0.0,0.0,0.0,0.0,0.0,0.0,0.0,0.0,0.0,0.0,0.0,0.0,0.0,0.0,0.0,0.0,0.0,0.0,0.0,0.0,0.0,0.0,0.0,0.0,0.0,0.0,0.0,0.0,0.0,0.0,0.0,0.0,0.0,0.0,0.0,0.0,0.0,0.0,0.0,0.0,0.0,0.0,0.0,0.0,0.0,0.0,0.0,0.0,0.0,0.0,0.0,0.0,0.0,0.0,0.0,0.0,0.0,0.0,0.0,0.0,0.0,0.0,0.0,0.0,0.0,0.0,0.0,0.0,0.0,0.0,0.0,0.0,0.0,0.0,0.0,0.0,0.0,0.0,0.0,0.0,0.0,0.0,0.0,0.0,0.0,0.0,0.0,0.0,0.0,0.0,0.0,0.0,0.0,0.0,0.0,0.0,0.0,0.0,0.0,0.0,0.0,0.0,0.0,0.0,0.0,0.0,0.0,0.0,0.0,0.0,0.0,0.0,0.0,0.0,0.0,0.0,0.0,0.0,0.0,0.0,0.0,0.0,0.0,0.0,0.0,0.0,0.0,0.0,0.0,0.0,0.0,0.0,0.0,0.0,0.0,0.0,0.0,0.0,0.0,0.0,0.0,0.0,0.0,0.0,0.0,0.0,0.0,0.0,0.0,0.0,0.0,0.0,0.0,0.0,0.0,0.0,0.0,0.0,0.0,0.0,0.0,0.0,0.0,0.0,0.0,0.0,0.0,0.0,0.0,0.0,0.0,0.0,0.0,0.0,0.0,0.0,0.0,0.0,0.0,0.0,0.0,0.0,0.0,0.0,0.0,0.0,0.0,0.0,0.0,0.0,0.0,0.0,0.0,0.0,0.0,0.0,0.0,0.0,0.0,0.0,0.0,0.0,0.0,0.0,0.0,0.0,0.0,0.0,0.0,0.0,0.0,0.0,0.0,0.0,0.0,0.0,0.0,0.0,0.0,0.0,0.0,0.0,0.0,0.0,0.0,0.0,0.0,0.0,0.0,0.0,0.0,0.0,0.0,0.0,0.0,0.0,0.0,0.0,0.0,0.0,0.0,0.0,0.0,0.0,0.0,0.0,0.0,0.0,0.0,0.0,0.0,0.0,0.0,0.0,0.0,0.0,0.0,0.0,0.0,0.0,0.0,0.0,0.0,0.0,0.0,0.0,0.0,0.0,0.0,0.0,0.0,3.2082,0.0,0.0,0.0,0.0,0.0,0.0,0.0,0.0,0.0,0.0,0.0,0.0,0.0,0.0,0.0,0.0,0.0,0.0,0.0,0.0,0.0,0.0,0.0,0.0,0.0,0.0,0.0,0.0,0.0,0.0,0.0,0.0,0.0,0.0,0.0,0.0,0.0,0.0,0.0,0.0,0.0,0.0,0.0,0.0,0.0,0.0,0.0,0.0,0.0,0.0,0.0,0.0,0.0,0.0,0.0,0.0,0.0,0.0,0.0,0.0,0.0,0.0,0.0,0.0,0.0,0.0,0.0,0.0,0.0,0.0,0.0,0.0,0.0,0.0,0.0,0.0,0.0,0.0,0.0,0.0,0.0,0.0,0.0,0.0,0.0,0.0,0.0,0.0,0.0,0.0,0.0,0.0,0.0,0.0,0.0,0.0,0.0,0.0,0.0,0.0,0.0,0.0,0.0,0.0,0.0,0.0,0.0,0.0,0.0,0.0,3.2482,3.2411,3.2411,3.2377,3.2301,0.0,0.0,0.0,0.0,0.0,0.0,0.0,0.0,0.0,0.0,0.0,0.0,0.0,0.0,0.0,0.0,0.0,0.0,0.0,0.0,0.0,0.0,0.0,0.0,0.0,0.0,0.0,0.0,0.0,0.0,0.0,0.0,0.0,0.0,0.0,0.0,0.0,0.0,0.0,0.0,0.0,0.0,0.0,0.0,0.0,0.0,0.0,0.0,0.0,0.0,0.0,0.0,0.0,0.0,0.0,0.0,0.0,0.0,0.0,0.0,0.0,0.0,0.0,0.0,0.0,0.0,0.0,0.0,0.0,0.0,0.0,0.0,0.0,0.0,0.0,0.0,0.0,0.0,0.0,0.0,0.0,0.0,0.0,0.0,0.0,0.0,0.0,0.0,0.0,0.0,0.0,0.0,0.0,0.0,0.0,0.0,0.0,0.0,0.0,0.0,0.0,0.0,0.0,0.0,0.0,0.0,0.0,0.0,0.0,0.0,0.0,0.0,3.2411,3.2375,3.2349,0.0,0.0,0.0,0.0,0.0,0.0,0.0,0.0,0.0,0.0,0.0,0.0,0.0,0.0,0.0,0.0,0.0,0.0,0.0,0.0,0.0,0.0,0.0,0.0,0.0,0.0,0.0,0.0,0.0,0.0,0.0,0.0,0.0,0.0,0.0,0.0,0.0,0.0,0.0,0.0,0.0,0.0,0.0,0.0,0.0,0.0,0.0,0.0,0.0,0.0,0.0,0.0,0.0,0.0,0.0,0.0,0.0,0.0,0.0,0.0,0.0,0.0,0.0,0.0,0.0,0.0,0.0,0.0,0.0,0.0,0.0,0.0,0.0,0.0,0.0,0.0,0.0,0.0,0.0,0.0,0.0,0.0,0.0,0.0,0.0,0.0,0.0,0.0,0.0,0.0,0.0,0.0,0.0,0.0,0.0,0.0,0.0,0.0,0.0,0.0,0.0,0.0,0.0,0.0,0.0,0.0,0.0,0.0,0.0,0.0,3.2537,3.2411,3.2411,0.0,3.2219,0.0,0.0,0.0,0.0,0.0,0.0,0.0,0.0,0.0,0.0,0.0,0.0,0.0,0.0,0.0,0.0,0.0,0.0,0.0,0.0,0.0,0.0,0.0,0.0,0.0,0.0,0.0,0.0,0.0,0.0,0.0,0.0,0.0,0.0,0.0,0.0,0.0,0.0,0.0,0.0,0.0,0.0,0.0,0.0,0.0,0.0,0.0,0.0,0.0,0.0,0.0,0.0,0.0,0.0,0.0,0.0,0.0,0.0,0.0,0.0,0.0,0.0,0.0,0.0,0.0,0.0,0.0,0.0,0.0,0.0,0.0,0.0,0.0,0.0,0.0,0.0,0.0,0.0,0.0,0.0,0.0,0.0,0.0,0.0,0.0,0.0,0.0,0.0,0.0,0.0,0.0,0.0,0.0,0.0,0.0,0.0,0.0,0.0,0.0,0.0,0.0,0.0,0.0,0.0,0.0,0.0,0.0,0.0,0.0,0.0,3.2712,3.2516,3.2439,3.2377,0.0,0.0,0.0,0.0,0.0,0.0,0.0,0.0,0.0,0.0,0.0,0.0,0.0,0.0,0.0,0.0,0.0,0.0,0.0,0.0,0.0,0.0,0.0,0.0,0.0,0.0,0.0,0.0,0.0,0.0,0.0,0.0,0.0,0.0,0.0,0.0,0.0,0.0,0.0,0.0,0.0,0.0,0.0,0.0,0.0,0.0,0.0,0.0,0.0,0.0,0.0,0.0,0.0,0.0,0.0,0.0,0.0,0.0,0.0,0.0,0.0,0.0,0.0,0.0,0.0,0.0,0.0,0.0,0.0,0.0,0.0,0.0,0.0,0.0,0.0,0.0,0.0,0.0,0.0,0.0,0.0,0.0,0.0,0.0,0.0,0.0,0.0,0.0,0.0,0.0,0.0,0.0,0.0,0.0,0.0,0.0,0.0,0.0,0.0,0.0,0.0,0.0,0.0,0.0,0.0,0.0,0.0,0.0,0.0,0.0,3.3346,3.2973,3.2573,3.2461,3.2411,3.2411,0.0,0.0,0.0,0.0,0.0,0.0,0.0,0.0,0.0,0.0,0.0,0.0,0.0,0.0,0.0,0.0,0.0,0.0,0.0,0.0,0.0,0.0,0.0,0.0,0.0,0.0,0.0,0.0,0.0,0.0,0.0,0.0,0.0,0.0,0.0,0.0,0.0,0.0,0.0,0.0,0.0,0.0,0.0,0.0,0.0,0.0,0.0,0.0,0.0,0.0,0.0,0.0,0.0,0.0,0.0,0.0,0.0,0.0,0.0,0.0,0.0,0.0,0.0,0.0,0.0,0.0,0.0,0.0,0.0,0.0,0.0,0.0,0.0,0.0,0.0,0.0,0.0,0.0,0.0,0.0,0.0,0.0,0.0,0.0,0.0,0.0,0.0,0.0,0.0,0.0,0.0,0.0,0.0,0.0,0.0,0.0,0.0,0.0,0.0,0.0,0.0,0.0,0.0,0.0,0.0,0.0,0.0,0.0,3.5071,3.4281,3.3403,3.2471,3.2405,3.2411,0.0,0.0,0.0,0.0,0.0,0.0,0.0,0.0,0.0,0.0,0.0,0.0,0.0,0.0,0.0,0.0,0.0,0.0,0.0,0.0,0.0,0.0,0.0,0.0,0.0,0.0,0.0,0.0,0.0,0.0,0.0,0.0,0.0,0.0,0.0,0.0,0.0,0.0,0.0,0.0,0.0,0.0,0.0,0.0,0.0,0.0,0.0,0.0,0.0,0.0,0.0,0.0,0.0,0.0,0.0,0.0,0.0,0.0,0.0,0.0,0.0,0.0,0.0,0.0,0.0,0.0,0.0,0.0,0.0,0.0,0.0,0.0,0.0,0.0,0.0,0.0,0.0,0.0,0.0,0.0,0.0,0.0,0.0,0.0,0.0,0.0,0.0,0.0,0.0,0.0,0.0,0.0,0.0,0.0,0.0,0.0,0.0,0.0,0.0,0.0,0.0,0.0,0.0,0.0,0.0,0.0,0.0,0.0,0.0,3.5308,3.4817,3.4058,3.3089,3.3037,3.2836,0.0,0.0,0.0,0.0,0.0,0.0,0.0,0.0,0.0,0.0,0.0,0.0,0.0,0.0,0.0,0.0,0.0,0.0,0.0,0.0,0.0,0.0,0.0,0.0,0.0,0.0,0.0,0.0,0.0,0.0,0.0,0.0,0.0,0.0,0.0,0.0,0.0,0.0,0.0,0.0,0.0,0.0,0.0,0.0,0.0,0.0,0.0,0.0,0.0,0.0,0.0,0.0,0.0,0.0,0.0,0.0,0.0,0.0,0.0,0.0,0.0,0.0,0.0,0.0,0.0,0.0,0.0,0.0,0.0,0.0,0.0,0.0,0.0,0.0,0.0,0.0,0.0,0.0,0.0,0.0,0.0,0.0,0.0,0.0,0.0,0.0,0.0,0.0,0.0,0.0,0.0,0.0,0.0,0.0,0.0,0.0,0.0,0.0,0.0,0.0,0.0,0.0,0.0,0.0,0.0,0.0,0.0,0.0,0.0,3.5662,0.0,3.4809,3.3869,3.3781,3.3429,0.0,0.0,0.0,0.0,0.0,0.0,0.0,0.0,0.0,0.0,0.0,0.0,0.0,0.0,0.0,0.0,0.0,0.0,0.0,0.0,0.0,0.0,0.0,0.0,0.0,0.0,0.0,0.0,0.0,0.0,0.0,0.0,0.0,0.0,0.0,0.0,0.0,0.0,0.0,0.0,0.0,0.0,0.0,0.0,0.0,0.0,0.0,0.0,0.0,0.0,0.0,0.0,0.0,0.0,0.0,0.0,0.0,0.0,0.0,0.0,0.0,0.0,0.0,0.0,0.0,0.0,0.0,0.0,0.0,0.0,0.0,0.0,0.0,0.0,0.0,0.0,0.0,0.0,0.0,0.0,0.0,0.0,0.0,0.0,0.0,0.0,0.0,0.0,0.0,0.0,0.0,0.0,0.0,0.0,0.0,0.0,0.0,0.0,0.0,0.0,0.0,0.0,0.0,0.0,0.0,0.0,0.0,0.0,3.7025,3.6225,3.6065,3.5544,3.4716,3.4532,3.4143,0.0,0.0,0.0,0.0,0.0,0.0,0.0,0.0,0.0,0.0,0.0,0.0,0.0,0.0,0.0,0.0,0.0,0.0,0.0,0.0,0.0,0.0,0.0,0.0,0.0,0.0,0.0,0.0,0.0,0.0,0.0,0.0,0.0,0.0,0.0,0.0,0.0,0.0,0.0,0.0,0.0,0.0,0.0,0.0,0.0,0.0,0.0,0.0,0.0,0.0,0.0,0.0,0.0,0.0,0.0,0.0,0.0,0.0,0.0,0.0,0.0,0.0,0.0,0.0,0.0,0.0,0.0,0.0,0.0,0.0,0.0,0.0,0.0,0.0,0.0,0.0,0.0,0.0,0.0,0.0,0.0,0.0,0.0,0.0,0.0,0.0,0.0,0.0,0.0,0.0,0.0,0.0,0.0,0.0,0.0,0.0,0.0,0.0,0.0,0.0,0.0,0.0,0.0,0.0,0.0,0.0,0.0,0.0,0.0,3.6219,3.6161,3.5686,3.4746,3.4665,3.4476,0.0,0.0,0.0,0.0,0.0,0.0,0.0,0.0,0.0,0.0,0.0,0.0,0.0,0.0,0.0,0.0,0.0,0.0,0.0,0.0,0.0,0.0,0.0,0.0,0.0,0.0,0.0,0.0,0.0,0.0,0.0,0.0,0.0,0.0,0.0,0.0,0.0,0.0,0.0,0.0,0.0,0.0,0.0,0.0,0.0,0.0,0.0,0.0,0.0,0.0,0.0,0.0,0.0,0.0,0.0,0.0,0.0,0.0,0.0,0.0,0.0,0.0,0.0,0.0,0.0,0.0,0.0,0.0,0.0,0.0,0.0,0.0,0.0,0.0,0.0,0.0,0.0,0.0,0.0,0.0,0.0,0.0,0.0,0.0,0.0,0.0,0.0,0.0,0.0,0.0,0.0,0.0,0.0,0.0,0.0,0.0,0.0,0.0,0.0,0.0,0.0,0.0,0.0,0.0,0.0,0.0,0.0,0.0,0.0,3.5915,3.5841,3.5499,3.4859,3.4999,3.492,3.4601,0.0,0.0,0.0,0.0,0.0,0.0,0.0,0.0,0.0,0.0,0.0,0.0,0.0,0.0,0.0,0.0,0.0,0.0,0.0,0.0,0.0,0.0,0.0,0.0,0.0,0.0,0.0,0.0,0.0,0.0,0.0,0.0,0.0,0.0,0.0,0.0,0.0,0.0,0.0,0.0,0.0,0.0,0.0,0.0,0.0,0.0,0.0,0.0,0.0,0.0,0.0,0.0,0.0,0.0,0.0,0.0,0.0,0.0,0.0,0.0,0.0,0.0,0.0,0.0,0.0,0.0,0.0,0.0,0.0,0.0,0.0,0.0,0.0,0.0,0.0,0.0,0.0,0.0,0.0,0.0,0.0,0.0,0.0,0.0,0.0,0.0,0.0,0.0,0.0,0.0,0.0,0.0,0.0,0.0,0.0,0.0,0.0,0.0,0.0,0.0,0.0,0.0,0.0,0.0,0.0,0.0,0.0,0.0,3.5408,3.5136,3.502,3.5053,3.5421,3.5367,0.0,0.0,0.0,0.0,0.0,0.0,0.0,0.0,0.0,0.0,0.0,0.0,0.0,0.0,0.0,0.0,0.0,0.0,0.0,0.0,0.0,0.0,0.0,0.0,0.0,0.0,0.0,0.0,0.0,0.0,0.0,0.0,0.0,0.0,0.0,0.0,0.0,0.0,0.0,0.0,0.0,0.0,0.0,0.0,0.0,0.0,0.0,0.0,0.0,0.0,0.0,0.0,0.0,0.0,0.0,0.0,0.0,0.0,0.0,0.0,0.0,0.0,0.0,0.0,0.0,0.0,0.0,0.0,0.0,0.0,0.0,0.0,0.0,0.0,0.0,0.0,0.0,0.0,0.0,0.0,0.0,0.0,0.0,0.0,0.0,0.0,0.0,0.0,0.0,0.0,0.0,0.0,0.0,0.0,0.0,0.0,0.0,0.0,0.0,0.0,0.0,0.0,0.0,0.0,0.0,0.0,0.0,0.0,0.0,3.5386,3.4342,3.3961,3.4349,3.486,3.5214,0.0,0.0,0.0,0.0,0.0,0.0,0.0,0.0,0.0,0.0,0.0,0.0,0.0,0.0,0.0,0.0,0.0,0.0,0.0,0.0,0.0,0.0,0.0,0.0,0.0,0.0,0.0,0.0,0.0,0.0,0.0,0.0,0.0,0.0,0.0,0.0,0.0,0.0,0.0,0.0,0.0,0.0,0.0,0.0,0.0,0.0,0.0,0.0,0.0,0.0,0.0,0.0,0.0,0.0,0.0,0.0,0.0,0.0,0.0,0.0,0.0,0.0,0.0,0.0,0.0,0.0,0.0,0.0,0.0,0.0,0.0,0.0,0.0,0.0,0.0,0.0,0.0,0.0,0.0,0.0,0.0,0.0,0.0,0.0,0.0,0.0,0.0,0.0,0.0,0.0,0.0,0.0,0.0,0.0,0.0,0.0,0.0,0.0,0.0,0.0,0.0,0.0,0.0,0.0,0.0,0.0,0.0,0.0,3.5814,3.5798,3.474,3.4335,3.4624,3.4854,3.5102,0.0,0.0,0.0,0.0,0.0,0.0,0.0,0.0,0.0,0.0,0.0,0.0,0.0,0.0,0.0,0.0,0.0,0.0,0.0,0.0,0.0,0.0,0.0,0.0,0.0,0.0,0.0,0.0,0.0,0.0,0.0,0.0,0.0,0.0,0.0,0.0,0.0,0.0,0.0,0.0,0.0,0.0,0.0,0.0,0.0,0.0,0.0,0.0,0.0,0.0,0.0,0.0,0.0,0.0,0.0,0.0,0.0,0.0,0.0,0.0,0.0,0.0,0.0,0.0,0.0,0.0,0.0,0.0,0.0,0.0,0.0,0.0,0.0,0.0,0.0,0.0,0.0,0.0,0.0,0.0,0.0,0.0,0.0,0.0,0.0,0.0,0.0,0.0,0.0,0.0,0.0,0.0,0.0,0.0,0.0,0.0,0.0,0.0,0.0,0.0,0.0,0.0,0.0,0.0,0.0,0.0,0.0,0.0,3.64,3.64,3.5749,3.5401,3.5401,3.5294,3.5137,0.0,0.0,0.0,0.0,0.0,0.0,0.0,0.0,0.0,0.0,0.0,0.0,0.0,0.0,0.0,0.0,0.0,0.0,0.0,0.0,0.0,0.0,0.0,0.0,0.0,0.0,0.0,0.0,0.0,0.0,0.0,0.0,0.0,0.0,0.0,0.0,0.0,0.0,0.0,0.0,0.0,0.0,0.0,0.0,0.0,0.0,0.0,0.0,0.0,0.0,0.0,0.0,0.0,0.0,0.0,0.0,0.0,0.0,0.0,0.0,0.0,0.0,0.0,0.0,0.0,0.0,0.0,0.0,0.0,0.0,0.0,0.0,0.0,0.0,0.0,0.0,0.0,0.0,0.0,0.0,0.0,0.0,0.0,0.0,0.0,0.0,0.0,0.0,0.0,0.0,0.0,0.0,0.0,0.0,0.0,0.0,0.0,0.0,0.0,0.0,0.0,0.0,0.0,0.0,0.0,0.0,0.0,0.0,3.6407,3.6377,3.5742,3.5408,3.5408,3.5782,3.5889,0.0,0.0,0.0,0.0,0.0,0.0,0.0,0.0,0.0,0.0,0.0,0.0,0.0,0.0,0.0,0.0,0.0,0.0,0.0,0.0,0.0,0.0,0.0,0.0,0.0,0.0,0.0,0.0,0.0,0.0,0.0,0.0,0.0,0.0,0.0,0.0,0.0,0.0,0.0,0.0,0.0,0.0,0.0,0.0,0.0,0.0,0.0,0.0,3.3378,0.0,0.0,0.0,0.0,0.0,0.0,0.0,0.0,0.0,0.0,0.0,0.0,0.0,0.0,0.0,0.0,0.0,0.0,0.0,0.0,0.0,0.0,0.0,0.0,0.0,0.0,0.0,0.0,0.0,0.0,0.0,0.0,0.0,0.0,0.0,0.0,0.0,0.0,0.0,0.0,0.0,0.0,0.0,0.0,0.0,0.0,0.0,0.0,0.0,0.0,0.0,0.0,0.0,0.0,0.0,0.0,0.0,0.0,0.0,3.6912,3.6919,3.6571,3.6373,3.6397,3.6672,3.6535,0.0,0.0,0.0,0.0,0.0,0.0,0.0,0.0,0.0,0.0,0.0,0.0,0.0,0.0,0.0,0.0,0.0,0.0,0.0,0.0,0.0,0.0,0.0,0.0,0.0,0.0,0.0,0.0,0.0,0.0,0.0,0.0,0.0,0.0,0.0,0.0,0.0,0.0,0.0,0.0,0.0,0.0,0.0,0.0,0.0,0.0,0.0,0.0,0.0,0.0,0.0,0.0,0.0,0.0,0.0,0.0,0.0,0.0,0.0,0.0,0.0,0.0,0.0,0.0,0.0,0.0,0.0,0.0,0.0,0.0,0.0,0.0,0.0,0.0,0.0,0.0,0.0,0.0,0.0,0.0,0.0,0.0,0.0,0.0,0.0,0.0,0.0,0.0,0.0,0.0,0.0,0.0,0.0,0.0,0.0,0.0,0.0,0.0,0.0,0.0,0.0,0.0,0.0,0.0,0.0,0.0,0.0,3.7835,3.751,3.751,3.751,3.751,3.751,3.751,3.7087,3.6274,0.0,0.0,0.0,0.0,0.0,0.0,0.0,0.0,0.0,0.0,0.0,0.0,0.0,0.0,0.0,0.0,0.0,0.0,0.0,0.0,0.0,0.0,0.0,0.0,0.0,0.0,0.0,0.0,0.0,0.0,0.0,0.0,0.0,0.0,0.0,0.0,0.0,0.0,3.465,3.4507,0.0,0.0,0.0,0.0,0.0,0.0,0.0,0.0,3.3383,0.0,0.0,0.0,0.0,0.0,0.0,0.0,0.0,0.0,0.0,0.0,0.0,0.0,0.0,0.0,0.0,0.0,0.0,0.0,0.0,0.0,0.0,0.0,0.0,0.0,0.0,0.0,0.0,0.0,0.0,0.0,0.0,0.0,0.0,0.0,0.0,0.0,0.0,0.0,0.0,0.0,0.0,0.0,0.0,0.0,0.0,0.0,0.0,0.0,0.0,0.0,0.0,0.0,0.0,0.0,0.0,3.8492,3.7843,3.751,3.751,3.751,3.751,3.751,3.751,3.7559,3.7631,0.0,0.0,0.0,0.0,0.0,0.0,0.0,0.0,0.0,0.0,0.0,0.0,0.0,0.0,0.0,0.0,0.0,0.0,0.0,0.0,0.0,0.0,0.0,0.0,0.0,0.0,0.0,0.0,0.0,0.0,0.0,0.0,0.0,0.0,0.0,0.0,0.0,0.0,0.0,3.4422,3.4397,0.0,0.0,0.0,0.0,0.0,0.0,0.0,0.0,3.4268,0.0,0.0,0.0,0.0,0.0,0.0,0.0,0.0,0.0,0.0,0.0,0.0,0.0,0.0,0.0,0.0,0.0,0.0,0.0,0.0,0.0,0.0,0.0,0.0,0.0,0.0,0.0,0.0,0.0,0.0,0.0,0.0,0.0,0.0,0.0,0.0,0.0,0.0,0.0,0.0,0.0,0.0,0.0,0.0,0.0,0.0,0.0,0.0,0.0,0.0,0.0,0.0,0.0,0.0,0.0,3.8997,3.8017,3.7676,3.7993,3.7692,3.7669,3.8009,3.8025,3.8054,0.0,0.0,0.0,0.0,0.0,0.0,0.0,0.0,0.0,0.0,0.0,0.0,0.0,0.0,0.0,0.0,0.0,0.0,0.0,0.0,0.0,0.0,0.0,0.0,0.0,0.0,0.0,0.0,0.0,0.0,0.0,0.0,0.0,0.0,0.0,0.0,0.0,0.0,0.0,0.0,3.4691,3.4397,3.4397,0.0,0.0,0.0,0.0,0.0,0.0,3.3805,3.4431,0.0,0.0,0.0,0.0,0.0,0.0,0.0,0.0,0.0,0.0,0.0,0.0,0.0,0.0,0.0,0.0,0.0,0.0,0.0,0.0,0.0,0.0,0.0,0.0,0.0,0.0,0.0,0.0,0.0,0.0,0.0,0.0,0.0,0.0,0.0,0.0,0.0,0.0,0.0,0.0,0.0,0.0,0.0,0.0,0.0,0.0,0.0,0.0,0.0,0.0,0.0,0.0,0.0,0.0,0.0,3.9677,3.8515,3.8151,3.8658,3.8183,3.8159,3.8681,3.8705,3.8645,0.0,0.0,0.0,0.0,0.0,0.0,0.0,0.0,0.0,0.0,0.0,0.0,0.0,0.0,0.0,0.0,0.0,0.0,0.0,0.0,0.0,0.0,0.0,0.0,0.0,0.0,0.0,0.0,0.0,0.0,0.0,0.0,0.0,0.0,0.0,0.0,0.0,0.0,0.0,0.0,0.0,3.4545,3.442,3.4727,0.0,0.0,0.0,0.0,3.3573,3.4001,0.0,0.0,0.0,0.0,0.0,0.0,0.0,0.0,0.0,0.0,0.0,0.0,0.0,0.0,0.0,0.0,0.0,0.0,0.0,0.0,0.0,0.0,0.0,0.0,0.0,0.0,0.0,0.0,0.0,0.0,0.0,0.0,0.0,0.0,0.0,0.0,0.0,0.0,0.0,0.0,0.0,0.0,0.0,0.0,0.0,0.0,0.0,0.0,0.0,0.0,0.0,0.0,0.0,0.0,0.0,0.0,4.0451,3.9669,3.9321,3.9392,3.9313,3.9289,3.9376,3.9376,3.9519,0.0,0.0,0.0,0.0,0.0,0.0,0.0,0.0,0.0,0.0,0.0,0.0,0.0,0.0,0.0,0.0,0.0,0.0,0.0,0.0,0.0,0.0,0.0,0.0,0.0,0.0,0.0,0.0,0.0,0.0,0.0,0.0,0.0,0.0,0.0,0.0,0.0,0.0,0.0,0.0,0.0,3.5078,3.4478,3.443,3.434,0.0,0.0,3.3994,3.4083,3.4646,0.0,0.0,0.0,0.0,0.0,0.0,0.0,0.0,0.0,0.0,0.0,0.0,0.0,0.0,0.0,0.0,0.0,0.0,0.0,0.0,0.0,0.0,0.0,0.0,0.0,0.0,0.0,0.0,0.0,0.0,0.0,0.0,0.0,0.0,0.0,0.0,0.0,0.0,0.0,0.0,0.0,0.0,0.0,0.0,0.0,0.0,0.0,0.0,0.0,0.0,0.0,0.0,0.0,0.0,0.0,4.0585,4.0569,3.9866,3.9708,4.0087,3.9708,3.9692,4.0111,4.0016,3.9965,0.0,0.0,0.0,0.0,0.0,0.0,0.0,0.0,0.0,0.0,0.0,0.0,0.0,0.0,0.0,0.0,0.0,0.0,0.0,0.0,0.0,0.0,0.0,0.0,0.0,0.0,0.0,0.0,0.0,0.0,0.0,0.0,0.0,0.0,0.0,0.0,0.0,0.0,0.0,0.0,0.0,0.0,3.4493,3.4727,0.0,0.0,0.0,3.4882,3.479,0.0,0.0,0.0,0.0,0.0,0.0,0.0,0.0,0.0,0.0,0.0,0.0,0.0,0.0,0.0,0.0,0.0,0.0,0.0,0.0,0.0,0.0,0.0,0.0,0.0,0.0,0.0,0.0,0.0,0.0,0.0,0.0,0.0,0.0,0.0,0.0,0.0,0.0,0.0,0.0,0.0,0.0,0.0,0.0,0.0,0.0,0.0,0.0,0.0,0.0,0.0,0.0,0.0,0.0,0.0,0.0,0.0,4.0854,4.0309,4.0293,4.0814,4.0309,4.0269,4.0757,4.0619,0.0,0.0,0.0,0.0,0.0,0.0,0.0,0.0,0.0,0.0,0.0,0.0,0.0,0.0,0.0,0.0,0.0,0.0,0.0,0.0,0.0,0.0,0.0,0.0,0.0,0.0,0.0,3.5484,0.0,0.0,0.0,0.0,0.0,0.0,0.0,0.0,0.0,0.0,0.0,0.0,0.0,0.0,3.5424,3.4942,3.5186,3.5328,0.0,0.0,3.5658,3.553,3.5836,3.6206,0.0,0.0,0.0,0.0,0.0,0.0,0.0,0.0,0.0,0.0,0.0,0.0,0.0,0.0,0.0,0.0,0.0,0.0,0.0,0.0,0.0,0.0,0.0,0.0,0.0,0.0,0.0,0.0,0.0,0.0,0.0,0.0,0.0,0.0,0.0,0.0,0.0,0.0,0.0,0.0,0.0,0.0,0.0,0.0,0.0,0.0,0.0,0.0,0.0,0.0,0.0,0.0,0.0,0.0,4.1542,4.1526,4.1486,4.1454,4.1542,4.1486,4.1388,4.1253,4.1228,4.1069,0.0,0.0,0.0,0.0,0.0,0.0,0.0,0.0,0.0,0.0,0.0,0.0,0.0,0.0,0.0,0.0,0.0,0.0,0.0,0.0,0.0,0.0,0.0,0.0,0.0,0.0,0.0,0.0,0.0,0.0,0.0,0.0,0.0,0.0,0.0,0.0,0.0,0.0,0.0,0.0,0.0,3.6243,3.6176,3.5738,3.5523,0.0,3.5791,3.5837,3.6254,3.6203,3.6487,3.7597,0.0,0.0,0.0,0.0,0.0,0.0,0.0,0.0,0.0,0.0,0.0,0.0,0.0,0.0,0.0,0.0,0.0,0.0,0.0,0.0,0.0,0.0,0.0,0.0,0.0,0.0,0.0,0.0,0.0,0.0,0.0,0.0,0.0,0.0,0.0,0.0,0.0,0.0,0.0,0.0,0.0,0.0,0.0,0.0,0.0,0.0,0.0,0.0,0.0,0.0,0.0,0.0,0.0,4.2055,4.1612,4.1597,4.1597,4.1597,4.1481,4.1381,4.1298,4.1113,4.0943,0.0,0.0,0.0,0.0,0.0,0.0,0.0,0.0,0.0,0.0,0.0,0.0,0.0,0.0,0.0,0.0,0.0,0.0,0.0,0.0,0.0,0.0,0.0,0.0,0.0,0.0,0.0,0.0,3.4892,3.504,3.5451,0.0,0.0,0.0,0.0,0.0,0.0,0.0,0.0,0.0,0.0,3.6762,3.6364,3.6446,0.0,0.0,3.6751,3.6883,3.6935,3.7086,3.7377,3.7826,3.8769,0.0,0.0,0.0,0.0,0.0,0.0,0.0,0.0,0.0,0.0,0.0,0.0,0.0,0.0,0.0,0.0,0.0,0.0,0.0,0.0,0.0,0.0,0.0,0.0,0.0,0.0,0.0,0.0,0.0,0.0,0.0,0.0,0.0,0.0,0.0,0.0,0.0,0.0,0.0,0.0,0.0,0.0,0.0,0.0,0.0,0.0,0.0,0.0,0.0,0.0,0.0,0.0,4.2339,4.1604,4.1539,4.1514,4.1506,4.1323,4.1222,4.1139,4.0911,4.0773,0.0,0.0,0.0,0.0,0.0,0.0,0.0,0.0,0.0,0.0,0.0,0.0,0.0,0.0,0.0,0.0,0.0,0.0,0.0,0.0,0.0,0.0,0.0,0.0,0.0,0.0,0.0,0.0,3.5266,3.5624,3.6306,0.0,0.0,0.0,0.0,0.0,0.0,0.0,0.0,0.0,0.0,3.7192,3.6925,3.7119,3.735,3.7525,3.7725,3.7871,3.7871,3.8069,3.8243,3.844,0.0,0.0,0.0,0.0,0.0,0.0,0.0,0.0,0.0,0.0,0.0,0.0,0.0,0.0,0.0,0.0,0.0,0.0,0.0,0.0,0.0,0.0,0.0,0.0,0.0,0.0,0.0,4.0461,0.0,0.0,4.0769,0.0,0.0,0.0,0.0,0.0,0.0,0.0,0.0,0.0,0.0,0.0,0.0,0.0,0.0,0.0,0.0,0.0,0.0,0.0,0.0,0.0,0.0,4.2347,4.162,4.1398,4.1306,4.1306,4.117,4.1001,4.0824,4.0799,4.0705,4.0531,0.0,0.0,0.0,0.0,0.0,0.0,0.0,0.0,0.0,0.0,0.0,0.0,0.0,0.0,0.0,0.0,0.0,0.0,0.0,0.0,0.0,0.0,0.0,0.0,0.0,0.0,3.6357,3.6985,3.7567,0.0,0.0,0.0,0.0,0.0,0.0,0.0,0.0,0.0,3.8468,3.78,3.7535,3.8072,3.767,3.7712,3.8601,3.8608,3.8645,3.9062,3.8982,3.9075,0.0,0.0,0.0,0.0,0.0,0.0,0.0,0.0,0.0,0.0,0.0,0.0,0.0,0.0,0.0,0.0,0.0,0.0,0.0,0.0,0.0,0.0,0.0,0.0,0.0,0.0,0.0,4.0489,4.0507,0.0,0.0,0.0,0.0,0.0,0.0,0.0,0.0,0.0,0.0,0.0,4.1263,4.1211,0.0,0.0,0.0,0.0,0.0,0.0,0.0,0.0,0.0,0.0,0.0,0.0,4.2625,4.1945,4.143,4.1162,4.1153,4.1001,4.0874,4.0799,4.0662,4.0567,4.0498,0.0,0.0,0.0,0.0,0.0,0.0,0.0,0.0,0.0,0.0,0.0,0.0,0.0,0.0,0.0,0.0,0.0,0.0,0.0,0.0,0.0,0.0,0.0,0.0,0.0,3.6792,0.0,0.0,0.0,0.0,0.0,0.0,0.0,0.0,0.0,0.0,0.0,3.845,3.8315,3.8458,3.8638,3.8831,3.902,3.9233,0.0,0.0,0.0,0.0,0.0,0.0,0.0,0.0,0.0,0.0,0.0,0.0,0.0,0.0,4.0702,4.0702,4.0702,4.0702,4.0702,0.0,0.0,0.0,0.0,0.0,0.0,0.0,0.0,0.0,0.0,0.0,0.0,0.0,0.0,4.0489,4.0489,4.0489,0.0,0.0,0.0,0.0,0.0,0.0,0.0,0.0,4.1452,4.1561,4.1786,4.1717,4.2267,4.3316,4.3293,4.3614,0.0,0.0,0.0,0.0,0.0,0.0,0.0,0.0,4.312,4.2459,4.1944,4.1683,4.1674,4.1286,4.1076,4.106,4.069,4.0463,4.0436,4.034,4.0226,0.0,0.0,0.0,0.0,0.0,0.0,0.0,0.0,0.0,0.0,0.0,0.0,0.0,0.0,0.0,0.0,0.0,0.0,0.0,0.0,0.0,0.0,0.0,3.7583,0.0,0.0,0.0,0.0,0.0,0.0,0.0,0.0,0.0,3.8827,3.8744,3.8683,3.8575,3.9107,3.9509,3.9533,0.0,0.0,0.0,0.0,0.0,0.0,0.0,4.0122,4.0097,4.0435,4.0702,4.0702,4.0702,4.0702,4.0702,0.0,0.0,4.0744,4.0702,4.0702,4.0702,4.087,4.1025,4.1011,4.1193,4.1373,0.0,0.0,0.0,0.0,4.0261,0.0,0.0,0.0,4.0489,4.0489,0.0,4.0489,0.0,0.0,0.0,0.0,4.1826,4.1835,0.0,0.0,4.2098,4.2457,4.3038,4.2851,4.3133,4.3781,4.3667,4.3932,4.4588,4.4989,0.0,0.0,0.0,0.0,0.0,0.0,4.3764,4.3132,4.2876,4.2786,4.2737,4.2029,4.1641,4.1617,4.0913,4.0482,4.0351,4.0309,4.0095,3.9732,3.969,0.0,0.0,0.0,0.0,0.0,0.0,0.0,0.0,0.0,0.0,0.0,0.0,0.0,0.0,0.0,0.0,0.0,0.0,0.0,0.0,3.7826,0.0,0.0,0.0,0.0,0.0,0.0,0.0,0.0,0.0,3.9915,3.9373,3.9247,3.9233,3.9223,0.0,0.0,0.0,0.0,4.0245,4.039,4.0443,4.0487,4.065,4.0688,4.0702,4.0688,0.0,0.0,4.073,4.0744,4.08,4.0797,4.1267,4.1449,4.0898,4.0842,4.0828,4.0828,4.1267,4.1604,4.1674,4.2078,4.2494,3.9272,0.0,0.0,0.0,0.0,4.0022,4.0189,4.0357,4.0357,4.0409,4.0489,4.0489,0.0,0.0,0.0,0.0,0.0,0.0,4.2393,4.2456,4.2456,4.2548,4.2749,4.2686,4.3007,4.3649,4.3612,4.3953,4.4585,4.4729,4.4767,4.4776,0.0,0.0,0.0,0.0,4.3648,4.3438,4.2926,4.2659,4.2674,4.2435,4.2316,4.2291,4.1492,4.1066,4.1006,4.0283,3.9806,3.9699,3.9562,0.0,0.0,0.0,0.0,0.0,0.0,0.0,0.0,0.0,0.0,0.0,0.0,0.0,0.0,0.0,0.0,0.0,0.0,0.0,3.8487,3.8394,3.8551,0.0,0.0,0.0,0.0,0.0,0.0,0.0,0.0,0.0,4.0583,4.0133,3.9842,0.0,0.0,4.0815,4.0815,4.1231,4.142,4.1158,4.111,0.0,4.0734,4.0702,4.0702,4.0702,4.1067,4.1337,4.1337,4.1738,4.2058,4.2047,4.2188,4.2258,4.2104,4.2073,4.2061,4.2087,4.2213,4.2314,4.2328,4.2494,4.261,4.0193,4.0142,3.976,3.9634,3.9699,3.9821,4.0004,4.0196,4.0455,4.0674,4.0824,4.1093,4.126,4.1377,4.2087,0.0,0.0,0.0,4.2996,4.2996,4.3005,4.3134,4.3371,4.3402,4.3596,4.3984,4.4,4.4206,4.4591,4.4591,4.4591,4.4591,0.0,4.4591,4.4591,4.419,4.4,4.3984,4.3596,4.3387,4.3387,4.3125,4.2836,4.2483,4.1979,4.1491,4.1082,4.0444,3.9926,3.958,3.9478,3.9397,0.0,0.0,0.0,0.0,0.0,0.0,0.0,0.0,0.0,0.0,0.0,3.9184,3.871,0.0,0.0,0.0,3.8575,3.8566,3.8575,3.8693,0.0,0.0,0.0,0.0,0.0,0.0,0.0,4.2082,4.1744,4.1497,4.1472,4.1144,4.0796,4.0539,4.1076,4.1497,4.1497,0.0,4.1947,4.1473,4.1596,4.1597,4.1128,4.1278,4.1443,4.1457,4.1741,4.198,4.2008,4.2331,4.2595,4.2624,4.2792,4.2961,4.2961,4.3144,4.3115,4.2708,4.2792,4.2947,4.2947,4.3129,4.3371,4.1413,4.1298,4.0073,3.9673,3.9838,3.9838,3.9961,4.0181,4.0788,4.1164,4.1408,4.1995,4.2401,4.267,4.3282,0.0,4.363,4.3645,4.362,4.363,4.3691,4.4036,4.463,4.4672,4.4712,4.4693,4.4688,4.4703,4.4693,4.4703,4.4703,4.4688,4.4703,4.466,4.4606,4.4575,4.4591,4.4591,4.4575,4.4575,4.4575,4.399,4.3273,4.2505,4.2377,4.1873,4.0918,4.0806,4.0359,3.9529,3.9481,3.9451,3.9442,0.0,0.0,0.0,0.0,0.0,0.0,0.0,0.0,0.0,0.0,0.0,0.0,0.0,0.0,0.0,3.8212,0.0,3.8265,3.8875,0.0,0.0,0.0,4.1435,4.2044,4.2092,4.2082,4.2082,0.0,0.0,4.2175,4.2165,4.1961,4.1395,4.1812,4.2165,4.2175,4.2248,4.2081,4.1698,4.2038,4.2212,4.179,4.2135,4.2469,4.248,4.2624,4.2666,4.2691,4.2778,4.275,4.282,4.3214,4.361,4.3635,4.4102,4.4132,4.3186,4.3343,4.3652,4.3694,4.4144,4.4694,4.1413,4.1383,4.105,4.0958,4.0999,4.1005,4.1107,4.1304,4.1464,4.1627,4.1772,4.1933,4.2326,4.2899,4.3071,4.3421,4.3908,4.3908,4.3908,4.3939,4.4436,4.4752,4.4929,4.5367,4.5601,4.5591,4.5591,4.5591,4.5591,4.5591,4.5591,4.5601,4.5585,4.5261,4.4612,4.4591,4.4591,4.4591,4.4591,4.4591,4.4591,4.43,4.4052,4.3836,4.3035,4.2474,4.2213,4.1584,4.0911,4.0202,4.0172,3.9939,3.9427,4.0675,0.0,0.0,0.0,0.0,0.0,0.0,0.0,0.0,0.0,3.9398,3.9057,0.0,3.824,0.0,3.8212,3.842,3.8913,3.9523,0.0,0.0,4.1555,4.1918,4.2088,4.2082,4.2082,4.2082,4.2082,4.2277,4.2741,4.2785,4.2915,4.3249,4.3003,4.2774,4.2799,4.3235,4.3368,4.294,4.2957,4.2885,4.2485,4.2483,4.2635,4.2607,4.2989,4.3284,4.3287,4.368,4.3964,4.3975,4.4062,4.4343,4.4752,4.5005,4.5188,4.531,4.5143,4.4865,4.4865,4.5368,4.5886,4.2242,4.2252,4.2252,4.2237,4.2197,4.1648,4.146,4.1584,4.1885,4.2094,4.2289,4.2656,4.3062,4.3451,4.3764,4.4088,4.4463,4.4731,4.4848,4.4863,4.5217,4.5409,4.5409,4.5743,4.59,4.59,4.59,4.59,4.59,4.59,4.59,4.59,4.59,4.5667,4.5199,4.5168,4.5237,4.5354,4.5072,4.4908,4.4908,4.4425,4.4118,4.4031,4.3455,4.2958,4.2595,4.2114,4.1523,4.0885,4.0855,4.0644,4.0207,4.1108,4.1573,0.0,0.0,0.0,0.0,0.0,0.0,0.0,0.0,0.0,0.0,0.0,3.9059,3.9059,3.9044,3.932,3.9987,4.036,4.0825,4.1468,4.1885,4.2082,4.2092,4.2324,4.2498,4.2498,4.277,4.3075,4.3395,4.3449,4.3569,4.3946,4.3903,4.3743,4.3525,4.3797,4.3842,4.3399,4.3518,4.365,4.3409,4.3399,4.3422,4.3413,4.368,4.3891,4.3905,4.4174,4.4413,4.4413,4.4624,4.4879,4.5244,4.5567,4.5888,4.6153,4.6237,4.6056,4.5804,4.6028,4.6362,4.3285,4.326,4.329,4.3344,4.3354,4.2237,4.1733,4.1688,4.2256,4.2653,4.2938,4.3705,4.4076,4.4207,4.4783,4.5026,4.5071,4.5576,4.5818,4.5833,4.5909,4.5955,4.5944,4.603,4.6076,4.6076,4.6065,4.6076,4.6076,4.6076,4.6086,4.6076,4.6065,4.6076,4.6076,4.6076,4.6143,4.6244,4.5673,4.5373,4.5358,4.4537,4.4002,4.383,4.3716,4.3286,4.257,4.2486,4.2168,4.152,4.1447,4.1322,4.1095,4.1625,4.1873,0.0,4.2132,0.0,0.0,0.0,0.0,0.0,0.0,0.0,0.0,3.9828,4.0104,4.0104,4.0104,4.0379,4.1033,4.1101,4.1406,4.2121,4.2223,4.2248,4.2349,4.2814,4.3123,4.3133,4.3641,4.4008,4.4091,4.412,4.412,4.4324,4.4701,4.4803,4.4382,4.4309,4.4186,4.3595,4.3908,4.42,4.4267,4.4343,4.434,4.4371,4.4343,4.4427,4.4497,4.4525,4.4554,4.4694,4.5115,4.5455,4.5511,4.6042,4.642,4.6602,4.6969,4.708,4.6588,4.6546,4.6701,4.3041,4.3061,4.324,4.3614,4.4072,4.3848,4.3429,4.2951,4.3085,4.3474,4.4008,4.4168,4.4528,4.5053,4.5188,4.5254,4.5248,4.5379,4.5403,4.5433,4.5978,4.6222,4.6267,4.6787,4.7027,4.7027,4.7017,4.7042,4.7027,4.7027,4.7053,4.7027,4.7017,4.7027,4.7027,0.0,0.0,0.0,4.5834,4.5789,4.5774,4.4956,4.4474,4.4419,4.3743,0.0,4.3135,4.2991,4.2575,4.1945,4.1735,0.0,0.0,0.0,0.0,0.0,0.0,0.0,0.0,0.0,0.0,0.0,4.1976,4.157,4.08,4.035,4.0104,4.0104,4.0104,4.0365,4.1033,4.1101,4.157,4.2669,4.2828,4.3032,4.3558,4.3743,4.3801,4.3816,4.3932,4.4208,4.4669,4.473,4.4933,4.5384,4.563,4.5659,4.554,4.5482,4.5335,4.4875,4.4515,4.4384,4.4397,4.4427,4.4469,4.4413,4.4413,4.4598,4.5019,4.5132,4.5354,4.5759,4.6026,4.6253,4.6703,4.6941,4.7178,4.7645,4.7828,4.7756,4.7166,4.7419,4.7786,4.3782,4.3807,4.4037,4.4323,0.0,4.4759,4.4616,4.4292,4.4292,4.4486,4.4785,4.4785,4.4975,4.533,4.5638,4.5802,4.5828,4.6142,4.6292,4.6307,4.6636,4.6805,4.6794,4.7119,4.7298,4.7298,4.7298,4.7298,4.7298,4.7298,4.7298,4.7298,4.7298,4.7298,4.7298,4.7298,4.7115,4.6744,4.6417,4.6251,4.621,4.5417,4.4799,4.4453,4.4028,0.0,0.0,0.0,0.0,0.0,0.0,0.0,0.0,4.1874,0.0,4.1762,4.2068,4.2216,4.2102,4.2082,4.2082,4.2082,4.2082,4.1947,4.1638,4.0974,4.0738,4.1047,4.1362,4.1671,4.2001,4.2339,4.2789,4.3409,4.3511,4.3641,4.3961,4.428,4.4454,4.4498,4.4745,4.505,4.534,4.5395,4.5529,4.5834,4.5903,4.5932,4.5903,4.5903,4.5697,4.5181,4.4685,4.4511,4.4766,4.4851,4.4989,4.5226,4.5338,4.545,4.5733,4.579,4.5902,4.6265,4.6532,4.6857,4.7124,4.742,4.7729,4.801,4.8108,4.8151,4.8038,4.8108,4.8108,4.4545,4.4566,4.4824,4.5039,4.5195,4.5359,4.5502,4.5644,4.5394,0.0,0.0,4.5484,4.5544,4.5678,4.6221,4.648,4.6499,4.7055,4.7298,4.7298,4.7298,4.7358,4.7474,4.7489,4.7549,4.7638,4.7653,4.7668,4.7653,4.7638,4.7578,4.7489,4.7478,4.7429,4.7313,4.7298,4.7381,4.7527,4.7017,4.6712,4.6686,4.5907,4.5229,4.4666,4.4386,4.3896,4.3213,4.2985,4.2805,4.2662,4.2622,4.2535,4.2366,4.2355,4.2288,4.2123,4.2082,4.2082,4.2082,4.2082,4.216,4.2237,4.2252,4.2219,4.2131,4.1686,4.1681,4.2208,4.2818,4.3177,4.3177,4.366,4.4048,4.4124,4.4164,4.4193,4.4353,4.4759,4.5122,4.5256,4.5732,4.6109,4.624,4.6269,4.624,4.624,4.6342,4.6237,4.6214,4.612,4.5875,4.5599,4.5206,4.4961,4.5326,4.5469,4.5705,4.6097,4.6237,4.6321,4.642,4.6462,4.6502,4.6701,4.7052,4.7307,4.7405,4.7743,4.8123,4.8249,4.825,4.8445,4.8979,4.8783,4.8514,4.4351,4.4372,4.457,4.5132,4.5862,4.5894,4.6324,4.6909,4.5813,4.5608,4.6151,4.6155,4.6491,4.7014,4.7104,4.7174,4.7164,4.7279,4.7298,4.7298,4.7298,4.7608,4.8143,4.8158,4.8457,4.8977,4.9022,4.9007,4.9007,4.8992,4.8738,4.8218,4.8158,4.7878,4.7343,4.7298,4.732,4.7352,4.7248,4.7203,4.7188,4.6516,4.6121,4.5976,4.4734,4.3996,4.3847,4.2992,4.2484,4.2443,4.2273,4.2175,4.2144,4.2154,4.2133,4.2107,4.2092,4.2082,4.2096,4.2082,4.2335,4.2803,4.2886,4.2644,4.216,4.2484,4.276,4.2901,4.3467,4.3859,4.3874,4.3975,4.428,4.4712,4.4774,4.4992,4.5529,4.5729,4.5979,4.6435,4.6598,4.6925,4.7314,4.7457,4.7428,4.7486,4.7329,4.7474,4.7329,4.6696,4.6341,4.656,4.6322,4.6103,4.6125,4.6153,4.6249,4.6265,4.6378,4.6588,4.701,4.7068,4.7235,4.7728,4.7828,4.7912,4.7939,4.8037,4.8333,4.8685,4.8839,4.9091,4.9706,4.9762,4.9719,4.5175,4.5182,4.5376,4.5716,4.613,4.6381,4.6901,4.7583,4.7146,4.6875,4.6824,4.6839,4.6999,4.7294,4.7298,4.7504,4.7833,4.7844,4.8038,4.8368,4.8397,4.8558,4.8813,4.8858,4.9007,4.9288,4.9288,4.9288,4.9288,4.9288,4.9142,4.8858,4.8843,4.8502,4.7878,4.7859,4.7668,4.7324,4.7298,4.7298,4.7298,4.6999,4.6621,4.616,4.5429,4.4796,4.4175,4.3334,4.2831,4.2738,4.2328,4.2082,4.2082,4.2082,4.2252,4.2567,4.2596,4.2756,4.3108,4.3133,4.3239,4.3525,4.354,4.3438,4.3162,4.338,4.3554,4.3569,4.412,4.4483,4.4498,4.4817,4.5126,4.5398,4.5721,4.6043,4.6362,4.6734,4.7024,4.7277,4.7346,4.7474,4.7764,4.7794,4.7794,4.7794,4.7805,4.791,4.8208,4.7616,4.7026,4.6985,4.6617,4.6497,4.6727,4.6785,4.6926,4.7221,4.7291,4.7391,4.7645,4.7673,4.7798,4.8024,4.8108,4.8108,4.8123,4.8389,4.8698,4.8896,4.9343,4.9749,5.0296,5.0718,5.0732,4.5903,4.5929,4.6203,4.6435,4.6657,4.7085,4.7559,4.8048,4.8298,4.8144,4.7711,4.7725,4.7743,4.7743,4.7754,4.8027,4.8472,4.8528,4.8798,4.9247,4.9288,4.9366,4.9475,4.9501,4.9576,4.9711,4.9726,4.9714,4.9714,4.9726,4.9636,4.949,4.9366,4.9037,4.8528,4.8528,4.8203,4.7578,4.7534,4.7444,4.7298,4.7298,4.6936,4.6274,4.6016,4.5476,4.456,4.3839,4.3372,4.3216,4.2785,4.2523,4.2528,4.2538,4.2741,4.3162,4.3224,4.3453,4.3932,4.4019,4.4062,4.4193,4.4193,4.4266,4.4422,4.4425,4.4353,4.432,4.4759,4.518,4.5372,4.579,4.6167,4.6313,4.6737,4.6975,4.7088,4.7491,4.7881,4.7953,4.7985,4.804,4.8171,4.8226,4.8284,4.8313,4.8226,4.8435,4.8709,4.8421,4.7936,4.7437,4.6979,4.6936,4.7333,4.7417,4.7587,4.8052,4.8066,4.801,4.8052,4.808,4.8094,4.811,4.8236,4.8334,4.8375,4.8811,4.9246,4.9513,4.9918,5.038,5.0985,5.1393,5.1505,4.5917,4.5979,4.653,4.7209,4.7877,4.8186,4.8345,4.8468,4.8726,4.8825,4.8777,4.9011,4.9097,4.9123,4.9078,4.9101,4.9191,4.9213,4.9247,4.9325,4.9303,4.961,5.0061,5.0091,5.0428,5.0907,5.0963,5.0918,5.0918,5.0951,5.0697,5.0114,4.9565,4.9292,4.9202,4.9176,4.8861,4.8218,4.8203,4.7904,4.7328,4.7298,4.716,4.682,4.6043,4.5512,4.5204,4.4403,4.3924,4.3917,4.383,4.3805,4.379,4.3816,4.3834,4.3892,4.3917,4.3946,4.4019,4.4019,4.4269,4.4745,4.4828,4.509,4.563,4.5703,4.5467,4.5148,4.5467,4.6011,4.654,4.6699,4.6928,4.7402,4.7631,4.7721,4.7721,4.775,4.8023,4.8556,4.8626,4.8829,4.9272,4.9374,4.9432,4.933,4.9286,4.9233,4.9146,4.8919,4.8608,4.8342,4.8085,4.7895,4.7954,4.801,4.7996,4.8094,4.8108,4.8124,4.8152,4.8193,4.8137,4.85,4.8628,4.8909,4.9049,4.9441,5.0057,5.0353,5.0662,5.0999,5.1533,5.1744,5.1646,4.6435,4.6493,4.7129,4.7579,4.794,4.8149,4.8485,4.8872,4.9132,4.9461,4.9816,4.996,4.9765,4.9295,4.9134,4.9274,4.962,4.9479,4.9636,4.9977,4.9995,5.0184,5.0535,5.055,5.0796,5.1176,5.1217,5.1217,5.1167,5.1047,5.0748,5.0398,5.0128,4.9814,4.9454,4.941,4.9072,4.8452,4.8423,4.81,4.7477,4.7179,4.6887,4.6506,4.6135,4.5874,4.562,4.493,4.4531,4.4498,4.4193,4.4019,4.4019,4.4019,4.4164,4.4498,4.4904,4.5122,4.5137,4.5133,4.5224,4.5496,4.5485,4.5761,4.6337,4.6435,4.6461,4.6603,4.6505,4.6696,4.7288,4.7378,4.7518,4.7794,4.8101,4.8321,4.8333,4.8694,4.9042,4.9262,4.9303,4.9361,4.9635,4.9708,4.9708,4.9708,4.9708,4.9585,4.933,4.9056,4.8808,4.8545,4.827,4.8107,4.8108,4.8108,4.8108,4.8108,4.8108,4.8138,4.8572,4.8642,4.874,4.9116,4.9411,4.9567,4.9594,5.0072,5.0647,5.0957,5.128,5.1533,5.1758,5.1786,5.1786,4.6928,4.7149,4.7794,4.8156,4.8325,4.8464,4.881,4.9266,4.9548,4.996,5.0375,5.0465,5.0174,4.9672,4.9421,4.9619,5.0007,4.9873,5.0026,5.0483,5.0513,5.0581,5.0719,5.073,5.0825,5.0982,5.0994,5.0994,5.0994,5.0825,5.0623,5.0536,5.0513,5.0265,4.9834,4.9775,4.9439,4.885,4.8779,4.8409,4.7745,4.7391,4.6911,4.6276,4.6199,4.6102,4.5914,4.5442,4.5191,4.5151,4.4759,4.4527,4.4512,4.4523,4.4716,4.5137,4.5627,4.5903,4.5903,4.5903,4.5964,4.6113,4.6142,4.6403,4.6914,4.7062,4.7364,4.7883,4.7596,4.757,4.7941,4.8055,4.8113,4.8313,4.8728,4.896,4.9016,4.9449,4.9664,4.9708,4.9649,4.9708,4.9708,4.9708,4.9708,4.9708,4.9708,4.9561,4.9268,4.8994,4.8797,4.8445,4.8221,4.8121,4.8108,4.8108,4.8123,4.8333,4.8391,4.8628,4.912,4.9259,4.9301,4.9607,5.0014,5.0267,5.0296,5.0703,5.1125,5.1224,5.1477,5.1772,5.1786,5.1786,5.1786,4.7175,4.7823,4.8409,4.8989,4.9604,4.956,4.9604,4.9638,4.9914,5.0093,5.0161,5.0354,5.0468,5.0374,5.0279,5.0409,5.0454,5.0373,5.0379,5.0453,5.0477,5.0501,5.0525,5.0525,5.051,5.0596,5.0593,5.0572,5.0546,5.051,5.0513,5.0489,5.0465,5.0462,5.0362,5.0335,5.0103,4.9466,4.9407,4.8987,4.8193,4.805,4.745,4.6425,4.6217,4.6134,4.5943,4.5877,4.5834,4.5848,4.5772,4.5746,4.5761,4.5772,4.5772,4.5848,4.5892,4.5921,4.5976,4.6019,4.6226,4.6656,4.6757,4.7044,4.7663,4.775,4.8017,4.86,4.8597,4.8585,4.8643,4.867,4.8899,4.9403,4.9577,4.9606,4.9635,4.9635,4.9708,4.9708,4.9708,4.9708,4.9708,4.9708,4.9708,4.9708,4.9708,4.9549,4.9132,4.8946,4.8697,4.8361,4.8173,4.8135,4.8123,4.8236,4.8447,4.8768,4.9048,4.9203,4.9622,4.9958,5.0,5.0154,5.0563,5.0858,5.0957,5.1195,5.1533,5.166,5.1646,5.1786,5.1786,5.1786,5.1786,4.8409,4.9037,4.9245,4.9478,4.9693,4.9708,4.9708,4.9705,4.982,4.9854,4.9854,4.9951,5.0002,4.9987,4.9987,5.0086,5.0219,5.0074,4.9987,4.9975,5.0002,5.0074,5.0246,5.0246,5.0342,5.0489,5.0513,5.0405,5.0246,5.0246,5.0147,5.0028,4.999,5.0002,4.9987,4.9975,4.9856,4.9654,4.9625,4.9255,4.858,4.8484,4.8074,4.7282,4.6793,4.657,4.6467,4.6098,4.5903,4.5903,4.5903,4.5903,4.5903,4.5903,4.6095,4.6421,4.6479,4.6679,4.7024,4.7111,4.721,4.7404,4.7448,4.7709,4.8232,4.838,4.8638,4.9173,4.932,4.9347,4.9347,4.9335,4.9434,4.9635,4.9708,4.9722,4.9708,4.9708,4.9708,4.9708,4.9708,4.9708,4.9795,4.9722,4.9708,4.9708,4.9708,4.9537,4.9244,4.9021,4.8813,4.8531,4.8545,4.8671,4.8684,4.8671,4.8854,4.9356,4.9734,4.9987,5.0351,5.0535,5.0605,5.0914,5.1294,5.1323,5.1393,5.1435,5.1786,5.1786,5.1786,5.1786,5.1786,5.1786,5.1786,4.9289,4.9679,4.9708,4.9708,4.9708,4.9708,4.9708,4.9708,4.9708,4.9708,4.9708,4.9708,4.9708,4.9708,4.9708,4.9793,4.9939,4.9793,4.9708,4.9708,4.9708,4.9793,4.9939,4.9963,5.0062,5.0222,5.0246,5.0149,5.0002,4.9963,4.988,4.9717,4.9708,4.9708,4.9708,4.9708,4.9708,4.9708,4.9708,4.9451,4.9062,4.9032,4.8841,4.8389,4.777,4.7323,4.712,4.6722,4.6513,4.6501,4.6516,4.6516,4.6516,4.6516,4.6693,4.7074,4.7129,4.7303,4.7706,4.7794,4.7892,4.8084,4.8113,4.8348,4.8943,4.9003,4.9274,4.9606,4.9708,4.9708,4.9708,4.9708,4.9708,4.9708,4.9708,4.9809,4.9971,5.0027,5.0158,5.0349,5.0394,5.0336,5.0264,5.0145,5.0085,5.0013,4.9867,4.9598,4.933,4.9371,4.9247,4.9065,4.9374,4.9657,4.9832,4.992,4.9788,5.0181,5.0296,5.0605,5.0886,5.1069,5.1266,5.1632,5.1786,5.1786,5.1786,5.1786,5.1786,5.1786,5.1786,5.1786,5.1786,5.1786,5.1786,4.9679,4.9708,4.9708,4.9708,4.9708,4.9708,4.9708,4.9708,4.9708,4.9737,4.9824,4.9766,4.9853,4.9824,4.9954,4.9809,4.9906,4.9938,4.9824,4.9708,4.9708,4.972,4.9744,4.9744,4.9756,4.9781,4.9744,4.9732,4.9744,4.9744,4.9732,4.9708,4.9708,4.9708,4.9708,4.9708,4.9708,4.9708,4.9708,4.9693,4.9708,4.9635,4.9579,4.9519,4.8945,4.838,4.7878,4.775,4.7631,4.7663,4.7677,4.775,4.7634,4.7645,4.7747,4.7764,4.7794,4.7823,4.7907,4.7939,4.8273,4.8609,4.8716,4.896,4.9434,4.9606,4.9649,4.9693,4.9708,4.9722,4.9766,4.9809,4.9809,4.9737,4.9824,5.0071,5.0535,5.0695,5.09,5.1338,5.1398,5.1545,5.1441,5.1019,5.0697,5.0608,5.0262,4.9898,4.9764,5.0009,5.0126,5.0068,5.0276,5.062,5.0969,5.1274,5.11,5.0994,5.0941,5.1069,5.1337,5.1547,5.1519,5.1786,5.1786,5.1786,5.1786,5.1786,5.1786,5.1786,5.1786,5.1786,5.1786,5.1786,5.1786,4.9708,4.9708,4.9708,4.9708,4.9708,4.9708,4.9708,4.9708,4.9708,4.9969,5.0332,5.039,5.0622,5.0931,5.0991,5.0991,5.1019,5.0977,5.0566,4.9867,4.9737,4.9737,4.9722,4.9708,4.9708,4.9708,4.9708,4.9708,4.9708,4.9708,4.9708,4.9708,4.9708,4.9708,4.9708,4.9708,4.9708,4.9708,4.9708,4.9708,4.9708,4.9708,4.9708,4.9679,4.9504,4.9286,4.9083,4.8284,4.7834,4.7823,4.7794,4.7794,4.7794,4.7794,4.7985,4.8377,4.8423,4.8667,4.9054,4.9095,4.9141,4.9332,4.9376,4.9463,4.9664,4.9708,4.9708,4.9708,4.9722,4.9853,5.0274,5.039,5.039,5.0405,5.0378,5.0637,5.1193,5.1352,5.1398,5.1557,5.1603,5.1603,5.1603,5.1369,5.1338,5.1309,5.1077,5.0871,5.088,5.0829,5.0902,5.0847,5.1207,5.1491,5.1673,5.188,5.1875,5.1605,5.1472,5.1364,5.1645,5.1786,5.1786,5.1786,5.1786,5.1786,5.1786,5.1786,5.1786,5.1786,5.1786,5.1786,5.1786,5.1786,5.1786,4.9708,4.9708,4.9708,4.9708,4.9708,4.9708,4.9838,5.0042,5.0071,5.0434,5.0944,5.1031,5.1222,5.1557,5.1603,5.1603,5.1603,5.1603,5.1166,5.0508,5.0394,5.0291,5.0056,4.978,4.9708,4.9708,4.9708,4.9708,4.9708,4.9708,4.9708,4.9708,4.9708,4.9708,4.9708,4.9708,4.9708,4.9708,4.9708,4.9708,4.9708,4.9708,4.9708,4.9708,4.9708,4.9708,4.9635,4.8897,4.8517,4.8502,4.8502,4.8502,4.8517,4.8546,4.8679,4.8957,4.9091,4.9262,4.9664,4.9635,4.9708,4.9708,4.9708,4.9708,4.9708,4.9708,4.9708,4.9708,4.9954,5.0245,5.0622,5.0944,5.1104,5.1392,5.1162,5.135,5.1846,5.2167,5.2299,5.2372,5.2356,5.2299,5.2299,5.2036,5.1991,5.1962,5.1761,5.1603,5.1621,5.1677,5.1687,5.181,5.2178,5.2321,5.228,5.2404,5.2569,5.2286,5.196,5.1796,5.1813,5.18,5.1786,5.1786,5.1786,5.1786,5.1786,5.1786,5.1786,5.1786,5.1786,5.1786,5.1786,5.1786,5.1786,4.9708,4.9708,4.9708,4.9708,4.9722,4.978,5.0114,5.0608,5.0739,5.1089,5.1557,5.1659,5.1717,5.1733,5.1907,5.192,5.1748,5.1877,5.1891,5.1746,5.1673,5.141,5.0753,5.0145,4.9896,4.9865,4.9766,4.9708,4.9708,4.9708,4.9708,4.9708,4.9708,4.9708,4.9708,4.9708,4.9708,4.9708,4.9708,4.9708,4.9708,4.9708,4.9708,4.9708,4.9708,4.9708,4.9679,4.9562,4.9591,4.9664,4.9533,4.9519,4.9649,4.9693,4.9591,4.9606,4.9679,4.9649,4.9708,4.9708,4.9708,4.9708,4.9708,4.9708,4.9708,4.9708,4.9766,4.9896,5.0303,5.071,5.0956,5.1338,5.1904,5.241,5.2122,5.2109,5.2597,5.3094,5.3212,5.3328,5.3458,5.3458,5.3299,5.2904,5.2701,5.2555,5.2209,5.2036,5.2022,5.2315,5.2572,5.2766,5.2936,5.293,5.2831,5.2862,5.2974,5.268,5.233,5.2072,5.1868,5.18,5.1786,5.1786,5.1786,5.1786,5.1786,5.1786,5.1786,5.1786,5.1786,5.1786,5.1786,5.1786,5.1786,4.9708,4.9708,4.9708,4.9708,4.978,5.0216,5.0548,5.0768,5.1193,5.173,5.2236,5.2351,5.257,5.2979,5.295,5.2994,5.2921,5.2936,5.3008,5.2995,5.3008,5.2341,5.1439,5.0741,5.0434,5.0373,4.9957,4.9708,4.9708,4.9708,4.9708,4.9708,4.9708,4.9708,4.9708,4.9708,4.9708,4.9708,4.9708,4.9708,4.9708,4.9708,4.9708,4.9708,4.9708,4.9708,4.9708,4.9708,4.9708,4.9708,4.9708,4.9708,4.9708,4.9708,4.9708,4.9708,4.9708,4.9708,4.9708,4.9708,4.9708,4.9708,4.9708,4.9708,4.9708,4.9708,4.994,5.0303,5.0651,5.1102,5.1857,5.222,5.2641,5.3109,5.2979,5.2965,5.3196,5.3384,5.3502,5.3502,5.3502,5.3502,5.3444,5.337,5.321,5.3167,5.3023,5.2863,5.282,5.2891,5.3109,5.3225,5.3346,5.3377,5.3366,5.3381,5.3292,5.3015,5.2653,5.2275,5.2032,5.1786,5.1786,5.1786,5.1786,5.1786,5.1786,5.1786,5.1786,5.1786,5.1786,5.1786,5.1786,5.1786,5.1786,4.9708,4.9737,5.0013,5.0129,5.0201,5.0799,5.1234,5.1523,5.1859,5.2383,5.2875,5.2963,5.318,5.3474,5.3487,5.3487,5.3502,5.3502,5.3487,5.3487,5.3444,5.2892,5.2064,5.1379,5.0958,5.0681,5.0317,4.9971,4.9766,4.9708,4.9708,4.9708,4.9708,4.9708,4.9708,4.9708,4.9708,4.9708,4.9708,4.9708,4.9708,4.9708,4.9708,4.9708,4.9708,4.9708,4.9708,4.9708,4.9708,4.9708,4.9708,4.9708,4.9708,4.9708,4.9708,4.9708,4.9708,4.9708,4.9708,4.9708,4.9708,4.9708,4.9708,4.9708,4.978,4.9925,5.0361,5.0608,5.1131,5.1828,5.2423,5.2815,5.3136,5.3399,5.3502,5.3502,5.3502,5.3487,5.3502,5.3502,5.3502,5.3502,5.3515,5.3515,5.3515,5.3473,5.3429,5.3386,5.34,5.3502,5.3502,5.3502,5.3502,5.3474,5.3461,5.3462,5.3358,5.3108,5.2787,5.2438,5.2099,5.1828,5.1786,5.1786,5.1786,5.1786,5.1786,5.1786,5.1786,5.1786,5.1786,5.1786,5.1786,5.1786,5.1786,4.9737,4.9838,5.0448,5.0739,5.0884,5.1439,5.1991,5.2496,5.2641,5.2963,5.3357,5.3473,5.3457,5.3502,5.3502,5.3502,5.3502,5.3502,5.3502,5.3502,5.3458,5.3167,5.2673,5.2006,5.151,5.1087,5.0855,5.0363,4.9983,4.9809,4.9708,4.9708,4.9708,4.9708,4.9708,4.9708,4.9708,4.9708,4.9708,4.9708,4.9708,4.9708,4.9708,4.9708,4.9708,4.9708,4.9708,4.9708,4.9708,4.9708,4.9708,4.9708,4.9708,4.9708,4.9708,4.9708,4.9708,4.9708,4.9708,4.9708,4.9708,4.9708,4.9708,4.978,4.9938,5.0317,5.0724,5.1116,5.1958,5.2452,5.2773,5.3183,5.34,5.3515,5.3528,5.3554,5.3541,5.3541,5.3541,5.354,5.3553,5.3579,5.3566,5.3568,5.3568,5.3646,5.3594,5.3502,5.3502,5.3502,5.3502,5.3502,5.3502,5.3502,5.3487,5.3502,5.3345,5.3148,5.2814,5.2478,5.2114,5.1882,5.1828,5.1786,5.1786,5.1786,5.1786,5.1786,5.1786,5.1786,5.1786,5.1786,5.1786,5.1786,5.1786,5.0013,5.0492,5.0637,5.0973,5.1456,5.2078,5.2467,5.2641,5.3109,5.3342,5.3473,5.3502,5.3502,5.3502,5.3502,5.3502,5.3476,5.3476,5.3502,5.3502,5.3502,5.3444,5.3167,5.2657,5.2309,5.1942,5.1116,5.0637,5.0405,4.9983,4.9708,4.9708,4.9708,4.9708,4.9708,4.9708,4.9708,4.9708,4.9708,4.9708,4.9708,4.9708,4.9708,4.9708,4.9708,4.9708,4.9708,4.9708,4.9708,4.9708,4.9708,4.9708,4.9708,4.9708,4.9708,4.9708,4.9708,4.9708,4.9708,4.9708,4.9708,4.9708,4.9737,4.9938,5.0448,5.0593,5.1218,5.19,5.2467,5.2817,5.3181,5.3399,5.3514,5.3554,5.3684,5.3802,5.3815,5.3828,5.38,5.3839,5.3968,5.411,5.4084,5.3891,5.3854,5.3802,5.3671,5.3527,5.3502,5.3502,5.3502,5.3502,5.3502,5.3502,5.3502,5.3487,5.3383,5.3226,5.2934,5.2679,5.233,5.1951,5.1882,5.1841,5.1786,5.1786,5.1786,5.1786,5.1786,5.1786,5.1786,5.1786,5.1786,5.1786,5.1786,5.0523,5.1149,5.1465,5.1757,5.2136,5.2731,5.302,5.3065,5.3355,5.3502,5.3502,5.3502,5.3502,5.3502,5.3487,5.3436,5.3317,5.3319,5.3398,5.3476,5.3502,5.3502,5.3473,5.3181,5.2891,5.2568,5.1986,5.1376,5.0739,5.0347,5.0042,4.9722,4.9708,4.9708,4.9708,4.9708,4.9708,4.9708,4.9708,4.9708,4.9708,4.9708,4.9708,4.9708,4.9708,4.9708,4.9708,4.9708,4.9708,4.9708,4.9708,4.9708,4.9708,4.9708,4.9708,4.9708,4.9708,4.9708,4.9708,4.9708,4.9708,4.9722,4.9722,5.0085,5.0593,5.0915,5.1554,5.238,5.2846,5.3181,5.3444,5.3487,5.3541,5.3684,5.38,5.3943,5.406,5.4099,5.4071,5.4097,5.42,5.4252,5.4226,5.4189,5.4034,5.3945,5.3854,5.3697,5.3502,5.3502,5.3502,5.3502,5.3502,5.3502,5.3502,5.3474,5.3448,5.3319,5.3133,5.2961,5.2747,5.2343,5.1964,5.1896,5.1841,5.1786,5.1786,5.1786,5.1786,5.1786,5.1786,5.1786,5.1786,5.1786,5.1786,5.1205,5.179,5.2352,5.2654,5.2815,5.3255,5.3458,5.3473,5.3502,5.3502,5.3502,5.3502,5.3502,5.3502,5.3436,5.3265,5.3094,5.3054,5.3147,5.3372,5.3397,5.3436,5.3433,5.3386,5.3225,5.2772,5.2509,5.1899,5.1131,5.0695,5.0274,4.9824,4.9708,4.9708,4.9708,4.9708,4.9708,4.9708,4.9708,4.9708,4.9708,4.9708,4.9708,4.9708,4.9708,4.9708,4.9708,4.9708,4.9708,4.9708,4.9708,4.9708,4.9708,4.9708,4.9708,4.9708,4.9708,4.9708,4.9763,4.9836,4.9911,4.9853,5.0015,5.0376,5.1002,5.1525,5.2076,5.2643,5.3165,5.3441,5.354,5.3592,5.3723,5.3906,5.3982,5.4138,5.4318,5.4408,5.446,5.4396,5.4511,5.4601,5.4551,5.4475,5.4254,5.4073,5.3982,5.3839,5.3658,5.35,5.3515,5.3502,5.3502,5.3502,5.3502,5.3502,5.3461,5.341,5.3279,5.3188,5.3068,5.2761,5.2357,5.1991,5.1882,5.1841,5.1786,5.1786,5.1786,5.1786,5.1786,5.1786,5.1786,5.1786,5.1786,5.1831,5.2452,5.2554,5.2875,5.3313,5.3458,5.3502,5.3502,5.3502,5.3502,5.3502,5.3502,5.3502,5.3451,5.3267,5.3014,5.2854,5.2773,5.2921,5.3161,5.3214,5.3279,5.3476,5.3487,5.3428,5.3254,5.2904,5.2234,5.1525,5.0971,5.0477,4.9882,4.9708,4.9708,4.9708,4.9708,4.9708,4.9708,4.9708,4.9708,4.9708,4.9708,4.9708,4.9708,4.9708,4.9737,4.9751,4.9737,4.9708,4.9708,4.9708,4.9751,4.9853,4.9853,4.9838,4.9809,4.9882,4.9954,4.9969,5.0274,5.0465,5.0639,5.0873,5.1483,5.2031,5.2349,5.2626,5.3119,5.3422,5.3605,5.3813,5.3826,5.3969,5.4202,5.4423,5.4607,5.4709,5.4824,5.486,5.4747,5.4888,5.4989,5.486,5.4745,5.4592,5.4399,5.423,5.4036,5.38,5.3632,5.3528,5.3515,5.3502,5.3502,5.3502,5.3502,5.3474,5.3474,5.3397,5.3306,5.32,5.3095,5.2787,5.2397,5.2032,5.1855,5.1814,5.1786,5.1786,5.1786,5.1786,5.1786,5.1786,5.1786,5.1786,5.2497,5.3051,5.3064,5.3225,5.3458,5.3502,5.3502,5.3502,5.3502,5.3502,5.3502,5.3502,5.3424,5.3292,5.3174,5.2962,5.272,5.2491,5.2707,5.3002,5.3108,5.3239,5.3476,5.3502,5.3502,5.3415,5.3167,5.2715,5.2093,5.1496,5.0826,5.0288,4.9925,4.9708,4.9708,4.9708,4.9708,4.9708,4.9708,4.9722,4.9722,4.9722,4.9722,4.9737,4.978,4.9867,5.0187,5.0216,5.0392,5.0639,5.0712,5.0685,5.0656,5.0627,5.0537,5.0347,5.0465,5.0641,5.067,5.1019,5.1149,5.1178,5.1485,5.1904,5.2394,5.2639,5.2967,5.3521,5.3865,5.3955,5.4097,5.4097,5.4254,5.4502,5.4724,5.4851,5.4979,5.5118,5.508,5.5004,5.5067,5.5103,5.5116,5.5029,5.4928,5.4749,5.4517,5.4258,5.3982,5.3774,5.3619,5.3515,5.3502,5.3502,5.3502,5.3502,5.3502,5.3502,5.3489,5.3397,5.3332,5.3213,5.3054,5.2801,5.2438,5.2059,5.1841,5.1814,5.18,5.1786,5.1786,5.1786,5.1786,5.1786,5.1786,5.3078,5.3502,5.3502,5.3502,5.3502,5.3502,5.3502,5.3502,5.3502,5.3502,5.3502,5.3436,5.3292,5.3094,5.2934,5.2733,5.2519,5.2222,5.2465,5.2894,5.3002,5.316,5.3423,5.3502,5.3502,5.3487,5.3444,5.3181,5.2483,5.1846,5.1265,5.061,5.0027,4.9708,4.9708,4.9708,4.9708,4.9708,4.9708,4.9737,4.9882,4.9911,4.9983,5.0073,5.0073,5.0392,5.0813,5.0886,5.1062,5.134,5.1514,5.1545,5.1615,5.1717,5.157,5.1247,5.1454,5.1557,5.1588,5.1746,5.1817,5.1831,5.1998,5.24,5.2728,5.3124,5.3304,5.3878,5.4123,5.4304,5.4383,5.4394,5.4566,5.4773,5.489,5.4941,5.5093,5.5194,5.5194,5.5169,5.5207,5.5207,5.5194,5.5181,5.5055,5.4953,5.4722,5.4568,5.4296,5.3956,5.3762,5.3566,5.3502,5.3502,5.3502,5.3502,5.3502,5.3502,5.3502,5.3462,5.3397,5.3317,5.3159,5.3027,5.2786,5.2438,5.2141,5.1828,5.18,5.1786,5.1786,5.1786,5.1786,5.1786,5.1786,5.3444,5.3502,5.3502,5.3502,5.3502,5.3502,5.3502,5.3502,5.3502,5.3502,5.3474,5.3279,5.3147,5.2974,5.2532,5.2208,5.2005,5.2005,5.2235,5.2747,5.2841,5.3094,5.3449,5.3502,5.3502,5.3502,5.3502,5.3151,5.2657,5.202,5.1352,5.0768,5.0201,4.9708,4.9708,4.9708,4.9708,4.9708,4.9737,5.0027,5.0477,5.0566,5.083,5.1135,5.1253,5.1311,5.1454,5.1527,5.1643,5.1688,5.169,5.1632,5.1703,5.218,5.2409,5.2249,5.1976,5.1617,5.1831,5.2233,5.2558,5.2697,5.3064,5.3549,5.367,5.3853,5.4053,5.418,5.4329,5.4473,5.4696,5.4735,5.489,5.5004,5.5093,5.5118,5.5207,5.5207,5.5207,5.5207,5.5207,5.5207,5.5207,5.5207,5.5181,5.508,5.4966,5.48,5.453,5.4152,5.3878,5.3684,5.3514,5.3502,5.3502,5.3502,5.3502,5.3502,5.3502,5.3502,5.3462,5.3397,5.3332,5.3173,5.2974,5.2746,5.2424,5.2154,5.1909,5.1786,5.1786,5.1786,5.1786,5.1786,5.1786,5.3502,5.3502,5.3502,5.3502,5.3502,5.3502,5.3502,5.3502,5.3502,5.3502,5.3474,5.3398,5.3186,5.2841,5.2384,5.2059,5.1896,5.1964,5.2262,5.2667,5.2867,5.3133,5.3423,5.3502,5.3502,5.3502,5.3487,5.3429,5.2934,5.2454,5.1844,5.122,5.0593,5.0056,4.9896,4.9737,4.9708,4.9809,5.0071,5.0593,5.1048,5.1236,5.1352,5.1601,5.1657,5.1859,5.2104,5.2178,5.2396,5.2557,5.2675,5.2676,5.2718,5.2962,5.3159,5.331,5.3108,5.2949,5.2978,5.3195,5.3333,5.3548,5.3897,5.4064,5.4175,5.4397,5.4579,5.4592,5.4718,5.4862,5.4966,5.5029,5.508,5.5169,5.5207,5.5207,5.5207,5.5207,5.5207,5.5207,5.5207,5.5207,5.5207,5.5207,5.5207,5.5156,5.5067,5.4953,5.4619,5.4204,5.3971,5.3802,5.3632,5.3502,5.3502,5.3502,5.3502,5.3502,5.3502,5.3502,5.3502,5.3449,5.3383,5.3319,5.3147,5.2921,5.268,5.2357,5.2018,5.1896,5.1786,5.1786,5.1786,5.1786,5.1786,5.3502,5.3502,5.3502,5.3502,5.3502,5.3502,5.3462,5.3411,5.3383,5.3383,5.3411,5.3372,5.3106,5.2706,5.237,5.21,5.1951,5.2127,5.2384,5.2694,5.2988,5.3241,5.3423,5.3502,5.3502,5.3502,5.3502,5.3458,5.3328,5.3007,5.2484,5.186,5.1234,5.0741,5.0349,5.0291,5.0349,5.038,5.0726,5.1287,5.1846,5.1975,5.2129,5.2269,5.2355,5.2515,5.292,5.3048,5.3327,5.3531,5.3631,5.3599,5.363,5.3656,5.3764,5.3865,5.379,5.3899,5.3897,5.4011,5.4138,5.4267,5.4434,5.4475,5.459,5.4773,5.4905,5.4902,5.5015,5.5143,5.5207,5.5194,5.5194,5.5194,5.5207,5.5207,5.5207,5.5207,5.5207,5.5207,5.5207,5.5207,5.5207,5.5207,5.5207,5.5207,5.5156,5.508,5.476,5.4348,5.4114,5.3945,5.3775,5.3605,5.3502,5.3502,5.3502,5.3502,5.3502,5.3502,5.3502,5.3502,5.3476,5.3385,5.3292,5.3161,5.2921,5.2518,5.2154,5.2032,5.1923,5.1814,5.1786,5.1786,5.1786,5.3502,5.3502,5.3474,5.3489,5.3489,5.3502,5.3358,5.3135,5.3121,5.3133,5.3174,5.3148,5.304,5.2707,5.2479,5.2276,5.2167,5.2181,5.2451,5.2734,5.2974,5.3253,5.3423,5.3502,5.3502,5.3502,5.3502,5.3502,5.3487,5.34,5.3005,5.2525,5.1888,5.1586,5.135,5.1172,5.1301,5.1372,5.1615,5.2105,5.2645,5.2955,5.3222,5.3811,5.4007,5.4136,5.4151,5.4013,5.3987,5.4136,5.4123,5.4123,5.4084,5.4112,5.4149,5.4254,5.428,5.441,5.4541,5.4436,5.4316,5.4396,5.4564,5.4824,5.4976,5.5091,5.5169,5.5131,5.5181,5.5194,5.5207,5.5207,5.5207,5.5207,5.5207,5.5207,5.5207,5.5207,5.5207,5.5207,5.5207,5.5207,5.5207,5.5207,5.5207,5.5207,5.5194,5.5118,5.4994,5.4647,5.432,5.4099,5.393,5.3749,5.3527,5.3502,5.3502,5.3502,5.3502,5.3502,5.3502,5.3502,5.3502,5.3489,5.3397,5.3292,5.3161,5.2774,5.2438,5.2194,5.2045,5.1937,5.1828,5.1786,5.1786,5.3267,5.3239,5.3079,5.3107,5.3254,5.308,5.2946,5.2868,5.2854,5.2962,5.3095,5.3239,5.32,5.2961,5.2855,5.2653,5.2545,5.2694,5.2814,5.2973,5.3213,5.3383,5.3502,5.3502,5.3502,5.3502,5.3502,5.3502,5.3502,5.3502,5.3428,5.3007,5.251,5.1991,5.1786,5.1911,5.2118,5.2444,5.2648,5.3104,5.3613,5.3811,5.398,5.4234,5.4291,5.4291,5.4276,5.4276,5.4291,5.4316,5.4329,5.4342,5.4355,5.4342,5.4434,5.4564,5.4592,5.4747,5.49,5.4798,5.4681,5.4847,5.4976,5.5093,5.5207,5.5207,5.5207,5.5207,5.5207,5.5207,5.5207,5.5207,5.5207,5.5207,5.5207,5.5207,5.5207,5.5207,5.5207,5.5207,5.5207,5.5207,5.5207,5.5207,5.5207,5.5207,5.5194,5.5156,5.5029,5.4905,5.4594,5.4294,5.4099,5.3826,5.3605,5.354,5.35,5.3502,5.3502,5.3502,5.3502,5.3502,5.3502,5.3502,5.3502,5.341,5.3253,5.2987,5.272,5.2424,5.2195,5.2032,5.1923,5.18,5.1786,5.3095,5.3055,5.2693,5.272,5.2934,5.2774,5.2626,5.2545,5.2559,5.272,5.3001,5.3304,5.3411,5.3241,5.3108,5.3002,5.2881,5.2975,5.3055,5.3173,5.3317,5.3476,5.3502,5.3502,5.3502,5.3502,5.3502,5.3502,5.3502,5.3502,5.3458,5.3339,5.3171,5.2744,5.2575,5.255,5.292,5.3323,5.3586,5.3908,5.4377,5.4432,5.4522,5.459,5.4628,5.4641,5.4654,5.4654,5.4654,5.4641,5.4613,5.4573,5.4575,5.4603,5.4707,5.4824,5.4941,5.5017,5.5065,5.508,5.5004,5.5091,5.5156,5.5194,5.5207,5.5207,5.5207,5.5207,5.5207,5.5207,5.5207,5.5207,5.5207,5.5207,5.5207,5.5207,5.5207,5.5207,5.5207,5.5207,5.5207,5.5207,5.5207,5.5207,5.5207,5.5207,5.5207,5.5194,5.5143,5.5004,5.4839,5.4528,5.4254,5.3956,5.3669,5.3579,5.3502,5.3502,5.3502,5.3502,5.3502,5.3502,5.3502,5.3502,5.3502,5.3502,5.3397,5.3212,5.2921,5.2613,5.2357,5.21,5.1896,5.1786,5.1786,5.3081,5.3028,5.2451,5.2397,5.2667,5.2679,5.2506,5.2262,5.2289,5.2479,5.2814,5.3265,5.3502,5.341,5.3239,5.3148,5.3107,5.312,5.3148,5.3213,5.3383,5.3489,5.3502,5.3502,5.3502,5.3502,5.3502,5.3502,5.3502,5.3502,5.3502,5.3592,5.3591,5.3686,5.3815,5.4075,5.4232,5.4259,5.4268,5.4492,5.4692,5.4773,5.4888,5.4989,5.5027,5.5015,5.5015,5.5002,5.5002,5.5015,5.5027,5.5027,5.504,5.5053,5.5105,5.5143,5.5156,5.5181,5.5194,5.5194,5.5181,5.5194,5.5207,5.5207,5.5207,5.5207,5.5207,5.5207,5.5207,5.5207,5.5207,5.5207,5.5207,5.527,5.5282,5.5333,5.5358,5.5396,5.5433,5.5358,5.5257,5.5207,5.5207,5.5207,5.5207,5.5207,5.5207,5.5194,5.5181,5.5118,5.4966,5.4681,5.437,5.4099,5.38,5.3592,5.3502,5.3502,5.3502,5.3502,5.3502,5.3502,5.3502,5.3502,5.3502,5.3502,5.3502,5.3476,5.3146,5.2827,5.2411,5.2141,5.1937,5.1702,5.1604,5.2707,5.2465,5.2086,5.1991,5.2086,5.2114,5.2046,5.2018,5.233,5.26,5.2801,5.3265,5.3502,5.3462,5.3423,5.3358,5.3344,5.3372,5.3372,5.337,5.3476,5.3489,5.3502,5.3502,5.3502,5.3502,5.3502,5.3502,5.3502,5.3502,5.3502,5.3579,5.3943,5.4121,5.4212,5.4436,5.4645,5.4656,5.4784,5.4964,5.5055,5.5067,5.5105,5.5207,5.5207,5.5207,5.5207,5.5207,5.5207,5.5207,5.5207,5.5207,5.5207,5.5207,5.5207,5.5207,5.5207,5.5207,5.5207,5.5207,5.5207,5.5207,5.5207,5.5207,5.5207,5.5207,5.5207,5.5219,5.5244,5.5244,5.5207,5.5204,5.5242,5.5458,5.5533,5.5631,5.5693,5.5758,5.5771,5.5609,5.5483,5.5345,5.5295,5.5232,5.5207,5.5207,5.5207,5.5207,5.5194,5.5169,5.5067,5.4771,5.4475,5.4202,5.3956,5.3736,5.354,5.3502,5.3502,5.3502,5.3502,5.3502,5.3502,5.3502,5.3502,5.3487,5.3473,5.3432,5.3331,5.3054,5.2413,5.201,5.1809,5.1476,5.1153,5.2505,5.2181,5.1909,5.1786,5.1786,5.1786,5.1786,5.1909,5.2425,5.2707,5.2814,5.3251,5.3502,5.3502,5.3502,5.3502,5.3502,5.3502,5.3502,5.3502,5.3502,5.3502,5.3502,5.3502,5.3502,5.3502,5.3502,5.3502,5.3502,5.3502,5.3632,5.3891,5.4243,5.4513,5.4656,5.4837,5.4941,5.4966,5.5067,5.5156,5.5181,5.5194,5.5194,5.5207,5.5207,5.5207,5.5207,5.5207,5.5207,5.5207,5.5207,5.5207,5.5207,5.5207,5.5207,5.5207,5.5207,5.5207,5.5207,5.5207,5.5207,5.5207,5.5207,5.5207,5.5207,5.5207,5.528,5.5305,5.533,5.5421,5.5431,5.5418,5.5518,5.5718,5.578,5.5892,5.5929,5.5994,5.5981,5.5808,5.5693,5.5559,5.5396,5.527,5.5207,5.5207,5.5207,5.5207,5.5207,5.5181,5.5156,5.4926,5.4656,5.441,5.4138,5.3865,5.3684,5.3514,5.3514,5.3527,5.3502,5.3502,5.3502,5.3502,5.3502,5.3473,5.3442,5.3348,5.3054,5.2616,5.2005,5.1719,5.1638,5.1178,5.0633,5.2491,5.2167,5.1909,5.1786,5.1786,5.1786,5.1786,5.1883,5.2452,5.2694,5.2747,5.3279,5.3502,5.3502,5.3502,5.3502,5.3502,5.3502,5.3502,5.3502,5.3502,5.3502,5.3502,5.3502,5.3502,5.3502,5.3502,5.3502,5.3515,5.3579,5.3828,5.4202,5.4528,5.4798,5.5004,5.5105,5.5116,5.5143,5.5169,5.5207,5.5207,5.5207,5.5207,5.5207,5.5207,5.5207,5.5207,5.5207,5.5207,5.5207,5.5207,5.5207,5.5207,5.5207,5.5207,5.5207,5.5207,5.5207,5.5219,5.5219,5.5282,5.5292,5.5307,5.5257,5.527,5.5345,5.5468,5.5556,5.5634,5.5768,5.5867,5.5892,5.5917,5.5991,5.6016,5.6065,5.6117,5.6117,5.6105,5.6016,5.5954,5.5818,5.5631,5.5468,5.5333,5.5295,5.5282,5.5207,5.5207,5.5207,5.5181,5.5143,5.4888,5.4658,5.4386,5.4101,5.3852,5.3697,5.3605,5.3605,5.3553,5.3515,5.3502,5.3502,5.3502,5.3428,5.321,5.2923,5.2583,5.2093,5.1546,5.1251,5.1105,5.0445,4.993,5.2383,5.1923,5.1828,5.1786,5.1786,5.1786,5.1786,5.1882,5.2438,5.2707,5.2747,5.3265,5.3487,5.3502,5.3502,5.3502,5.3502,5.3502,5.3502,5.3502,5.3502,5.3502,5.3502,5.3502,5.3502,5.3502,5.3502,5.3515,5.3554,5.3645,5.393,5.4305,5.4683,5.4953,5.5118,5.5207,5.5207,5.5207,5.5207,5.5207,5.5207,5.5207,5.5207,5.5207,5.5207,5.5207,5.5207,5.5207,5.5207,5.5207,5.5207,5.5207,5.5207,5.5207,5.5207,5.5207,5.5207,5.5207,5.5232,5.5383,5.5496,5.5531,5.5631,5.5634,5.5606,5.5631,5.5768,5.583,5.5892,5.6003,5.6102,5.6139,5.6201,5.6262,5.6299,5.6335,5.6372,5.6409,5.6384,5.6274,5.6213,5.6025,5.5855,5.5668,5.5518,5.5443,5.5355,5.5282,5.5207,5.5207,5.5207,5.5169,5.5055,5.4798,5.4645,5.4399,5.4114,5.3878,5.3789,5.3671,5.3594,5.3541,5.3515,5.3442,5.3326,5.3122,5.2859,5.2501,5.2056,5.1644,5.1155,5.0842,5.0465,4.9838,4.9339,5.2343,5.1828,5.1786,5.1786,5.1786,5.1786,5.1786,5.1909,5.2438,5.2707,5.276,5.3279,5.3502,5.3502,5.3502,5.3502,5.3502,5.3502,5.3502,5.3502,5.3502,5.3502,5.3502,5.3502,5.3502,5.3502,5.3502,5.3487,5.3607,5.3906,5.4215,5.4528,5.4813,5.5017,5.5156,5.5207,5.5207,5.5207,5.5207,5.5207,5.5207,5.5207,5.5207,5.5207,5.5207,5.5207,5.5207,5.5207,5.5207,5.5207,5.5207,5.5207,5.5207,5.5207,5.5307,5.5333,5.5368,5.5456,5.5543,5.5668,5.5731,5.583,5.6003,5.604,5.5979,5.5954,5.604,5.6127,5.6136,5.6185,5.6274,5.6348,5.6445,5.6531,5.6579,5.6628,5.6689,5.6761,5.6664,5.6543,5.6397,5.6222,5.605,5.5864,5.5693,5.5568,5.5456,5.5358,5.527,5.5207,5.5207,5.5194,5.5093,5.4941,5.4786,5.4658,5.4412,5.4139,5.3904,5.3802,5.3658,5.348,5.3368,5.3225,5.3093,5.2759,5.2323,5.1915,5.147,5.1074,5.0628,5.0148,4.975,4.9286,4.8886,5.2343,5.1786,5.1786,5.1786,5.1786,5.1786,5.1786,5.1868,5.2438,5.2707,5.2801,5.3279,5.3502,5.3502,5.3502,5.3502,5.3502,5.3502,5.3502,5.3502,5.3502,5.3502,5.3502,5.3502,5.3502,5.3502,5.35,5.3527,5.3684,5.3995,5.4397,5.4788,5.5042,5.5194,5.5194,5.5207,5.5207,5.5207,5.5207,5.5207,5.5207,5.5207,5.5207,5.5207,5.5207,5.5207,5.5207,5.5207,5.5207,5.5207,5.5207,5.5207,5.527,5.5282,5.5393,5.5543,5.5618,5.5706,5.5842,5.5951,5.6016,5.6114,5.6274,5.6372,5.6348,5.6274,5.6348,5.6397,5.6418,5.6467,5.6543,5.6567,5.664,5.6677,5.6701,5.6725,5.6749,5.6785,5.6749,5.6652,5.6579,5.643,5.6369,5.6185,5.5942,5.5743,5.5556,5.5458,5.532,5.5219,5.5207,5.5207,5.5143,5.5055,5.4966,5.4839,5.4683,5.4438,5.4178,5.3945,5.3815,5.3525,5.318,5.286,5.247,5.2107,5.1701,5.135,5.0987,5.0571,5.0062,4.9441,4.9041,4.8864,4.8578,5.2343,5.1814,5.1786,5.1786,5.1786,5.1786,5.18,5.1855,5.2452,5.2707,5.2801,5.3225,5.3502,5.3502,5.3502,5.3502,5.3502,5.3502,5.3502,5.3502,5.3502,5.3502,5.3502,5.3502,5.3502,5.3502,5.3514,5.3632,5.3852,5.4164,5.4487,5.48,5.5067,5.5207,5.5207,5.5207,5.5207,5.5207,5.5207,5.5207,5.5207,5.5207,5.5207,5.5207,5.5207,5.5207,5.5207,5.5207,5.5207,5.5207,5.5207,5.532,5.5496,5.5493,5.5643,5.5855,5.5902,5.5966,5.6077,5.6225,5.6299,5.6384,5.6519,5.664,5.6692,5.6655,5.6628,5.6664,5.6685,5.6737,5.6773,5.6785,5.6785,5.6785,5.6785,5.6785,5.6785,5.6785,5.6785,5.6761,5.6725,5.6661,5.6613,5.647,5.6213,5.5954,5.5706,5.5518,5.5333,5.5207,5.5207,5.5207,5.5207,5.5143,5.5095,5.5032,5.489,5.4775,5.4568,5.4283,5.3955,5.3322,5.2704,5.2176,5.1746,5.1439,5.1164,5.0944,5.0566,5.0162,4.9898,4.9459,4.9207,4.903,4.8615,5.2343,5.1828,5.1786,5.1786,5.1786,5.1786,5.1868,5.2045,5.2506,5.276,5.2935,5.3291,5.3502,5.3502,5.3502,5.3502,5.3502,5.3502,5.3502,5.3502,5.3502,5.3502,5.3502,5.3502,5.3502,5.35,5.3658,5.3813,5.406,5.4385,5.4696,5.4941,5.5156,5.5207,5.5207,5.5207,5.5207,5.5207,5.5207,5.5207,5.5207,5.5207,5.5207,5.5207,5.5207,5.5219,5.5207,5.5219,5.5295,5.5393,5.5506,5.5634,5.5771,5.578,5.5917,5.609,5.6188,5.621,5.6348,5.6473,5.657,5.6628,5.6664,5.6761,5.6761,5.6713,5.6713,5.6749,5.6749,5.6785,5.6785,5.6785,5.6785,5.6785,5.6785,5.6785,5.6785,5.6785,5.6785,5.6785,5.6761,5.6749,5.6713,5.6701,5.6421,5.6053,5.5805,5.5543,5.5358,5.5207,5.5207,5.5207,5.5207,5.5207,5.5156,5.5146,5.5108,5.5006,5.4849,5.4198,5.3589,5.2842,5.218,5.1584,5.1143,5.0857,5.061,5.0448,5.0259,4.9899,4.9746,4.9585,4.9391,4.917,4.881,5.2303,5.1814,5.1786,5.1786,5.1786,5.1786,5.1937,5.2222,5.2545,5.2868,5.308,5.3385,5.3489,5.3502,5.3502,5.3502,5.3502,5.3502,5.3502,5.3502,5.3502,5.3502,5.3502,5.3502,5.3502,5.3579,5.3749,5.3995,5.4239,5.4566,5.4851,5.5143,5.5207,5.5207,5.5207,5.5207,5.5207,5.5207,5.5207,5.5207,5.5207,5.5207,5.5207,5.5207,5.5232,5.5242,5.5257,5.5345,5.5443,5.5593,5.5802,5.5942,5.6028,5.6065,5.6225,5.6372,5.6458,5.6555,5.6692,5.6713,5.6749,5.6773,5.6785,5.6798,5.6798,5.681,5.681,5.681,5.681,5.6798,5.6798,5.6785,5.6785,5.6785,5.6785,5.6785,5.6785,5.6785,5.6785,5.6785,5.6785,5.6785,5.6785,5.6785,5.6555,5.6188,5.588,5.5606,5.5381,5.527,5.5207,5.5207,5.5207,5.5207,5.5207,5.5194,5.5196,5.5026,5.4772,5.3976,5.3162,5.2314,5.1554,5.0931,5.052,5.033,5.0143,4.9969,4.9766,4.9708,4.9683,4.9647,4.9512,4.9293,4.9031,5.2114,5.18,5.1786,5.1786,5.1786,5.1786,5.195,5.2221,5.2559,5.2854,5.3148,5.3357,5.3502,5.3502,5.3502,5.3502,5.3502,5.3502,5.3502,5.3502,5.3502,5.3502,5.3502,5.3502,5.3502,5.3632,5.3828,5.4047,5.4396,5.4683,5.4928,5.5194,5.5207,5.5207,5.5207,5.5207,5.5207,5.5207,5.5219,5.5204,5.5217,5.5232,5.5207,5.5282,5.5421,5.5468,5.5568,5.5743,5.5842,5.5929,5.6001,5.6164,5.6262,5.632,5.6458,5.6567,5.6664,5.6701,5.6773,5.6785,5.6785,5.6798,5.681,5.683,5.6842,5.6882,5.6882,5.6879,5.6867,5.6846,5.6834,5.6798,5.6785,5.6785,5.6785,5.6785,5.6785,5.6785,5.6785,5.6785,5.6785,5.6785,5.6785,5.6725,5.6579,5.6262,5.6028,5.5758,5.5396,5.5295,5.5207,5.5207,5.5207,5.5207,5.5207,5.5207,5.5179,5.5004,5.4538,5.3523,5.2575,5.1679,5.0949,5.0517,5.0152,4.9923,4.9722,4.9708,4.9708,4.9708,4.9708,4.9671,4.9575,4.9453,4.9217]},{"header":{"parameterUnit":"m.s-1","parameterCategory":1,"la1":31.0,"la2":29.5877,"lo1":-88.7671,"lo2":-86.6584,"dy":0.0162,"dx":0.0185,"nx":115,"ny":88,"refTime":"2023-05-22T00:00:00:Z","depth":0,"parameterNumber":3,"parameterNumberName":"V-component_of_WINDS"},"data":[0.0,0.0,0.0,0.0,0.0,0.0,0.0,0.0,0.0,0.0,0.0,0.0,0.0,0.0,0.0,0.0,0.0,0.0,0.0,0.0,0.0,0.0,0.0,0.0,0.0,0.0,0.0,0.0,0.0,0.0,0.0,0.0,0.0,0.0,0.0,0.0,0.0,0.0,0.0,0.0,0.0,0.0,0.0,0.0,0.0,0.0,0.0,0.0,0.0,0.0,0.0,0.0,0.0,0.0,0.0,0.0,0.0,0.0,0.0,0.0,0.0,0.0,0.0,0.0,0.0,0.0,0.0,0.0,0.0,0.0,0.0,0.0,0.0,0.0,0.0,0.0,0.0,0.0,0.0,0.0,0.0,0.0,0.0,0.0,0.0,0.0,0.0,0.0,0.0,0.0,0.0,0.0,0.0,0.0,0.0,0.0,0.0,0.0,0.0,0.0,0.0,0.0,0.0,0.0,0.0,0.0,0.0,0.0,0.0,0.0,0.0,0.0,0.0,0.0,0.0,0.0,0.0,0.0,0.0,0.0,0.0,0.0,0.0,0.0,0.0,0.0,0.0,0.0,0.0,0.0,0.0,0.0,0.0,0.0,0.0,0.0,0.0,0.0,0.0,0.0,0.0,0.0,0.0,0.0,0.0,0.0,0.0,0.0,0.0,0.0,0.0,0.0,0.0,0.0,0.0,0.0,0.0,0.0,0.0,0.0,0.0,0.0,0.0,0.0,0.0,0.0,0.0,0.0,0.0,0.0,0.0,0.0,0.0,0.0,0.0,0.0,0.0,0.0,0.0,0.0,0.0,0.0,0.0,0.0,0.0,0.0,0.0,0.0,0.0,0.0,0.0,0.0,0.0,0.0,0.0,0.0,0.0,0.0,0.0,0.0,0.0,0.0,0.0,0.0,0.0,0.0,0.0,0.0,0.0,0.0,0.0,0.0,0.0,0.0,0.0,0.0,0.0,0.0,0.0,0.0,0.0,0.0,0.0,0.0,0.0,0.0,0.0,0.0,0.0,0.0,0.0,0.0,0.0,0.0,0.0,0.0,0.0,0.0,0.0,0.0,0.0,0.0,0.0,0.0,0.0,0.0,0.0,0.0,0.0,0.0,0.0,0.0,0.0,0.0,0.0,0.0,0.0,0.0,0.0,0.0,0.0,0.0,0.0,0.0,0.0,0.0,0.0,0.0,0.0,0.0,0.0,0.0,0.0,0.0,0.0,0.0,0.0,0.0,0.0,0.0,0.0,0.0,0.0,0.0,0.0,0.0,0.0,0.0,0.0,0.0,0.0,0.0,0.0,0.0,0.0,0.0,0.0,0.0,0.0,0.0,0.0,0.0,0.0,0.0,0.0,0.0,0.0,0.0,0.0,0.0,0.0,0.0,0.0,0.0,0.0,0.0,0.0,0.0,0.0,0.0,0.0,0.0,0.0,0.0,0.0,0.0,0.0,0.0,0.0,0.0,0.0,0.0,0.0,0.0,0.0,0.0,0.0,0.0,0.0,0.0,0.0,0.0,0.0,0.0,0.0,0.0,0.0,0.0,0.0,0.0,0.0,0.0,0.0,0.0,0.0,0.0,0.0,0.0,0.0,0.0,0.0,0.0,0.0,0.0,0.0,0.0,0.0,0.0,0.0,0.0,0.0,0.0,0.0,0.0,0.0,0.0,0.0,0.0,0.0,0.0,0.0,0.0,0.0,0.0,0.0,0.0,0.0,0.0,0.0,0.0,0.0,0.0,0.0,0.0,0.0,0.0,0.0,0.0,0.0,0.0,0.0,0.0,0.0,0.0,0.0,0.0,0.0,0.0,0.0,0.0,0.0,0.0,0.0,0.0,0.0,0.0,0.0,0.0,0.0,0.0,0.0,0.0,0.0,0.0,0.0,0.0,0.0,0.0,0.0,0.0,0.0,0.0,0.0,0.0,0.0,0.0,0.0,0.0,0.0,0.0,0.0,0.0,0.0,0.0,0.0,0.0,0.0,0.0,0.0,0.0,0.0,0.0,0.0,0.0,0.0,0.0,0.0,0.0,0.0,0.0,0.0,0.0,0.0,0.0,0.0,0.0,0.0,0.0,0.0,0.0,0.0,0.0,0.0,0.0,0.0,0.0,0.0,0.0,0.0,0.0,0.0,0.0,0.0,0.0,0.0,0.0,0.0,0.0,0.0,0.0,0.0,0.0,0.0,0.0,0.0,0.0,0.0,0.0,0.0,0.0,0.0,0.0,0.0,0.0,0.0,0.0,0.0,0.0,0.0,0.0,0.0,0.0,0.0,0.0,0.0,0.0,0.0,0.0,0.0,0.0,0.0,0.0,0.0,0.0,0.0,0.0,0.0,0.0,0.0,0.0,0.0,0.0,0.0,0.0,0.0,0.0,0.0,0.0,0.0,0.0,0.0,0.0,0.0,0.0,0.0,0.0,0.0,0.0,0.0,0.0,0.0,0.0,0.0,0.0,0.0,0.0,0.0,0.0,0.0,0.0,0.0,0.0,0.0,0.0,0.0,0.0,0.0,0.0,0.0,0.0,0.0,0.0,0.0,0.0,0.0,0.0,0.0,0.0,0.0,0.0,0.0,0.0,0.0,0.0,0.0,0.0,0.0,0.0,0.0,0.0,0.0,0.0,0.0,0.0,0.0,0.0,0.0,0.0,0.0,0.0,0.0,0.0,0.0,0.0,0.0,0.0,0.0,0.0,0.0,0.0,0.0,0.0,0.0,0.0,0.0,0.0,0.0,0.0,0.0,0.0,0.0,0.0,0.0,0.0,0.0,0.0,0.0,0.0,0.0,0.0,0.0,0.0,0.0,0.0,0.0,0.0,0.0,0.0,0.0,0.0,0.0,0.0,0.0,0.0,0.0,0.0,0.0,0.0,0.0,0.0,0.0,0.0,0.0,0.0,0.0,0.0,0.0,0.0,0.0,0.0,0.0,0.0,0.0,0.0,0.0,0.0,0.0,0.0,0.0,0.0,0.0,0.0,0.0,0.0,0.0,0.0,0.0,0.0,0.0,0.0,0.0,0.0,0.0,0.0,0.0,0.0,0.0,0.0,0.0,0.0,0.0,0.0,0.0,0.0,0.0,0.0,0.0,0.0,0.0,0.0,0.0,0.0,0.0,0.0,0.0,0.0,0.0,0.0,0.0,0.0,0.0,0.0,0.0,0.0,0.0,0.0,0.0,0.0,0.0,0.0,0.0,0.0,0.0,0.0,0.0,0.0,0.0,0.0,0.0,0.0,0.0,0.0,0.0,0.0,0.0,0.0,0.0,0.0,0.0,0.0,0.0,0.0,0.0,0.0,0.0,0.0,0.0,0.0,0.0,0.0,0.0,0.0,0.0,0.0,0.0,0.0,0.0,0.0,0.0,0.0,0.0,0.0,0.0,0.0,0.0,0.0,0.0,0.0,0.0,0.0,0.0,0.0,0.0,0.0,0.0,0.0,0.0,0.0,0.0,0.0,0.0,0.0,0.0,0.0,0.0,0.0,0.0,0.0,0.0,0.0,0.0,0.0,0.0,0.0,0.0,0.0,0.0,0.0,0.0,0.0,0.0,0.0,0.0,0.0,0.0,0.0,0.0,0.0,0.0,0.0,0.0,0.0,0.0,0.0,0.0,0.0,0.0,0.0,0.0,0.0,0.0,0.0,0.0,0.0,0.0,0.0,0.0,0.0,0.0,0.0,0.0,0.0,0.0,0.0,0.0,0.0,0.0,0.0,0.0,0.0,0.0,0.0,0.0,0.0,0.0,0.0,0.0,0.0,0.0,0.0,0.0,0.0,0.0,0.0,0.0,0.0,0.0,0.0,0.0,0.0,0.0,0.0,0.0,0.0,0.0,0.0,0.0,0.0,0.0,0.0,0.0,0.0,0.0,0.0,0.0,0.0,0.0,0.0,0.0,0.0,0.0,0.0,0.0,0.0,0.0,0.0,0.0,0.0,0.0,0.0,0.0,0.0,0.0,0.0,0.0,0.0,0.0,0.0,0.0,0.0,0.0,0.0,0.0,0.0,0.0,0.0,0.0,0.0,0.0,0.0,0.0,0.0,0.0,0.0,0.0,0.0,0.0,0.0,0.0,0.0,0.0,0.0,0.0,0.0,0.0,0.0,0.0,0.0,0.0,0.0,0.0,0.0,0.0,0.0,0.0,0.0,0.0,0.0,0.0,0.0,0.0,0.0,0.0,0.0,0.0,0.0,0.0,0.0,0.0,0.0,0.0,0.0,0.0,0.0,0.0,0.0,0.0,0.0,0.0,0.0,0.0,0.0,0.0,0.0,0.0,0.0,2.5491,0.0,0.0,0.0,0.0,0.0,0.0,0.0,0.0,0.0,0.0,0.0,0.0,0.0,0.0,0.0,0.0,0.0,0.0,0.0,0.0,0.0,0.0,0.0,0.0,0.0,0.0,0.0,0.0,0.0,0.0,0.0,0.0,0.0,0.0,0.0,0.0,0.0,0.0,0.0,0.0,0.0,0.0,0.0,0.0,0.0,0.0,0.0,0.0,0.0,0.0,0.0,0.0,0.0,0.0,0.0,0.0,0.0,0.0,0.0,0.0,0.0,0.0,0.0,0.0,0.0,0.0,0.0,0.0,0.0,0.0,0.0,0.0,0.0,0.0,0.0,0.0,0.0,0.0,0.0,0.0,0.0,0.0,0.0,0.0,0.0,0.0,0.0,0.0,0.0,0.0,0.0,0.0,0.0,0.0,0.0,0.0,0.0,0.0,0.0,0.0,0.0,0.0,0.0,0.0,0.0,0.0,0.0,0.0,0.0,0.0,2.5235,2.5294,2.5294,2.5338,2.5435,0.0,0.0,0.0,0.0,0.0,0.0,0.0,0.0,0.0,0.0,0.0,0.0,0.0,0.0,0.0,0.0,0.0,0.0,0.0,0.0,0.0,0.0,0.0,0.0,0.0,0.0,0.0,0.0,0.0,0.0,0.0,0.0,0.0,0.0,0.0,0.0,0.0,0.0,0.0,0.0,0.0,0.0,0.0,0.0,0.0,0.0,0.0,0.0,0.0,0.0,0.0,0.0,0.0,0.0,0.0,0.0,0.0,0.0,0.0,0.0,0.0,0.0,0.0,0.0,0.0,0.0,0.0,0.0,0.0,0.0,0.0,0.0,0.0,0.0,0.0,0.0,0.0,0.0,0.0,0.0,0.0,0.0,0.0,0.0,0.0,0.0,0.0,0.0,0.0,0.0,0.0,0.0,0.0,0.0,0.0,0.0,0.0,0.0,0.0,0.0,0.0,0.0,0.0,0.0,0.0,0.0,0.0,0.0,0.0,0.0,0.0,0.0,2.5294,2.5309,2.5374,0.0,0.0,0.0,0.0,0.0,0.0,0.0,0.0,0.0,0.0,0.0,0.0,0.0,0.0,0.0,0.0,0.0,0.0,0.0,0.0,0.0,0.0,0.0,0.0,0.0,0.0,0.0,0.0,0.0,0.0,0.0,0.0,0.0,0.0,0.0,0.0,0.0,0.0,0.0,0.0,0.0,0.0,0.0,0.0,0.0,0.0,0.0,0.0,0.0,0.0,0.0,0.0,0.0,0.0,0.0,0.0,0.0,0.0,0.0,0.0,0.0,0.0,0.0,0.0,0.0,0.0,0.0,0.0,0.0,0.0,0.0,0.0,0.0,0.0,0.0,0.0,0.0,0.0,0.0,0.0,0.0,0.0,0.0,0.0,0.0,0.0,0.0,0.0,0.0,0.0,0.0,0.0,0.0,0.0,0.0,0.0,0.0,0.0,0.0,0.0,0.0,0.0,0.0,0.0,0.0,0.0,0.0,0.0,0.0,0.0,2.5164,2.5294,2.5294,0.0,2.5571,0.0,0.0,0.0,0.0,0.0,0.0,0.0,0.0,0.0,0.0,0.0,0.0,0.0,0.0,0.0,0.0,0.0,0.0,0.0,0.0,0.0,0.0,0.0,0.0,0.0,0.0,0.0,0.0,0.0,0.0,0.0,0.0,0.0,0.0,0.0,0.0,0.0,0.0,0.0,0.0,0.0,0.0,0.0,0.0,0.0,0.0,0.0,0.0,0.0,0.0,0.0,0.0,0.0,0.0,0.0,0.0,0.0,0.0,0.0,0.0,0.0,0.0,0.0,0.0,0.0,0.0,0.0,0.0,0.0,0.0,0.0,0.0,0.0,0.0,0.0,0.0,0.0,0.0,0.0,0.0,0.0,0.0,0.0,0.0,0.0,0.0,0.0,0.0,0.0,0.0,0.0,0.0,0.0,0.0,0.0,0.0,0.0,0.0,0.0,0.0,0.0,0.0,0.0,0.0,0.0,0.0,0.0,0.0,0.0,0.0,2.5001,2.5191,2.5259,2.5338,0.0,0.0,0.0,0.0,0.0,0.0,0.0,0.0,0.0,0.0,0.0,0.0,0.0,0.0,0.0,0.0,0.0,0.0,0.0,0.0,0.0,0.0,0.0,0.0,0.0,0.0,0.0,0.0,0.0,0.0,0.0,0.0,0.0,0.0,0.0,0.0,0.0,0.0,0.0,0.0,0.0,0.0,0.0,0.0,0.0,0.0,0.0,0.0,0.0,0.0,0.0,0.0,0.0,0.0,0.0,0.0,0.0,0.0,0.0,0.0,0.0,0.0,0.0,0.0,0.0,0.0,0.0,0.0,0.0,0.0,0.0,0.0,0.0,0.0,0.0,0.0,0.0,0.0,0.0,0.0,0.0,0.0,0.0,0.0,0.0,0.0,0.0,0.0,0.0,0.0,0.0,0.0,0.0,0.0,0.0,0.0,0.0,0.0,0.0,0.0,0.0,0.0,0.0,0.0,0.0,0.0,0.0,0.0,0.0,0.0,2.4972,2.5045,2.515,2.5262,2.5294,2.5294,0.0,0.0,0.0,0.0,0.0,0.0,0.0,0.0,0.0,0.0,0.0,0.0,0.0,0.0,0.0,0.0,0.0,0.0,0.0,0.0,0.0,0.0,0.0,0.0,0.0,0.0,0.0,0.0,0.0,0.0,0.0,0.0,0.0,0.0,0.0,0.0,0.0,0.0,0.0,0.0,0.0,0.0,0.0,0.0,0.0,0.0,0.0,0.0,0.0,0.0,0.0,0.0,0.0,0.0,0.0,0.0,0.0,0.0,0.0,0.0,0.0,0.0,0.0,0.0,0.0,0.0,0.0,0.0,0.0,0.0,0.0,0.0,0.0,0.0,0.0,0.0,0.0,0.0,0.0,0.0,0.0,0.0,0.0,0.0,0.0,0.0,0.0,0.0,0.0,0.0,0.0,0.0,0.0,0.0,0.0,0.0,0.0,0.0,0.0,0.0,0.0,0.0,0.0,0.0,0.0,0.0,0.0,0.0,2.5892,2.5613,2.5415,2.5312,2.5303,2.5294,0.0,0.0,0.0,0.0,0.0,0.0,0.0,0.0,0.0,0.0,0.0,0.0,0.0,0.0,0.0,0.0,0.0,0.0,0.0,0.0,0.0,0.0,0.0,0.0,0.0,0.0,0.0,0.0,0.0,0.0,0.0,0.0,0.0,0.0,0.0,0.0,0.0,0.0,0.0,0.0,0.0,0.0,0.0,0.0,0.0,0.0,0.0,0.0,0.0,0.0,0.0,0.0,0.0,0.0,0.0,0.0,0.0,0.0,0.0,0.0,0.0,0.0,0.0,0.0,0.0,0.0,0.0,0.0,0.0,0.0,0.0,0.0,0.0,0.0,0.0,0.0,0.0,0.0,0.0,0.0,0.0,0.0,0.0,0.0,0.0,0.0,0.0,0.0,0.0,0.0,0.0,0.0,0.0,0.0,0.0,0.0,0.0,0.0,0.0,0.0,0.0,0.0,0.0,0.0,0.0,0.0,0.0,0.0,0.0,2.58,2.594,2.5942,2.5823,2.5826,2.564,0.0,0.0,0.0,0.0,0.0,0.0,0.0,0.0,0.0,0.0,0.0,0.0,0.0,0.0,0.0,0.0,0.0,0.0,0.0,0.0,0.0,0.0,0.0,0.0,0.0,0.0,0.0,0.0,0.0,0.0,0.0,0.0,0.0,0.0,0.0,0.0,0.0,0.0,0.0,0.0,0.0,0.0,0.0,0.0,0.0,0.0,0.0,0.0,0.0,0.0,0.0,0.0,0.0,0.0,0.0,0.0,0.0,0.0,0.0,0.0,0.0,0.0,0.0,0.0,0.0,0.0,0.0,0.0,0.0,0.0,0.0,0.0,0.0,0.0,0.0,0.0,0.0,0.0,0.0,0.0,0.0,0.0,0.0,0.0,0.0,0.0,0.0,0.0,0.0,0.0,0.0,0.0,0.0,0.0,0.0,0.0,0.0,0.0,0.0,0.0,0.0,0.0,0.0,0.0,0.0,0.0,0.0,0.0,0.0,2.6044,0.0,2.647,2.6283,2.6333,2.6117,0.0,0.0,0.0,0.0,0.0,0.0,0.0,0.0,0.0,0.0,0.0,0.0,0.0,0.0,0.0,0.0,0.0,0.0,0.0,0.0,0.0,0.0,0.0,0.0,0.0,0.0,0.0,0.0,0.0,0.0,0.0,0.0,0.0,0.0,0.0,0.0,0.0,0.0,0.0,0.0,0.0,0.0,0.0,0.0,0.0,0.0,0.0,0.0,0.0,0.0,0.0,0.0,0.0,0.0,0.0,0.0,0.0,0.0,0.0,0.0,0.0,0.0,0.0,0.0,0.0,0.0,0.0,0.0,0.0,0.0,0.0,0.0,0.0,0.0,0.0,0.0,0.0,0.0,0.0,0.0,0.0,0.0,0.0,0.0,0.0,0.0,0.0,0.0,0.0,0.0,0.0,0.0,0.0,0.0,0.0,0.0,0.0,0.0,0.0,0.0,0.0,0.0,0.0,0.0,0.0,0.0,0.0,0.0,2.6993,2.6698,2.6946,2.6891,2.6624,2.6767,2.6631,0.0,0.0,0.0,0.0,0.0,0.0,0.0,0.0,0.0,0.0,0.0,0.0,0.0,0.0,0.0,0.0,0.0,0.0,0.0,0.0,0.0,0.0,0.0,0.0,0.0,0.0,0.0,0.0,0.0,0.0,0.0,0.0,0.0,0.0,0.0,0.0,0.0,0.0,0.0,0.0,0.0,0.0,0.0,0.0,0.0,0.0,0.0,0.0,0.0,0.0,0.0,0.0,0.0,0.0,0.0,0.0,0.0,0.0,0.0,0.0,0.0,0.0,0.0,0.0,0.0,0.0,0.0,0.0,0.0,0.0,0.0,0.0,0.0,0.0,0.0,0.0,0.0,0.0,0.0,0.0,0.0,0.0,0.0,0.0,0.0,0.0,0.0,0.0,0.0,0.0,0.0,0.0,0.0,0.0,0.0,0.0,0.0,0.0,0.0,0.0,0.0,0.0,0.0,0.0,0.0,0.0,0.0,0.0,0.0,2.677,2.6849,2.68,2.6617,2.6659,2.6679,0.0,0.0,0.0,0.0,0.0,0.0,0.0,0.0,0.0,0.0,0.0,0.0,0.0,0.0,0.0,0.0,0.0,0.0,0.0,0.0,0.0,0.0,0.0,0.0,0.0,0.0,0.0,0.0,0.0,0.0,0.0,0.0,0.0,0.0,0.0,0.0,0.0,0.0,0.0,0.0,0.0,0.0,0.0,0.0,0.0,0.0,0.0,0.0,0.0,0.0,0.0,0.0,0.0,0.0,0.0,0.0,0.0,0.0,0.0,0.0,0.0,0.0,0.0,0.0,0.0,0.0,0.0,0.0,0.0,0.0,0.0,0.0,0.0,0.0,0.0,0.0,0.0,0.0,0.0,0.0,0.0,0.0,0.0,0.0,0.0,0.0,0.0,0.0,0.0,0.0,0.0,0.0,0.0,0.0,0.0,0.0,0.0,0.0,0.0,0.0,0.0,0.0,0.0,0.0,0.0,0.0,0.0,0.0,0.0,2.6394,2.6461,2.6463,2.6372,2.6704,2.6871,2.6806,0.0,0.0,0.0,0.0,0.0,0.0,0.0,0.0,0.0,0.0,0.0,0.0,0.0,0.0,0.0,0.0,0.0,0.0,0.0,0.0,0.0,0.0,0.0,0.0,0.0,0.0,0.0,0.0,0.0,0.0,0.0,0.0,0.0,0.0,0.0,0.0,0.0,0.0,0.0,0.0,0.0,0.0,0.0,0.0,0.0,0.0,0.0,0.0,0.0,0.0,0.0,0.0,0.0,0.0,0.0,0.0,0.0,0.0,0.0,0.0,0.0,0.0,0.0,0.0,0.0,0.0,0.0,0.0,0.0,0.0,0.0,0.0,0.0,0.0,0.0,0.0,0.0,0.0,0.0,0.0,0.0,0.0,0.0,0.0,0.0,0.0,0.0,0.0,0.0,0.0,0.0,0.0,0.0,0.0,0.0,0.0,0.0,0.0,0.0,0.0,0.0,0.0,0.0,0.0,0.0,0.0,0.0,0.0,2.5696,2.5837,2.5928,2.5982,2.6859,2.7123,0.0,0.0,0.0,0.0,0.0,0.0,0.0,0.0,0.0,0.0,0.0,0.0,0.0,0.0,0.0,0.0,0.0,0.0,0.0,0.0,0.0,0.0,0.0,0.0,0.0,0.0,0.0,0.0,0.0,0.0,0.0,0.0,0.0,0.0,0.0,0.0,0.0,0.0,0.0,0.0,0.0,0.0,0.0,0.0,0.0,0.0,0.0,0.0,0.0,0.0,0.0,0.0,0.0,0.0,0.0,0.0,0.0,0.0,0.0,0.0,0.0,0.0,0.0,0.0,0.0,0.0,0.0,0.0,0.0,0.0,0.0,0.0,0.0,0.0,0.0,0.0,0.0,0.0,0.0,0.0,0.0,0.0,0.0,0.0,0.0,0.0,0.0,0.0,0.0,0.0,0.0,0.0,0.0,0.0,0.0,0.0,0.0,0.0,0.0,0.0,0.0,0.0,0.0,0.0,0.0,0.0,0.0,0.0,0.0,2.5694,2.5037,2.493,2.5489,2.6209,2.6777,0.0,0.0,0.0,0.0,0.0,0.0,0.0,0.0,0.0,0.0,0.0,0.0,0.0,0.0,0.0,0.0,0.0,0.0,0.0,0.0,0.0,0.0,0.0,0.0,0.0,0.0,0.0,0.0,0.0,0.0,0.0,0.0,0.0,0.0,0.0,0.0,0.0,0.0,0.0,0.0,0.0,0.0,0.0,0.0,0.0,0.0,0.0,0.0,0.0,0.0,0.0,0.0,0.0,0.0,0.0,0.0,0.0,0.0,0.0,0.0,0.0,0.0,0.0,0.0,0.0,0.0,0.0,0.0,0.0,0.0,0.0,0.0,0.0,0.0,0.0,0.0,0.0,0.0,0.0,0.0,0.0,0.0,0.0,0.0,0.0,0.0,0.0,0.0,0.0,0.0,0.0,0.0,0.0,0.0,0.0,0.0,0.0,0.0,0.0,0.0,0.0,0.0,0.0,0.0,0.0,0.0,0.0,0.0,2.6035,2.6024,2.5254,2.5046,2.5446,2.5923,2.6406,0.0,0.0,0.0,0.0,0.0,0.0,0.0,0.0,0.0,0.0,0.0,0.0,0.0,0.0,0.0,0.0,0.0,0.0,0.0,0.0,0.0,0.0,0.0,0.0,0.0,0.0,0.0,0.0,0.0,0.0,0.0,0.0,0.0,0.0,0.0,0.0,0.0,0.0,0.0,0.0,0.0,0.0,0.0,0.0,0.0,0.0,0.0,0.0,0.0,0.0,0.0,0.0,0.0,0.0,0.0,0.0,0.0,0.0,0.0,0.0,0.0,0.0,0.0,0.0,0.0,0.0,0.0,0.0,0.0,0.0,0.0,0.0,0.0,0.0,0.0,0.0,0.0,0.0,0.0,0.0,0.0,0.0,0.0,0.0,0.0,0.0,0.0,0.0,0.0,0.0,0.0,0.0,0.0,0.0,0.0,0.0,0.0,0.0,0.0,0.0,0.0,0.0,0.0,0.0,0.0,0.0,0.0,0.0,2.6492,2.6492,2.5958,2.5706,2.5706,2.5953,2.6164,0.0,0.0,0.0,0.0,0.0,0.0,0.0,0.0,0.0,0.0,0.0,0.0,0.0,0.0,0.0,0.0,0.0,0.0,0.0,0.0,0.0,0.0,0.0,0.0,0.0,0.0,0.0,0.0,0.0,0.0,0.0,0.0,0.0,0.0,0.0,0.0,0.0,0.0,0.0,0.0,0.0,0.0,0.0,0.0,0.0,0.0,0.0,0.0,0.0,0.0,0.0,0.0,0.0,0.0,0.0,0.0,0.0,0.0,0.0,0.0,0.0,0.0,0.0,0.0,0.0,0.0,0.0,0.0,0.0,0.0,0.0,0.0,0.0,0.0,0.0,0.0,0.0,0.0,0.0,0.0,0.0,0.0,0.0,0.0,0.0,0.0,0.0,0.0,0.0,0.0,0.0,0.0,0.0,0.0,0.0,0.0,0.0,0.0,0.0,0.0,0.0,0.0,0.0,0.0,0.0,0.0,0.0,0.0,2.6482,2.649,2.5968,2.5696,2.5696,2.6311,2.6724,0.0,0.0,0.0,0.0,0.0,0.0,0.0,0.0,0.0,0.0,0.0,0.0,0.0,0.0,0.0,0.0,0.0,0.0,0.0,0.0,0.0,0.0,0.0,0.0,0.0,0.0,0.0,0.0,0.0,0.0,0.0,0.0,0.0,0.0,0.0,0.0,0.0,0.0,0.0,0.0,0.0,0.0,0.0,0.0,0.0,0.0,0.0,0.0,3.2268,0.0,0.0,0.0,0.0,0.0,0.0,0.0,0.0,0.0,0.0,0.0,0.0,0.0,0.0,0.0,0.0,0.0,0.0,0.0,0.0,0.0,0.0,0.0,0.0,0.0,0.0,0.0,0.0,0.0,0.0,0.0,0.0,0.0,0.0,0.0,0.0,0.0,0.0,0.0,0.0,0.0,0.0,0.0,0.0,0.0,0.0,0.0,0.0,0.0,0.0,0.0,0.0,0.0,0.0,0.0,0.0,0.0,0.0,0.0,2.6849,2.6808,2.6555,2.6396,2.6429,2.6781,2.7034,0.0,0.0,0.0,0.0,0.0,0.0,0.0,0.0,0.0,0.0,0.0,0.0,0.0,0.0,0.0,0.0,0.0,0.0,0.0,0.0,0.0,0.0,0.0,0.0,0.0,0.0,0.0,0.0,0.0,0.0,0.0,0.0,0.0,0.0,0.0,0.0,0.0,0.0,0.0,0.0,0.0,0.0,0.0,0.0,0.0,0.0,0.0,0.0,0.0,0.0,0.0,0.0,0.0,0.0,0.0,0.0,0.0,0.0,0.0,0.0,0.0,0.0,0.0,0.0,0.0,0.0,0.0,0.0,0.0,0.0,0.0,0.0,0.0,0.0,0.0,0.0,0.0,0.0,0.0,0.0,0.0,0.0,0.0,0.0,0.0,0.0,0.0,0.0,0.0,0.0,0.0,0.0,0.0,0.0,0.0,0.0,0.0,0.0,0.0,0.0,0.0,0.0,0.0,0.0,0.0,0.0,0.0,2.7473,2.719,2.719,2.719,2.719,2.719,2.719,2.724,2.735,0.0,0.0,0.0,0.0,0.0,0.0,0.0,0.0,0.0,0.0,0.0,0.0,0.0,0.0,0.0,0.0,0.0,0.0,0.0,0.0,0.0,0.0,0.0,0.0,0.0,0.0,0.0,0.0,0.0,0.0,0.0,0.0,0.0,0.0,0.0,0.0,0.0,0.0,3.0723,3.0883,0.0,0.0,0.0,0.0,0.0,0.0,0.0,0.0,3.2291,0.0,0.0,0.0,0.0,0.0,0.0,0.0,0.0,0.0,0.0,0.0,0.0,0.0,0.0,0.0,0.0,0.0,0.0,0.0,0.0,0.0,0.0,0.0,0.0,0.0,0.0,0.0,0.0,0.0,0.0,0.0,0.0,0.0,0.0,0.0,0.0,0.0,0.0,0.0,0.0,0.0,0.0,0.0,0.0,0.0,0.0,0.0,0.0,0.0,0.0,0.0,0.0,0.0,0.0,0.0,0.0,2.7998,2.7463,2.719,2.719,2.719,2.719,2.719,2.719,2.7587,2.8373,0.0,0.0,0.0,0.0,0.0,0.0,0.0,0.0,0.0,0.0,0.0,0.0,0.0,0.0,0.0,0.0,0.0,0.0,0.0,0.0,0.0,0.0,0.0,0.0,0.0,0.0,0.0,0.0,0.0,0.0,0.0,0.0,0.0,0.0,0.0,0.0,0.0,0.0,0.0,3.0977,3.1005,0.0,0.0,0.0,0.0,0.0,0.0,0.0,0.0,3.3146,0.0,0.0,0.0,0.0,0.0,0.0,0.0,0.0,0.0,0.0,0.0,0.0,0.0,0.0,0.0,0.0,0.0,0.0,0.0,0.0,0.0,0.0,0.0,0.0,0.0,0.0,0.0,0.0,0.0,0.0,0.0,0.0,0.0,0.0,0.0,0.0,0.0,0.0,0.0,0.0,0.0,0.0,0.0,0.0,0.0,0.0,0.0,0.0,0.0,0.0,0.0,0.0,0.0,0.0,0.0,2.8333,2.7589,2.7326,2.7588,2.7338,2.7337,2.7599,2.7611,2.7902,0.0,0.0,0.0,0.0,0.0,0.0,0.0,0.0,0.0,0.0,0.0,0.0,0.0,0.0,0.0,0.0,0.0,0.0,0.0,0.0,0.0,0.0,0.0,0.0,0.0,0.0,0.0,0.0,0.0,0.0,0.0,0.0,0.0,0.0,0.0,0.0,0.0,0.0,0.0,0.0,3.1116,3.1005,3.1005,0.0,0.0,0.0,0.0,0.0,0.0,3.2698,3.3286,0.0,0.0,0.0,0.0,0.0,0.0,0.0,0.0,0.0,0.0,0.0,0.0,0.0,0.0,0.0,0.0,0.0,0.0,0.0,0.0,0.0,0.0,0.0,0.0,0.0,0.0,0.0,0.0,0.0,0.0,0.0,0.0,0.0,0.0,0.0,0.0,0.0,0.0,0.0,0.0,0.0,0.0,0.0,0.0,0.0,0.0,0.0,0.0,0.0,0.0,0.0,0.0,0.0,0.0,0.0,2.8827,2.7967,2.7703,2.8102,2.7726,2.7692,2.8136,2.8137,2.8319,0.0,0.0,0.0,0.0,0.0,0.0,0.0,0.0,0.0,0.0,0.0,0.0,0.0,0.0,0.0,0.0,0.0,0.0,0.0,0.0,0.0,0.0,0.0,0.0,0.0,0.0,0.0,0.0,0.0,0.0,0.0,0.0,0.0,0.0,0.0,0.0,0.0,0.0,0.0,0.0,0.0,3.1104,3.1009,3.1543,0.0,0.0,0.0,0.0,3.2404,3.2888,0.0,0.0,0.0,0.0,0.0,0.0,0.0,0.0,0.0,0.0,0.0,0.0,0.0,0.0,0.0,0.0,0.0,0.0,0.0,0.0,0.0,0.0,0.0,0.0,0.0,0.0,0.0,0.0,0.0,0.0,0.0,0.0,0.0,0.0,0.0,0.0,0.0,0.0,0.0,0.0,0.0,0.0,0.0,0.0,0.0,0.0,0.0,0.0,0.0,0.0,0.0,0.0,0.0,0.0,0.0,0.0,2.9389,2.8837,2.8552,2.862,2.8563,2.8562,2.8609,2.8609,2.9043,0.0,0.0,0.0,0.0,0.0,0.0,0.0,0.0,0.0,0.0,0.0,0.0,0.0,0.0,0.0,0.0,0.0,0.0,0.0,0.0,0.0,0.0,0.0,0.0,0.0,0.0,0.0,0.0,0.0,0.0,0.0,0.0,0.0,0.0,0.0,0.0,0.0,0.0,0.0,0.0,0.0,3.1533,3.1061,3.1086,3.1243,0.0,0.0,3.2048,3.286,3.3457,0.0,0.0,0.0,0.0,0.0,0.0,0.0,0.0,0.0,0.0,0.0,0.0,0.0,0.0,0.0,0.0,0.0,0.0,0.0,0.0,0.0,0.0,0.0,0.0,0.0,0.0,0.0,0.0,0.0,0.0,0.0,0.0,0.0,0.0,0.0,0.0,0.0,0.0,0.0,0.0,0.0,0.0,0.0,0.0,0.0,0.0,0.0,0.0,0.0,0.0,0.0,0.0,0.0,0.0,0.0,2.9504,2.9492,2.8964,2.885,2.9125,2.885,2.8838,2.9159,2.9257,2.9589,0.0,0.0,0.0,0.0,0.0,0.0,0.0,0.0,0.0,0.0,0.0,0.0,0.0,0.0,0.0,0.0,0.0,0.0,0.0,0.0,0.0,0.0,0.0,0.0,0.0,0.0,0.0,0.0,0.0,0.0,0.0,0.0,0.0,0.0,0.0,0.0,0.0,0.0,0.0,0.0,0.0,0.0,3.1074,3.1251,0.0,0.0,0.0,3.2814,3.345,0.0,0.0,0.0,0.0,0.0,0.0,0.0,0.0,0.0,0.0,0.0,0.0,0.0,0.0,0.0,0.0,0.0,0.0,0.0,0.0,0.0,0.0,0.0,0.0,0.0,0.0,0.0,0.0,0.0,0.0,0.0,0.0,0.0,0.0,0.0,0.0,0.0,0.0,0.0,0.0,0.0,0.0,0.0,0.0,0.0,0.0,0.0,0.0,0.0,0.0,0.0,0.0,0.0,0.0,0.0,0.0,0.0,2.9665,2.9286,2.9274,2.9653,2.9286,2.9307,2.9765,2.992,0.0,0.0,0.0,0.0,0.0,0.0,0.0,0.0,0.0,0.0,0.0,0.0,0.0,0.0,0.0,0.0,0.0,0.0,0.0,0.0,0.0,0.0,0.0,0.0,0.0,0.0,0.0,2.9267,0.0,0.0,0.0,0.0,0.0,0.0,0.0,0.0,0.0,0.0,0.0,0.0,0.0,0.0,3.1879,3.148,3.1647,3.1985,0.0,0.0,3.3471,3.3975,3.4475,3.4907,0.0,0.0,0.0,0.0,0.0,0.0,0.0,0.0,0.0,0.0,0.0,0.0,0.0,0.0,0.0,0.0,0.0,0.0,0.0,0.0,0.0,0.0,0.0,0.0,0.0,0.0,0.0,0.0,0.0,0.0,0.0,0.0,0.0,0.0,0.0,0.0,0.0,0.0,0.0,0.0,0.0,0.0,0.0,0.0,0.0,0.0,0.0,0.0,0.0,0.0,0.0,0.0,0.0,0.0,3.0147,3.0136,3.0124,3.0101,3.0147,3.0124,3.0226,3.0508,3.0542,3.0755,0.0,0.0,0.0,0.0,0.0,0.0,0.0,0.0,0.0,0.0,0.0,0.0,0.0,0.0,0.0,0.0,0.0,0.0,0.0,0.0,0.0,0.0,0.0,0.0,0.0,0.0,0.0,0.0,0.0,0.0,0.0,0.0,0.0,0.0,0.0,0.0,0.0,0.0,0.0,0.0,0.0,3.2633,3.2591,3.2143,3.209,0.0,3.3157,3.3565,3.4348,3.4657,3.5178,3.6307,0.0,0.0,0.0,0.0,0.0,0.0,0.0,0.0,0.0,0.0,0.0,0.0,0.0,0.0,0.0,0.0,0.0,0.0,0.0,0.0,0.0,0.0,0.0,0.0,0.0,0.0,0.0,0.0,0.0,0.0,0.0,0.0,0.0,0.0,0.0,0.0,0.0,0.0,0.0,0.0,0.0,0.0,0.0,0.0,0.0,0.0,0.0,0.0,0.0,0.0,0.0,0.0,0.0,3.0537,3.0216,3.0204,3.0204,3.0204,3.0363,3.0499,3.0611,3.0893,3.1116,0.0,0.0,0.0,0.0,0.0,0.0,0.0,0.0,0.0,0.0,0.0,0.0,0.0,0.0,0.0,0.0,0.0,0.0,0.0,0.0,0.0,0.0,0.0,0.0,0.0,0.0,0.0,0.0,2.9245,2.9402,2.9764,0.0,0.0,0.0,0.0,0.0,0.0,0.0,0.0,0.0,0.0,3.3137,3.2761,3.2816,0.0,0.0,3.4046,3.4563,3.4992,3.5541,3.6056,3.6548,3.7398,0.0,0.0,0.0,0.0,0.0,0.0,0.0,0.0,0.0,0.0,0.0,0.0,0.0,0.0,0.0,0.0,0.0,0.0,0.0,0.0,0.0,0.0,0.0,0.0,0.0,0.0,0.0,0.0,0.0,0.0,0.0,0.0,0.0,0.0,0.0,0.0,0.0,0.0,0.0,0.0,0.0,0.0,0.0,0.0,0.0,0.0,0.0,0.0,0.0,0.0,0.0,0.0,3.0744,3.0227,3.0284,3.0318,3.0329,3.0578,3.0747,3.0825,3.1127,3.1339,0.0,0.0,0.0,0.0,0.0,0.0,0.0,0.0,0.0,0.0,0.0,0.0,0.0,0.0,0.0,0.0,0.0,0.0,0.0,0.0,0.0,0.0,0.0,0.0,0.0,0.0,0.0,0.0,2.9559,2.9892,3.0447,0.0,0.0,0.0,0.0,0.0,0.0,0.0,0.0,0.0,0.0,3.3506,3.3247,3.344,3.3797,3.4329,3.4949,3.5509,3.5879,3.6463,3.6931,3.7121,0.0,0.0,0.0,0.0,0.0,0.0,0.0,0.0,0.0,0.0,0.0,0.0,0.0,0.0,0.0,0.0,0.0,0.0,0.0,0.0,0.0,0.0,0.0,0.0,0.0,0.0,0.0,3.1647,0.0,0.0,3.1248,0.0,0.0,0.0,0.0,0.0,0.0,0.0,0.0,0.0,0.0,0.0,0.0,0.0,0.0,0.0,0.0,0.0,0.0,0.0,0.0,0.0,0.0,3.0767,3.0239,3.0476,3.06,3.06,3.0848,3.1072,3.1273,3.1306,3.1428,3.1684,0.0,0.0,0.0,0.0,0.0,0.0,0.0,0.0,0.0,0.0,0.0,0.0,0.0,0.0,0.0,0.0,0.0,0.0,0.0,0.0,0.0,0.0,0.0,0.0,0.0,0.0,3.0507,3.1035,3.1557,0.0,0.0,0.0,0.0,0.0,0.0,0.0,0.0,0.0,3.4071,3.3793,3.3796,3.428,3.3937,3.4124,3.5352,3.5806,3.6254,3.7007,3.7317,3.7672,0.0,0.0,0.0,0.0,0.0,0.0,0.0,0.0,0.0,0.0,0.0,0.0,0.0,0.0,0.0,0.0,0.0,0.0,0.0,0.0,0.0,0.0,0.0,0.0,0.0,0.0,0.0,3.1705,3.1683,0.0,0.0,0.0,0.0,0.0,0.0,0.0,0.0,0.0,0.0,0.0,3.0725,3.0826,0.0,0.0,0.0,0.0,0.0,0.0,0.0,0.0,0.0,0.0,0.0,0.0,3.174,3.1215,3.099,3.086,3.0871,3.1072,3.124,3.1306,3.1484,3.1606,3.1694,0.0,0.0,0.0,0.0,0.0,0.0,0.0,0.0,0.0,0.0,0.0,0.0,0.0,0.0,0.0,0.0,0.0,0.0,0.0,0.0,0.0,0.0,0.0,0.0,0.0,3.0992,0.0,0.0,0.0,0.0,0.0,0.0,0.0,0.0,0.0,0.0,0.0,3.4149,3.4272,3.4552,3.4789,3.4983,3.5153,3.55,0.0,0.0,0.0,0.0,0.0,0.0,0.0,0.0,0.0,0.0,0.0,0.0,0.0,0.0,3.9305,3.9305,3.9305,3.9305,3.9305,0.0,0.0,0.0,0.0,0.0,0.0,0.0,0.0,0.0,0.0,0.0,0.0,0.0,0.0,3.1705,3.1705,3.1705,0.0,0.0,0.0,0.0,0.0,0.0,0.0,0.0,3.1254,3.1336,3.1524,3.1615,3.2086,3.2901,3.2995,3.3315,0.0,0.0,0.0,0.0,0.0,0.0,0.0,0.0,3.2512,3.1995,3.1769,3.1661,3.1672,3.1698,3.1715,3.1703,3.1702,3.1738,3.1805,3.1926,3.2069,0.0,0.0,0.0,0.0,0.0,0.0,0.0,0.0,0.0,0.0,0.0,0.0,0.0,0.0,0.0,0.0,0.0,0.0,0.0,0.0,0.0,0.0,0.0,3.2082,0.0,0.0,0.0,0.0,0.0,0.0,0.0,0.0,0.0,3.4578,3.4524,3.4564,3.4714,3.5231,3.5574,3.5576,0.0,0.0,0.0,0.0,0.0,0.0,0.0,3.8724,3.8722,3.9047,3.9305,3.9305,3.9305,3.9305,3.9305,0.0,0.0,3.9346,3.9305,3.9305,3.9305,3.9468,3.9617,3.9604,3.978,3.9931,0.0,0.0,0.0,0.0,3.2025,0.0,0.0,0.0,3.1705,3.1705,0.0,3.1705,0.0,0.0,0.0,0.0,3.2149,3.2137,0.0,0.0,3.1759,3.203,3.2524,3.277,3.3172,3.3708,3.3887,3.4246,3.4738,3.4346,0.0,0.0,0.0,0.0,0.0,0.0,3.3053,3.2594,3.277,3.2887,3.2886,3.2653,3.2515,3.2515,3.2019,3.1842,3.2007,3.2028,3.2234,3.268,3.27,0.0,0.0,0.0,0.0,0.0,0.0,0.0,0.0,0.0,0.0,0.0,0.0,0.0,0.0,0.0,0.0,0.0,0.0,0.0,0.0,3.2936,0.0,0.0,0.0,0.0,0.0,0.0,0.0,0.0,0.0,3.594,3.5432,3.5338,3.5325,3.5336,0.0,0.0,0.0,0.0,3.6536,3.7561,3.7734,3.8086,3.9105,3.9292,3.9305,3.9292,0.0,0.0,3.9332,3.9346,3.94,3.9375,3.9873,4.0049,3.9495,3.9441,3.9427,3.9427,3.9873,4.0198,4.0266,4.0635,4.0991,3.2898,0.0,0.0,0.0,0.0,3.2355,3.2147,3.1904,3.1904,3.1838,3.1705,3.1705,0.0,0.0,0.0,0.0,0.0,0.0,3.2917,3.2836,3.2836,3.2907,3.3063,3.3144,3.3431,3.3911,3.3958,3.4282,3.4775,3.4653,3.4604,3.4592,0.0,0.0,0.0,0.0,3.372,3.3577,3.3312,3.3179,3.3191,3.3117,3.3079,3.3079,3.2673,3.2519,3.2563,3.253,3.2559,3.2689,3.2885,0.0,0.0,0.0,0.0,0.0,0.0,0.0,0.0,0.0,0.0,0.0,0.0,0.0,0.0,0.0,0.0,0.0,0.0,0.0,3.3456,3.3652,3.3976,0.0,0.0,0.0,0.0,0.0,0.0,0.0,0.0,0.0,3.6541,3.6136,3.5874,0.0,0.0,3.675,3.675,3.7105,3.7624,3.8255,3.8336,0.0,3.9187,3.9305,3.9305,3.9305,3.9658,3.994,3.994,4.0284,4.0571,4.0583,4.0718,4.0786,4.0637,4.0585,4.0596,4.0598,4.072,4.084,4.0854,4.0991,4.1125,3.3745,3.3684,3.3105,3.2799,3.2689,3.2571,3.2377,3.217,3.2378,3.2354,3.2165,3.2359,3.2399,3.2345,3.2864,0.0,0.0,0.0,3.3573,3.3573,3.3561,3.3681,3.3885,3.3909,3.4042,3.4306,3.4318,3.4499,3.4799,3.4799,3.4799,3.4799,0.0,3.4799,3.4799,3.4487,3.4318,3.4306,3.4042,3.3897,3.3897,3.3693,3.3524,3.3435,3.3223,3.3115,3.3064,3.3044,3.2967,3.2864,3.3016,3.3113,0.0,0.0,0.0,0.0,0.0,0.0,0.0,0.0,0.0,0.0,0.0,3.3875,3.3855,0.0,0.0,0.0,3.3979,3.3989,3.3979,3.4346,0.0,0.0,0.0,0.0,0.0,0.0,0.0,3.7911,3.7586,3.7364,3.7362,3.7026,3.6713,3.6502,3.6985,3.7364,3.7364,0.0,3.806,3.8548,3.8789,3.913,3.9566,3.9861,3.9999,4.0013,4.0309,4.054,4.0567,4.0879,4.1112,4.1139,4.1301,4.1464,4.1464,4.1641,4.1613,4.122,4.1301,4.1451,4.1451,4.1627,4.1883,3.4692,3.4615,3.3644,3.3088,3.2858,3.2858,3.274,3.2593,3.3085,3.3148,3.2937,3.3423,3.3539,3.345,3.3873,0.0,3.4126,3.4138,3.4137,3.4126,3.4174,3.4462,3.4908,3.498,3.4992,3.5017,3.4992,3.5004,3.5017,3.5004,3.5004,3.4992,3.5004,3.4932,3.4811,3.4787,3.4799,3.4799,3.4787,3.4787,3.4787,3.433,3.398,3.3754,3.3727,3.37,3.3636,3.3619,3.3455,3.3169,3.3165,3.314,3.3151,0.0,0.0,0.0,0.0,0.0,0.0,0.0,0.0,0.0,0.0,0.0,0.0,0.0,0.0,0.0,3.4387,0.0,3.4473,3.5022,0.0,0.0,0.0,3.7287,3.7836,3.79,3.7911,3.7911,0.0,0.0,3.7954,3.7965,3.7782,3.7273,3.7627,3.7965,3.7954,3.8019,3.8203,3.8736,3.9201,3.9731,4.0202,4.0689,4.0989,4.0978,4.1139,4.1179,4.1181,4.1288,4.1261,4.1329,4.1708,4.2114,4.2115,4.2588,4.2641,4.1681,4.1856,4.2154,4.2195,4.2629,4.3184,3.4692,3.4667,3.4426,3.4292,3.4212,3.4236,3.4113,3.3935,3.4048,3.3973,3.3732,3.3843,3.4103,3.445,3.4548,3.483,3.5221,3.5221,3.5221,3.5245,3.5624,3.5917,3.6039,3.6492,3.6701,3.6713,3.6713,3.6713,3.6713,3.6713,3.6713,3.6701,3.6688,3.6063,3.4835,3.4799,3.4799,3.4799,3.4799,3.4799,3.4799,3.4884,3.4884,3.481,3.481,3.4819,3.4798,3.4547,3.4196,3.3734,3.3709,3.3531,3.3138,3.4112,0.0,0.0,0.0,0.0,0.0,0.0,0.0,0.0,0.0,3.4876,3.4994,0.0,3.4356,0.0,3.4387,3.4593,3.5038,3.5587,0.0,0.0,3.7416,3.7743,3.7875,3.7911,3.7911,3.7911,3.7911,3.8045,3.8463,3.8502,3.862,3.8921,3.8698,3.8514,3.8516,3.8907,3.9371,3.978,3.9992,4.0298,4.0804,4.1003,4.1127,4.11,4.1491,4.1776,4.1802,4.2181,4.2478,4.2466,4.2573,4.2845,4.3264,4.3508,4.3685,4.3755,4.3618,4.3373,4.3373,4.3835,4.4312,3.5465,3.5454,3.5454,3.5441,3.5428,3.4928,3.4635,3.4547,3.4797,3.4758,3.4552,3.4658,3.4871,3.5166,3.54,3.5682,3.5965,3.6223,3.6358,3.637,3.6678,3.6813,3.6813,3.7146,3.7293,3.7293,3.7293,3.7293,3.7293,3.7293,3.7293,3.7293,3.7293,3.6836,3.5953,3.5928,3.5842,3.5694,3.5452,3.5343,3.5343,3.5357,3.5428,3.5536,3.5563,3.5491,3.5347,3.5162,3.4803,3.4288,3.4262,3.418,3.4,3.4781,3.535,0.0,0.0,0.0,0.0,0.0,0.0,0.0,0.0,0.0,0.0,0.0,3.5168,3.5168,3.5155,3.5404,3.6005,3.6321,3.6739,3.7338,3.7692,3.7911,3.79,3.8109,3.8266,3.8266,3.8489,3.8764,3.9051,3.9079,3.9208,3.9548,3.9508,3.9365,3.9169,3.9392,3.978,4.0205,4.0536,4.0995,4.1759,4.191,4.1886,4.1924,4.2181,4.2385,4.2398,4.2682,4.2913,4.2913,4.3116,4.3386,4.3739,4.4051,4.4338,4.4569,4.4651,4.45,4.4256,4.4473,4.4747,3.6441,3.644,3.6405,3.6431,3.6419,3.5441,3.4979,3.4941,3.5418,3.5553,3.5454,3.5689,3.5852,3.5938,3.6407,3.6604,3.6641,3.7134,3.7394,3.7406,3.7468,3.7505,3.7517,3.7566,3.7603,3.7603,3.7616,3.7603,3.7603,3.7603,3.7591,3.7603,3.7616,3.7603,3.7603,3.7603,3.7366,3.6866,3.6391,3.6172,3.616,3.5904,3.5851,3.6091,3.6076,3.5921,3.5622,3.563,3.5402,3.4898,3.4894,3.4981,3.5157,3.565,3.608,0.0,3.7091,0.0,0.0,0.0,0.0,0.0,0.0,0.0,0.0,3.5861,3.6109,3.6109,3.6109,3.6358,3.6946,3.6987,3.7261,3.7926,3.8018,3.8019,3.8111,3.8529,3.8828,3.8816,3.9273,3.9625,3.9678,3.9704,3.9704,3.9887,4.0227,4.0318,3.994,3.9874,4.0069,4.0453,4.1034,4.1807,4.2585,4.2845,4.2819,4.2872,4.2845,4.2926,4.2994,4.3021,4.3048,4.3184,4.3591,4.3943,4.3997,4.4487,4.4827,4.5003,4.5383,4.5465,4.499,4.4949,4.5098,3.6639,3.6615,3.6464,3.6657,3.7022,3.6833,3.6482,3.608,3.6193,3.6459,3.6825,3.6877,3.7116,3.7554,3.7666,3.7679,3.7716,3.7804,3.7866,3.7891,3.8367,3.8592,3.8629,3.9042,3.9243,3.9243,3.9255,3.9255,3.9243,3.9243,3.9242,3.9243,3.9255,3.9243,3.9243,0.0,0.0,0.0,3.7095,3.7058,3.7046,3.6751,3.66,3.6636,3.6441,0.0,3.6255,3.6395,3.6222,3.5726,3.5882,0.0,0.0,0.0,0.0,0.0,0.0,0.0,0.0,0.0,0.0,0.0,3.7795,3.7429,3.6737,3.6332,3.6109,3.6109,3.6109,3.6345,3.6946,3.6987,3.7429,3.8398,3.8542,3.8725,3.922,3.9365,3.9417,3.943,3.9535,3.9783,4.0176,4.0253,4.0436,4.0841,4.1063,4.1089,4.0959,4.0907,4.1157,4.1687,4.2128,4.2605,4.2873,4.2926,4.2967,4.2913,4.2913,4.3115,4.3522,4.3631,4.3822,4.4189,4.4447,4.469,4.5125,4.5355,4.556,4.6061,4.6237,4.6143,4.5573,4.5817,4.6196,3.7725,3.7726,3.7487,3.7543,0.0,3.7662,3.7437,3.7186,3.7186,3.7349,3.76,3.76,3.7739,3.8015,3.8316,3.8454,3.8454,3.8718,3.8843,3.8856,3.9132,3.9296,3.9308,3.9559,3.971,3.971,3.971,3.971,3.971,3.971,3.971,3.971,3.971,3.971,3.971,3.971,3.9229,3.8298,3.7988,3.7852,3.784,3.7543,3.7279,3.6992,3.6862,0.0,0.0,0.0,0.0,0.0,0.0,0.0,0.0,3.6763,0.0,3.7274,3.7547,3.7762,3.7888,3.7911,3.7911,3.7911,3.7911,3.7769,3.747,3.6894,3.666,3.6959,3.7222,3.7521,3.7797,3.8122,3.8527,3.9064,3.9156,3.9273,3.9561,3.9848,4.0005,4.0044,4.0266,4.0541,4.0802,4.0829,4.0972,4.1246,4.1286,4.1312,4.1286,4.1286,4.1485,4.2017,4.2544,4.3008,4.3278,4.3359,4.3469,4.3674,4.3782,4.3891,4.4188,4.4243,4.4351,4.4678,4.4936,4.5274,4.5532,4.5843,4.6142,4.6414,4.6509,4.6549,4.6441,4.6509,4.6509,3.8872,3.8848,3.858,3.8509,3.8537,3.8314,3.8265,3.8279,3.809,0.0,0.0,3.8165,3.8216,3.8329,3.8806,3.9044,3.9082,3.9484,3.971,3.971,3.971,3.976,3.9835,3.9848,3.9898,3.9973,3.9986,3.9998,3.9986,3.9973,3.9923,3.9848,3.9861,3.9798,3.9723,3.971,3.9581,3.9375,3.8888,3.8613,3.8614,3.8329,3.7952,3.75,3.7347,3.714,3.6887,3.6854,3.6944,3.7168,3.7214,3.7343,3.7564,3.7576,3.7681,3.7865,3.7911,3.7911,3.7911,3.7911,3.7941,3.8031,3.8044,3.7993,3.7915,3.7534,3.751,3.8004,3.8553,3.8855,3.8855,3.9311,3.9639,3.973,3.9744,3.977,3.9913,4.0279,4.0606,4.0749,4.1155,4.1494,4.1612,4.1638,4.1612,4.1612,4.1703,4.1586,4.1611,4.1687,4.1899,4.2429,4.3017,4.3442,4.3795,4.3956,4.4161,4.4515,4.4651,4.4732,4.4827,4.4868,4.4882,4.5098,4.5438,4.5708,4.5803,4.6156,4.6522,4.6644,4.6671,4.6834,4.735,4.716,4.6875,3.9152,3.9128,3.8873,3.891,3.917,3.9132,3.926,3.9383,3.8442,3.8291,3.8768,3.8793,3.9032,3.9471,3.9547,3.9584,3.9597,3.9672,3.971,3.971,3.971,3.9948,4.0374,4.0387,4.0638,4.1051,4.1089,4.1076,4.1076,4.1064,4.0851,4.0437,4.0387,4.0174,3.9748,3.971,3.9684,3.9645,3.9558,3.952,3.9508,3.9032,3.8743,3.8642,3.7933,3.7535,3.7469,3.7414,3.7401,3.7447,3.7668,3.7808,3.7842,3.7831,3.7854,3.7913,3.79,3.7911,3.7924,3.7911,3.8097,3.854,3.8594,3.8397,3.7941,3.8253,3.8501,3.8607,3.9117,3.9469,3.9482,3.9574,3.9848,4.0215,4.0292,4.0488,4.0972,4.1129,4.1377,4.1833,4.2003,4.2252,4.2579,4.2683,4.2657,4.271,4.2592,4.2722,4.2709,4.2766,4.2978,4.3489,4.4054,4.4424,4.4542,4.4569,4.4638,4.4678,4.4786,4.499,4.5397,4.5478,4.5614,4.6115,4.6237,4.6318,4.6319,4.6414,4.6726,4.7092,4.7214,4.7459,4.7975,4.8002,4.7934,4.0342,4.0305,4.0057,4.0026,4.0145,3.9854,3.9968,4.0282,3.9648,3.9333,3.9333,3.9346,3.9459,3.9685,3.971,3.986,4.0136,4.0123,4.0287,4.0563,4.0588,4.07,4.0913,4.0951,4.1076,4.1289,4.1289,4.1289,4.1289,4.1289,4.1189,4.0951,4.0938,4.0676,4.0174,4.0136,3.9998,3.971,3.971,3.971,3.971,3.9459,3.9271,3.9121,3.8714,3.8492,3.8464,3.815,3.804,3.8145,3.7988,3.7911,3.7911,3.7911,3.8044,3.8306,3.8333,3.8476,3.8815,3.8816,3.8932,3.9169,3.9182,3.909,3.8842,3.9038,3.9195,3.9208,3.9704,4.0031,4.0044,4.0332,4.0631,4.0854,4.1167,4.148,4.1768,4.2056,4.2317,4.2591,4.2631,4.2722,4.2984,4.301,4.301,4.301,4.2997,4.3114,4.3454,4.3728,4.3876,4.3863,4.4311,4.4804,4.5099,4.518,4.5316,4.56,4.5668,4.579,4.6061,4.6088,4.6183,4.6427,4.6509,4.6509,4.6522,4.678,4.7079,4.7296,4.7676,4.8015,4.8517,4.8924,4.8937,4.1286,4.1286,4.1215,4.1218,4.1233,4.0773,4.0821,4.1151,4.0887,4.0555,4.019,4.0113,4.0061,4.0061,4.0048,4.03,4.0651,4.0675,4.0901,4.1277,4.1289,4.1378,4.1491,4.149,4.1553,4.1666,4.1679,4.1692,4.1692,4.1679,4.1603,4.1504,4.1378,4.1102,4.0675,4.0675,4.0425,3.9923,3.9885,3.981,3.971,3.971,3.9625,3.95,3.941,3.9379,3.9358,3.8935,3.8754,3.887,3.8502,3.8267,3.8292,3.828,3.8463,3.8842,3.8919,3.9103,3.9535,3.9613,3.9652,3.977,3.977,3.9835,3.9954,3.9979,3.9913,3.9862,4.0279,4.0658,4.0853,4.1207,4.1547,4.1677,4.2082,4.2343,4.2422,4.2762,4.3088,4.3154,4.3206,4.3232,4.335,4.3376,4.3428,4.3454,4.3376,4.3611,4.4123,4.4613,4.4676,4.4552,4.4752,4.5276,4.5709,4.579,4.598,4.6454,4.6468,4.6414,4.6454,4.6481,4.6495,4.6535,4.6657,4.6753,4.6766,4.7187,4.7608,4.7866,4.8205,4.8598,4.9182,4.9602,4.9711,4.1299,4.1377,4.1873,4.2228,4.2358,4.2096,4.2003,4.204,4.18,4.1655,4.1591,4.1285,4.1152,4.1151,4.1113,4.1178,4.1253,4.1226,4.1277,4.1366,4.1301,4.1604,4.2099,4.2125,4.2361,4.2763,4.2787,4.2749,4.2749,4.2801,4.2587,4.2097,4.1567,4.1315,4.124,4.124,4.0977,4.0437,4.0425,4.0174,3.9735,3.971,3.9814,4.0032,3.9739,3.9694,3.9927,3.9653,3.9485,3.9522,3.9443,3.9442,3.9429,3.943,3.9468,3.952,3.9522,3.9548,3.9613,3.9613,3.986,4.0266,4.0319,4.0554,4.1063,4.1129,4.0894,4.0607,4.0894,4.1428,4.1951,4.2094,4.2278,4.2657,4.284,4.2945,4.2945,4.2971,4.3193,4.3768,4.3807,4.399,4.4316,4.4407,4.446,4.4368,4.4329,4.4476,4.4862,4.5196,4.5502,4.5699,4.6082,4.6252,4.6359,4.6414,4.64,4.6495,4.6509,4.6549,4.6576,4.659,4.6536,4.6862,4.7011,4.7282,4.7418,4.7771,4.8287,4.8599,4.8897,4.9195,4.9738,4.9941,4.9847,4.1833,4.1886,4.2435,4.2723,4.2788,4.2552,4.2614,4.2884,4.2616,4.2713,4.3019,4.2882,4.2269,4.1341,4.1503,4.176,4.2076,4.2212,4.251,4.2802,4.2841,4.2861,4.29,4.2912,4.2955,4.2989,4.3,4.3,4.303,4.3142,4.3223,4.3211,4.2956,4.2663,4.2331,4.2293,4.2027,4.152,4.1494,4.124,4.0706,4.0184,4.0134,4.0516,4.0437,4.0497,4.0695,4.0323,4.0095,4.0044,3.977,3.9613,3.9613,3.9613,3.9744,4.0044,4.041,4.0606,4.0619,4.0594,4.0697,4.092,4.0933,4.1181,4.1767,4.1833,4.1834,4.1939,4.1873,4.2069,4.2579,4.2683,4.2762,4.301,4.331,4.3533,4.352,4.382,4.4133,4.4356,4.4369,4.4421,4.4643,4.4708,4.4708,4.4708,4.4708,4.4843,4.5153,4.5422,4.5688,4.5967,4.6284,4.6482,4.6509,4.6509,4.6509,4.6509,4.6509,4.6562,4.6957,4.7024,4.7119,4.7405,4.769,4.7866,4.7866,4.8327,4.8856,4.9154,4.9466,4.9738,4.9955,4.9982,4.9982,4.2278,4.25,4.301,4.3336,4.3441,4.3256,4.3397,4.3707,4.3476,4.3598,4.3984,4.3941,4.3232,4.2167,4.228,4.259,4.2947,4.3163,4.3463,4.386,4.3886,4.3776,4.3558,4.3544,4.3433,4.3279,4.3265,4.3265,4.3265,4.3433,4.3668,4.3858,4.3886,4.3694,4.3296,4.3245,4.2977,4.2464,4.2426,4.2197,4.171,4.1106,4.0824,4.0897,4.0896,4.1034,4.1273,4.0893,4.0646,4.0632,4.0279,4.007,4.0057,4.0045,4.024,4.0619,4.1038,4.1286,4.1286,4.1286,4.1364,4.152,4.1546,4.1781,4.2265,4.2421,4.267,4.3114,4.2879,4.2879,4.3167,4.3245,4.3297,4.3454,4.3899,4.4108,4.4134,4.4499,4.4669,4.4708,4.4656,4.4708,4.4708,4.4708,4.4708,4.4708,4.4708,4.487,4.522,4.5488,4.5728,4.6073,4.6364,4.6495,4.6509,4.6509,4.6522,4.6726,4.6807,4.7011,4.7486,4.7595,4.7635,4.7853,4.8219,4.8463,4.8517,4.891,4.9317,4.9412,4.9684,4.9969,4.9982,4.9982,4.9982,4.25,4.3036,4.3611,4.4134,4.459,4.4551,4.459,4.4523,4.433,4.4246,4.4257,4.4038,4.3847,4.3717,4.3707,4.3796,4.3834,4.3837,4.389,4.3955,4.3927,4.3899,4.3872,4.3872,4.3859,4.3789,4.3763,4.3817,4.3818,4.3859,4.3886,4.3913,4.3941,4.3914,4.3851,4.3852,4.3554,4.3095,4.3044,4.2842,4.2591,4.2488,4.1957,4.1141,4.0934,4.1086,4.1299,4.1285,4.1246,4.1259,4.1168,4.1168,4.1181,4.1168,4.1168,4.1259,4.1298,4.1324,4.1351,4.139,4.1599,4.2055,4.2147,4.2382,4.2892,4.2971,4.3258,4.3807,4.3781,4.3794,4.3847,4.3846,4.4029,4.4434,4.459,4.4616,4.4643,4.4643,4.4708,4.4708,4.4708,4.4708,4.4708,4.4708,4.4708,4.4708,4.4708,4.4884,4.5368,4.5569,4.5835,4.6245,4.647,4.6509,4.6522,4.6657,4.6861,4.7147,4.7391,4.754,4.7893,4.8165,4.8205,4.8354,4.8775,4.906,4.9154,4.9385,4.9738,4.986,4.9847,4.9982,4.9982,4.9982,4.9982,4.3611,4.4081,4.4316,4.4525,4.4695,4.4708,4.4708,4.4681,4.4612,4.4545,4.4545,4.4436,4.4408,4.4395,4.4395,4.4313,4.4162,4.4326,4.4395,4.4409,4.4408,4.4326,4.4161,4.4161,4.4052,4.3913,4.3886,4.401,4.4161,4.4161,4.4244,4.4407,4.4422,4.4408,4.4395,4.4409,4.4278,4.4123,4.4097,4.3866,4.3479,4.344,4.3049,4.2293,4.1902,4.1771,4.1885,4.1507,4.1286,4.1286,4.1286,4.1286,4.1286,4.1286,4.1481,4.182,4.1872,4.203,4.2317,4.2396,4.2461,4.2683,4.2722,4.2958,4.3428,4.3585,4.3794,4.4251,4.4408,4.4408,4.4408,4.4421,4.4486,4.4643,4.4708,4.4721,4.4708,4.4708,4.4708,4.4708,4.4708,4.4708,4.4786,4.4721,4.4708,4.4708,4.4708,4.4897,4.5247,4.5488,4.5768,4.618,4.6675,4.7078,4.7065,4.7078,4.7255,4.7663,4.7975,4.8246,4.8544,4.8748,4.8815,4.9114,4.948,4.9535,4.9602,4.9643,4.9982,4.9982,4.9982,4.9982,4.9982,4.9982,4.9982,4.4356,4.4682,4.4708,4.4708,4.4708,4.4708,4.4708,4.4708,4.4708,4.4708,4.4708,4.4708,4.4708,4.4708,4.4708,4.4613,4.445,4.4613,4.4708,4.4708,4.4708,4.4613,4.445,4.4422,4.434,4.4189,4.4161,4.4271,4.4408,4.4422,4.4544,4.4668,4.4708,4.4708,4.4708,4.4708,4.4708,4.4708,4.4708,4.4526,4.4199,4.4173,4.3977,4.3546,4.3036,4.2657,4.2474,4.2069,4.1834,4.1847,4.186,4.186,4.186,4.186,4.2043,4.2408,4.2435,4.2592,4.2931,4.301,4.3075,4.3271,4.3297,4.3533,4.4068,4.4147,4.4343,4.4616,4.4708,4.4708,4.4708,4.4708,4.4708,4.4708,4.4708,4.4799,4.497,4.4995,4.5113,4.5309,4.5375,4.5323,4.5258,4.5126,4.5047,4.4982,4.4852,4.483,4.5153,4.5513,4.5848,4.6156,4.6854,4.7406,4.7703,4.7866,4.7975,4.8327,4.8517,4.8815,4.9087,4.9263,4.9453,4.9833,4.9982,4.9982,4.9982,4.9982,4.9982,4.9982,4.9982,4.9982,4.9982,4.9982,4.9982,4.4682,4.4708,4.4708,4.4708,4.4708,4.4708,4.4708,4.4708,4.4708,4.4734,4.4812,4.476,4.4838,4.4812,4.493,4.4799,4.4837,4.489,4.4812,4.4708,4.4708,4.4694,4.4667,4.4667,4.4654,4.4626,4.4667,4.4681,4.4667,4.4667,4.4681,4.4708,4.4708,4.4708,4.4708,4.4708,4.4708,4.4708,4.4708,4.4695,4.4708,4.4643,4.4617,4.4538,4.4095,4.3585,4.3062,4.2971,4.284,4.2892,4.2905,4.2971,4.2866,4.2853,4.2945,4.2984,4.301,4.3036,4.3088,4.3141,4.3441,4.3768,4.3912,4.4108,4.4486,4.4616,4.4656,4.4695,4.4708,4.4721,4.476,4.4799,4.4799,4.4734,4.4812,4.5034,4.5452,4.5596,4.5806,4.6225,4.6304,4.6462,4.6343,4.5937,4.5623,4.5518,4.5231,4.5051,4.5401,4.58,4.6134,4.6485,4.7063,4.7696,4.8236,4.871,4.8864,4.9003,4.9086,4.9263,4.9548,4.9752,4.9724,4.9982,4.9982,4.9982,4.9982,4.9982,4.9982,4.9982,4.9982,4.9982,4.9982,4.9982,4.9982,4.4708,4.4708,4.4708,4.4708,4.4708,4.4708,4.4708,4.4708,4.4708,4.4943,4.5269,4.5322,4.5531,4.5859,4.5938,4.5938,4.5937,4.5925,4.5505,4.4852,4.4734,4.4734,4.4721,4.4708,4.4708,4.4708,4.4708,4.4708,4.4708,4.4708,4.4708,4.4708,4.4708,4.4708,4.4708,4.4708,4.4708,4.4708,4.4708,4.4708,4.4708,4.4708,4.4708,4.4682,4.4525,4.4329,4.4146,4.3428,4.3023,4.3036,4.301,4.301,4.301,4.301,4.3206,4.3559,4.3624,4.382,4.412,4.4133,4.4198,4.4395,4.4434,4.4512,4.4669,4.4708,4.4708,4.4708,4.4721,4.4838,4.5217,4.5322,4.5322,4.5335,4.5335,4.5544,4.6094,4.6238,4.6304,4.6448,4.6514,4.6514,4.6514,4.6278,4.6225,4.6199,4.599,4.5955,4.609,4.6321,4.6618,4.6822,4.7439,4.7937,4.8344,4.8751,4.9013,4.924,4.9408,4.952,4.9819,4.9982,4.9982,4.9982,4.9982,4.9982,4.9982,4.9982,4.9982,4.9982,4.9982,4.9982,4.9982,4.9982,4.9982,4.4708,4.4708,4.4708,4.4708,4.4708,4.4708,4.4825,4.5008,4.5034,4.5361,4.5845,4.5923,4.612,4.6448,4.6514,4.6514,4.6514,4.6514,4.6095,4.5453,4.5375,4.5257,4.5021,4.4773,4.4708,4.4708,4.4708,4.4708,4.4708,4.4708,4.4708,4.4708,4.4708,4.4708,4.4708,4.4708,4.4708,4.4708,4.4708,4.4708,4.4708,4.4708,4.4708,4.4708,4.4708,4.4708,4.4643,4.4003,4.3637,4.3624,4.3624,4.3624,4.3637,4.3663,4.3807,4.4081,4.4226,4.4356,4.4669,4.4643,4.4708,4.4708,4.4708,4.4708,4.4708,4.4708,4.4708,4.4708,4.493,4.5191,4.5531,4.5845,4.5989,4.6223,4.6041,4.6211,4.6682,4.6997,4.7142,4.7207,4.7167,4.7142,4.7142,4.6879,4.6813,4.6787,4.6631,4.6514,4.6582,4.6811,4.6975,4.7216,4.7682,4.8075,4.838,4.8734,4.9101,4.9374,4.9632,4.9747,4.9926,4.9968,4.9982,4.9982,4.9982,4.9982,4.9982,4.9982,4.9982,4.9982,4.9982,4.9982,4.9982,4.9982,4.9982,4.4708,4.4708,4.4708,4.4708,4.4721,4.4773,4.5074,4.5518,4.5635,4.5976,4.6448,4.6539,4.6592,4.6632,4.6789,4.6775,4.6645,4.6736,4.6749,4.6618,4.6553,4.629,4.5648,4.5126,4.4878,4.4825,4.476,4.4708,4.4708,4.4708,4.4708,4.4708,4.4708,4.4708,4.4708,4.4708,4.4708,4.4708,4.4708,4.4708,4.4708,4.4708,4.4708,4.4708,4.4708,4.4708,4.4682,4.4577,4.4603,4.4669,4.4551,4.4538,4.4656,4.4695,4.4603,4.4616,4.4682,4.4656,4.4708,4.4708,4.4708,4.4708,4.4708,4.4708,4.4708,4.4708,4.476,4.4878,4.5243,4.5609,4.5831,4.6225,4.6734,4.7165,4.6931,4.6945,4.7307,4.7806,4.7938,4.8043,4.8161,4.8161,4.8017,4.7609,4.7426,4.7295,4.7009,4.6879,4.6866,4.7182,4.7336,4.7615,4.7952,4.8104,4.8358,4.8439,4.8808,4.9125,4.947,4.9712,4.9897,4.9968,4.9982,4.9982,4.9982,4.9982,4.9982,4.9982,4.9982,4.9982,4.9982,4.9982,4.9982,4.9982,4.9982,4.4708,4.4708,4.4708,4.4708,4.4773,4.5165,4.5439,4.5661,4.6094,4.6578,4.7008,4.7085,4.7308,4.7729,4.7703,4.7742,4.7677,4.769,4.7755,4.777,4.7755,4.7154,4.6316,4.5662,4.5361,4.5282,4.4957,4.4708,4.4708,4.4708,4.4708,4.4708,4.4708,4.4708,4.4708,4.4708,4.4708,4.4708,4.4708,4.4708,4.4708,4.4708,4.4708,4.4708,4.4708,4.4708,4.4708,4.4708,4.4708,4.4708,4.4708,4.4708,4.4708,4.4708,4.4708,4.4708,4.4708,4.4708,4.4708,4.4708,4.4708,4.4708,4.4708,4.4708,4.4708,4.4708,4.4917,4.5243,4.5557,4.5962,4.6641,4.6967,4.7346,4.7819,4.7729,4.7716,4.7898,4.8068,4.82,4.82,4.82,4.82,4.8147,4.8054,4.7911,4.7871,4.7768,4.7625,4.7585,4.7623,4.7819,4.7924,4.8139,4.8193,4.8262,4.8276,4.846,4.8792,4.9154,4.9499,4.9755,4.9982,4.9982,4.9982,4.9982,4.9982,4.9982,4.9982,4.9982,4.9982,4.9982,4.9982,4.9982,4.9982,4.9982,4.4708,4.4734,4.4982,4.5087,4.5152,4.5714,4.6106,4.634,4.6668,4.7166,4.7583,4.7689,4.7857,4.8201,4.8187,4.8187,4.82,4.82,4.8187,4.8187,4.8147,4.7651,4.6878,4.6237,4.5858,4.5583,4.5256,4.497,4.476,4.4708,4.4708,4.4708,4.4708,4.4708,4.4708,4.4708,4.4708,4.4708,4.4708,4.4708,4.4708,4.4708,4.4708,4.4708,4.4708,4.4708,4.4708,4.4708,4.4708,4.4708,4.4708,4.4708,4.4708,4.4708,4.4708,4.4708,4.4708,4.4708,4.4708,4.4708,4.4708,4.4708,4.4708,4.4708,4.4773,4.4904,4.5296,4.5518,4.5988,4.6615,4.715,4.7503,4.7818,4.8081,4.82,4.82,4.82,4.8187,4.82,4.82,4.82,4.82,4.8185,4.8185,4.8185,4.8174,4.8134,4.8095,4.8108,4.82,4.82,4.82,4.82,4.8201,4.8216,4.8243,4.8388,4.8691,4.901,4.9355,4.9684,4.9967,4.9982,4.9982,4.9982,4.9982,4.9982,4.9982,4.9982,4.9982,4.9982,4.9982,4.9982,4.9982,4.9982,4.4734,4.4825,4.5374,4.5635,4.5766,4.6316,4.6813,4.7216,4.7346,4.7689,4.8069,4.8174,4.8133,4.82,4.82,4.82,4.82,4.82,4.82,4.82,4.8161,4.7871,4.7427,4.6826,4.6355,4.5949,4.574,4.5322,4.4956,4.4799,4.4708,4.4708,4.4708,4.4708,4.4708,4.4708,4.4708,4.4708,4.4708,4.4708,4.4708,4.4708,4.4708,4.4708,4.4708,4.4708,4.4708,4.4708,4.4708,4.4708,4.4708,4.4708,4.4708,4.4708,4.4708,4.4708,4.4708,4.4708,4.4708,4.4708,4.4708,4.4708,4.4708,4.4773,4.489,4.5256,4.5622,4.5975,4.6732,4.7176,4.7491,4.7912,4.8108,4.8185,4.8171,4.8141,4.8156,4.8156,4.8156,4.8128,4.8114,4.8084,4.8099,4.8127,4.8127,4.8039,4.8098,4.82,4.82,4.82,4.82,4.82,4.82,4.82,4.8187,4.82,4.8402,4.8648,4.8981,4.9312,4.9698,4.9911,4.9967,4.9982,4.9982,4.9982,4.9982,4.9982,4.9982,4.9982,4.9982,4.9982,4.9982,4.9982,4.9982,4.4982,4.5413,4.5544,4.5871,4.6356,4.6891,4.7189,4.7346,4.7819,4.8056,4.8174,4.82,4.82,4.82,4.82,4.82,4.8229,4.8229,4.82,4.82,4.82,4.8147,4.7871,4.7387,4.7073,4.6692,4.5975,4.5544,4.5335,4.4956,4.4708,4.4708,4.4708,4.4708,4.4708,4.4708,4.4708,4.4708,4.4708,4.4708,4.4708,4.4708,4.4708,4.4708,4.4708,4.4708,4.4708,4.4708,4.4708,4.4708,4.4708,4.4708,4.4708,4.4708,4.4708,4.4708,4.4708,4.4708,4.4708,4.4708,4.4708,4.4708,4.4734,4.489,4.5374,4.5505,4.6066,4.668,4.7189,4.753,4.7885,4.8081,4.8157,4.8141,4.7967,4.7836,4.7821,4.7806,4.7808,4.7764,4.7589,4.7427,4.7457,4.7705,4.7777,4.7836,4.7982,4.8143,4.82,4.82,4.82,4.82,4.82,4.82,4.82,4.8187,4.8331,4.8533,4.8851,4.9097,4.947,4.9868,4.9911,4.9953,4.9982,4.9982,4.9982,4.9982,4.9982,4.9982,4.9982,4.9982,4.9982,4.9982,4.9982,4.5466,4.6055,4.6288,4.6577,4.6944,4.7479,4.7713,4.778,4.8041,4.82,4.82,4.82,4.82,4.82,4.8187,4.8273,4.8404,4.8431,4.8344,4.8229,4.82,4.82,4.8174,4.7885,4.7623,4.7281,4.6731,4.6183,4.5635,4.5283,4.5008,4.4721,4.4708,4.4708,4.4708,4.4708,4.4708,4.4708,4.4708,4.4708,4.4708,4.4708,4.4708,4.4708,4.4708,4.4708,4.4708,4.4708,4.4708,4.4708,4.4708,4.4708,4.4708,4.4708,4.4708,4.4708,4.4708,4.4708,4.4708,4.4708,4.4708,4.4721,4.4721,4.5047,4.5505,4.5819,4.6394,4.7111,4.7556,4.7885,4.8147,4.8187,4.8156,4.7967,4.7808,4.7646,4.7514,4.747,4.7471,4.7442,4.7324,4.7265,4.7294,4.7366,4.7543,4.7674,4.7777,4.7953,4.82,4.82,4.82,4.82,4.82,4.82,4.82,4.8201,4.823,4.8431,4.8635,4.8823,4.9053,4.9455,4.9854,4.9897,4.9953,4.9982,4.9982,4.9982,4.9982,4.9982,4.9982,4.9982,4.9982,4.9982,4.9982,4.608,4.6657,4.7112,4.7332,4.7503,4.7977,4.8161,4.8174,4.82,4.82,4.82,4.82,4.82,4.82,4.8273,4.8462,4.8678,4.8721,4.862,4.8373,4.8316,4.8273,4.8217,4.8095,4.7924,4.7464,4.7201,4.6653,4.5988,4.5596,4.5217,4.4812,4.4708,4.4708,4.4708,4.4708,4.4708,4.4708,4.4708,4.4708,4.4708,4.4708,4.4708,4.4708,4.4708,4.4708,4.4708,4.4708,4.4708,4.4708,4.4708,4.4708,4.4708,4.4708,4.4708,4.4708,4.4708,4.4708,4.4733,4.4799,4.4891,4.4838,4.5009,4.5309,4.5897,4.6368,4.6864,4.7374,4.7844,4.8092,4.8128,4.807,4.7924,4.7718,4.7602,4.7425,4.7218,4.7114,4.7055,4.7129,4.6996,4.6891,4.6979,4.7068,4.7292,4.7499,4.7602,4.7764,4.7997,4.8172,4.8185,4.82,4.82,4.82,4.82,4.82,4.8216,4.8302,4.8475,4.8604,4.8735,4.9039,4.9441,4.9825,4.9911,4.9953,4.9982,4.9982,4.9982,4.9982,4.9982,4.9982,4.9982,4.9982,4.9982,4.6669,4.7176,4.7268,4.7583,4.803,4.8161,4.82,4.82,4.82,4.82,4.82,4.82,4.82,4.8286,4.8517,4.8765,4.8938,4.8997,4.8866,4.8633,4.8575,4.8475,4.8229,4.8187,4.8107,4.795,4.7609,4.698,4.6368,4.5844,4.54,4.4865,4.4708,4.4708,4.4708,4.4708,4.4708,4.4708,4.4708,4.4708,4.4708,4.4708,4.4708,4.4708,4.4708,4.4734,4.4747,4.4734,4.4708,4.4708,4.4708,4.4747,4.4838,4.4838,4.4825,4.4799,4.4865,4.493,4.4943,4.5217,4.5414,4.5571,4.5807,4.6355,4.6798,4.7058,4.7333,4.775,4.7996,4.8055,4.7793,4.7779,4.7617,4.7351,4.7127,4.6974,4.6855,4.6721,4.6648,4.681,4.6646,4.6526,4.6648,4.6783,4.6962,4.7185,4.7349,4.7571,4.7808,4.8026,4.8171,4.8185,4.82,4.82,4.82,4.82,4.8201,4.8201,4.8316,4.8446,4.8562,4.8706,4.901,4.9398,4.9755,4.9939,4.9954,4.9982,4.9982,4.9982,4.9982,4.9982,4.9982,4.9982,4.9982,4.7243,4.7767,4.7752,4.7924,4.8161,4.82,4.82,4.82,4.82,4.82,4.82,4.82,4.8315,4.846,4.8619,4.885,4.9082,4.9298,4.9096,4.8807,4.8691,4.8518,4.8229,4.82,4.82,4.8121,4.7871,4.7439,4.6904,4.6341,4.5714,4.523,4.4904,4.4708,4.4708,4.4708,4.4708,4.4708,4.4708,4.4721,4.4721,4.4721,4.4721,4.4734,4.4773,4.4852,4.5139,4.5165,4.5349,4.5571,4.5636,4.5637,4.5611,4.5584,4.5479,4.5283,4.5414,4.5597,4.5624,4.5937,4.6055,4.6081,4.6383,4.6734,4.7124,4.7319,4.7509,4.7769,4.7734,4.7604,4.7442,4.7442,4.7292,4.7066,4.6868,4.6718,4.6569,4.6403,4.6449,4.6539,4.6464,4.6391,4.6376,4.6509,4.6629,4.6838,4.7078,4.7347,4.7602,4.7837,4.8041,4.8185,4.82,4.82,4.82,4.82,4.82,4.82,4.8214,4.8316,4.8417,4.8548,4.8721,4.8996,4.9355,4.9727,4.9953,4.9982,4.9996,4.9982,4.9982,4.9982,4.9982,4.9982,4.9982,4.7766,4.82,4.82,4.82,4.82,4.82,4.82,4.82,4.82,4.82,4.82,4.8273,4.846,4.8678,4.8851,4.904,4.9297,4.9584,4.9327,4.8895,4.8807,4.8606,4.8287,4.82,4.82,4.8187,4.8147,4.7885,4.723,4.6682,4.6159,4.5544,4.4995,4.4708,4.4708,4.4708,4.4708,4.4708,4.4708,4.4734,4.4865,4.4891,4.4956,4.5061,4.5061,4.5349,4.5727,4.5793,4.5976,4.6252,4.6409,4.6462,4.65,4.6592,4.6434,4.6092,4.6329,4.6448,4.6501,4.6618,4.6656,4.6669,4.6717,4.7,4.7191,4.7363,4.7367,4.7484,4.7412,4.7205,4.7144,4.7102,4.6991,4.678,4.6673,4.6614,4.6434,4.6313,4.6313,4.6343,4.6298,4.6298,4.6313,4.6328,4.6479,4.6599,4.684,4.7019,4.7303,4.7632,4.788,4.8099,4.82,4.82,4.82,4.82,4.82,4.82,4.82,4.8243,4.8316,4.8404,4.8578,4.875,4.8982,4.9355,4.9669,4.9967,4.9996,4.9982,4.9982,4.9982,4.9982,4.9982,4.9982,4.8147,4.82,4.82,4.82,4.82,4.82,4.82,4.82,4.82,4.82,4.8201,4.8475,4.862,4.8808,4.9255,4.9598,4.9811,4.9811,4.9542,4.9053,4.8952,4.8678,4.8258,4.82,4.82,4.82,4.82,4.7831,4.7387,4.6839,4.6238,4.5661,4.5152,4.4708,4.4708,4.4708,4.4708,4.4708,4.4734,4.4995,4.54,4.5505,4.5767,4.6042,4.6173,4.6226,4.6329,4.6395,4.6499,4.6566,4.6593,4.654,4.6579,4.6983,4.7137,4.6994,4.68,4.6527,4.6669,4.6953,4.7117,4.7137,4.7284,4.7532,4.7483,4.7306,4.7195,4.7228,4.7176,4.704,4.687,4.6825,4.6673,4.6539,4.6434,4.6403,4.6298,4.6298,4.6298,4.6298,4.6298,4.6298,4.6298,4.6298,4.6328,4.6449,4.6584,4.6778,4.7064,4.7438,4.772,4.7967,4.8157,4.82,4.82,4.82,4.82,4.82,4.82,4.82,4.8243,4.8316,4.8417,4.8591,4.8808,4.9026,4.937,4.9655,4.9883,4.9982,4.9982,4.9982,4.9982,4.9982,4.9982,4.82,4.82,4.82,4.82,4.82,4.82,4.82,4.82,4.82,4.82,4.8201,4.8344,4.8577,4.8952,4.9413,4.9754,4.9924,4.9854,4.9541,4.9139,4.8924,4.8635,4.8287,4.82,4.82,4.82,4.8187,4.8134,4.7662,4.7204,4.6655,4.6093,4.5505,4.5021,4.4878,4.4734,4.4708,4.4799,4.5034,4.5505,4.5963,4.6133,4.6238,4.6487,4.6512,4.6668,4.6863,4.6955,4.7151,4.7323,4.7455,4.7482,4.7494,4.7661,4.7734,4.7477,4.7322,4.7207,4.7233,4.74,4.7393,4.7297,4.7344,4.7361,4.7353,4.7157,4.6976,4.6962,4.6785,4.6676,4.6584,4.6509,4.6449,4.6343,4.6298,4.6298,4.6298,4.6298,4.6298,4.6298,4.6298,4.6298,4.6298,4.6298,4.6298,4.6358,4.6464,4.6599,4.6959,4.7379,4.7645,4.7836,4.8026,4.82,4.82,4.82,4.82,4.82,4.82,4.82,4.82,4.8258,4.8331,4.8431,4.862,4.8866,4.9125,4.9441,4.9769,4.9897,4.9982,4.9982,4.9982,4.9982,4.9982,4.82,4.82,4.82,4.82,4.82,4.82,4.8243,4.8329,4.8331,4.8331,4.8329,4.8373,4.8636,4.9069,4.9427,4.9712,4.9868,4.9683,4.9413,4.9111,4.8821,4.8546,4.8287,4.82,4.82,4.82,4.82,4.8161,4.8043,4.7728,4.7257,4.6695,4.6106,4.5662,4.5309,4.5257,4.5309,4.5362,4.5649,4.6077,4.6478,4.6568,4.6629,4.6678,4.6729,4.6872,4.7181,4.7243,4.7517,4.7699,4.7763,4.7681,4.7735,4.7706,4.7671,4.7499,4.7407,4.7372,4.7344,4.7392,4.7425,4.7277,4.7085,4.7068,4.6934,4.678,4.6686,4.6659,4.6496,4.6373,4.6298,4.6313,4.6313,4.6313,4.6298,4.6298,4.6298,4.6298,4.6298,4.6298,4.6298,4.6298,4.6298,4.6298,4.6298,4.6298,4.6358,4.6449,4.6795,4.7244,4.7482,4.7674,4.7865,4.8055,4.82,4.82,4.82,4.82,4.82,4.82,4.82,4.82,4.8229,4.8359,4.846,4.8633,4.8866,4.927,4.9655,4.9755,4.9868,4.9954,4.9982,4.9982,4.9982,4.82,4.82,4.8201,4.8214,4.8214,4.82,4.8388,4.8662,4.8677,4.8635,4.8619,4.8648,4.8736,4.9096,4.934,4.9527,4.9613,4.9599,4.9341,4.9068,4.8808,4.8504,4.8287,4.82,4.82,4.82,4.82,4.82,4.8187,4.8108,4.77,4.7242,4.6694,4.6474,4.6211,4.6,4.609,4.6129,4.6296,4.648,4.6756,4.6877,4.6958,4.7087,4.7129,4.719,4.7202,4.7212,4.7241,4.7398,4.7412,4.7412,4.7457,4.7455,4.7383,4.7292,4.7263,4.7142,4.7021,4.7112,4.7191,4.7129,4.6964,4.6721,4.6541,4.6406,4.6343,4.6388,4.6328,4.6313,4.6298,4.6298,4.6298,4.6298,4.6298,4.6298,4.6298,4.6298,4.6298,4.6298,4.6298,4.6298,4.6298,4.6298,4.6298,4.6298,4.6313,4.6403,4.6581,4.6957,4.7246,4.747,4.7661,4.7894,4.8143,4.82,4.82,4.82,4.82,4.82,4.82,4.82,4.82,4.8214,4.8316,4.846,4.8633,4.9024,4.9355,4.9585,4.9741,4.9854,4.9967,4.9982,4.9982,4.8517,4.8518,4.8665,4.8663,4.8532,4.8692,4.8809,4.8951,4.8938,4.885,4.8706,4.8518,4.8562,4.8823,4.8966,4.9154,4.9241,4.9111,4.8981,4.878,4.8548,4.8331,4.82,4.82,4.82,4.82,4.82,4.82,4.82,4.82,4.8107,4.7728,4.7229,4.6813,4.6603,4.6434,4.6466,4.6629,4.6605,4.6648,4.7017,4.7087,4.7131,4.7197,4.722,4.722,4.7207,4.7207,4.722,4.7191,4.7176,4.7161,4.7146,4.7161,4.7085,4.6964,4.6962,4.681,4.6631,4.6751,4.6857,4.6663,4.6541,4.6434,4.6298,4.6298,4.6298,4.6298,4.6298,4.6298,4.6298,4.6298,4.6298,4.6298,4.6298,4.6298,4.6298,4.6298,4.6298,4.6298,4.6298,4.6298,4.6298,4.6298,4.6298,4.6298,4.6313,4.6358,4.6509,4.6686,4.6989,4.7275,4.747,4.7779,4.8055,4.8128,4.8172,4.82,4.82,4.82,4.82,4.82,4.82,4.82,4.82,4.8302,4.8504,4.8794,4.9082,4.937,4.9612,4.9783,4.9868,4.9968,4.9982,4.8706,4.8749,4.9083,4.9082,4.8851,4.9024,4.9155,4.9241,4.9254,4.9082,4.8779,4.8418,4.8329,4.8546,4.8691,4.8807,4.8909,4.8836,4.8749,4.8591,4.8404,4.8229,4.82,4.82,4.82,4.82,4.82,4.82,4.82,4.82,4.8161,4.8001,4.7692,4.7231,4.6951,4.6569,4.6563,4.6814,4.6839,4.6707,4.7061,4.7057,4.6953,4.6934,4.6889,4.6874,4.6859,4.6859,4.6859,4.6874,4.6877,4.6894,4.6921,4.6919,4.6827,4.6721,4.6614,4.6524,4.6436,4.6449,4.6539,4.6406,4.6358,4.6313,4.6298,4.6298,4.6298,4.6298,4.6298,4.6298,4.6298,4.6298,4.6298,4.6298,4.6298,4.6298,4.6298,4.6298,4.6298,4.6298,4.6298,4.6298,4.6298,4.6298,4.6298,4.6298,4.6298,4.6313,4.6373,4.6539,4.6733,4.7036,4.7292,4.7632,4.7954,4.8084,4.82,4.82,4.82,4.82,4.82,4.82,4.82,4.82,4.82,4.82,4.8316,4.852,4.8866,4.9197,4.9441,4.9712,4.9897,4.9982,4.9982,4.872,4.8778,4.9341,4.9398,4.9139,4.9097,4.9312,4.9541,4.9512,4.934,4.8981,4.8462,4.82,4.8302,4.8518,4.8648,4.8663,4.8649,4.8648,4.8548,4.8331,4.8214,4.82,4.82,4.82,4.82,4.82,4.82,4.82,4.82,4.82,4.807,4.7779,4.7524,4.7585,4.7319,4.7169,4.7167,4.7097,4.6928,4.6815,4.678,4.6646,4.6526,4.6481,4.6496,4.6496,4.6511,4.6511,4.6496,4.6481,4.6481,4.6466,4.6451,4.6419,4.6373,4.6358,4.6328,4.6313,4.6313,4.6328,4.6313,4.6298,4.6298,4.6298,4.6298,4.6298,4.6298,4.6298,4.6298,4.6298,4.6298,4.6298,4.6223,4.6208,4.6147,4.6117,4.6072,4.6027,4.6117,4.6238,4.6298,4.6298,4.6298,4.6298,4.6298,4.6298,4.6313,4.6328,4.6403,4.6584,4.6857,4.7159,4.747,4.7808,4.807,4.82,4.82,4.82,4.82,4.82,4.82,4.82,4.82,4.82,4.82,4.82,4.8229,4.8592,4.8967,4.9384,4.9669,4.9854,4.9901,4.9806,4.9096,4.9327,4.9698,4.9798,4.9698,4.9698,4.9769,4.9769,4.947,4.9211,4.8996,4.8462,4.82,4.8243,4.8287,4.8388,4.8375,4.8373,4.8373,4.8345,4.8229,4.8214,4.82,4.82,4.82,4.82,4.82,4.82,4.82,4.82,4.82,4.8084,4.7646,4.7385,4.7281,4.7112,4.693,4.6887,4.6738,4.6556,4.6479,4.6464,4.6419,4.6298,4.6298,4.6298,4.6298,4.6298,4.6298,4.6298,4.6298,4.6298,4.6298,4.6298,4.6298,4.6298,4.6298,4.6298,4.6298,4.6298,4.6298,4.6298,4.6298,4.6298,4.6298,4.6298,4.6298,4.6283,4.6253,4.6253,4.6298,4.6271,4.6225,4.5996,4.5906,4.5757,4.5681,4.5632,4.5617,4.5815,4.5966,4.6132,4.6193,4.6268,4.6298,4.6298,4.6298,4.6298,4.6313,4.6343,4.6464,4.6753,4.7068,4.7351,4.7632,4.7909,4.8128,4.82,4.82,4.82,4.82,4.82,4.82,4.82,4.82,4.8187,4.8174,4.819,4.8389,4.8721,4.901,4.941,4.9705,4.9601,4.9344,4.9284,4.9626,4.9883,4.9982,4.9982,4.9982,4.9982,4.9883,4.9397,4.9096,4.8981,4.8476,4.82,4.82,4.82,4.82,4.82,4.82,4.82,4.82,4.82,4.82,4.82,4.82,4.82,4.82,4.82,4.82,4.82,4.82,4.8026,4.7705,4.7335,4.7023,4.6887,4.6706,4.6614,4.6584,4.6464,4.6358,4.6328,4.6313,4.6313,4.6298,4.6298,4.6298,4.6298,4.6298,4.6298,4.6298,4.6298,4.6298,4.6298,4.6298,4.6298,4.6298,4.6298,4.6298,4.6298,4.6298,4.6298,4.6298,4.6298,4.6298,4.6298,4.6298,4.618,4.615,4.612,4.6042,4.5999,4.6014,4.5893,4.565,4.5574,4.5437,4.5392,4.5343,4.5358,4.5572,4.5681,4.5875,4.6072,4.6223,4.6298,4.6298,4.6298,4.6298,4.6298,4.6328,4.6358,4.6601,4.6887,4.7142,4.7425,4.7734,4.7967,4.8157,4.8157,4.8143,4.82,4.82,4.82,4.82,4.82,4.8174,4.812,4.8166,4.8112,4.8187,4.8389,4.8865,4.9432,4.9234,4.8843,4.9298,4.9613,4.9883,4.9982,4.9982,4.9982,4.9982,4.9939,4.9369,4.9111,4.9053,4.8475,4.82,4.82,4.82,4.82,4.82,4.82,4.82,4.82,4.82,4.82,4.82,4.82,4.82,4.82,4.82,4.82,4.8185,4.8084,4.7806,4.7351,4.7036,4.6751,4.6539,4.6419,4.6376,4.6373,4.6343,4.6298,4.6298,4.6298,4.6298,4.6298,4.6298,4.6298,4.6298,4.6298,4.6298,4.6298,4.6298,4.6298,4.6298,4.6298,4.6298,4.6298,4.6298,4.6298,4.6283,4.6283,4.6208,4.6165,4.6178,4.6238,4.6223,4.6132,4.5954,4.5848,4.5784,4.559,4.5468,4.5437,4.5407,4.5315,4.5285,4.5224,4.519,4.519,4.5205,4.5285,4.5361,4.5529,4.5757,4.5954,4.6147,4.6193,4.6208,4.6298,4.6298,4.6298,4.6328,4.6373,4.6646,4.6915,4.7199,4.7497,4.7749,4.7953,4.8055,4.8055,4.8114,4.8185,4.82,4.82,4.82,4.8107,4.7911,4.7704,4.7528,4.763,4.7649,4.808,4.8576,4.8475,4.8165,4.9385,4.9896,4.9967,4.9982,4.9982,4.9982,4.9982,4.9911,4.9383,4.9096,4.9053,4.8462,4.8187,4.82,4.82,4.82,4.82,4.82,4.82,4.82,4.82,4.82,4.82,4.82,4.82,4.82,4.82,4.8185,4.8141,4.8011,4.7661,4.7233,4.6885,4.6599,4.6403,4.6298,4.6298,4.6298,4.6298,4.6298,4.6298,4.6298,4.6298,4.6298,4.6298,4.6298,4.6298,4.6298,4.6298,4.6298,4.6298,4.6298,4.6298,4.6298,4.6298,4.6298,4.6298,4.6298,4.6268,4.6087,4.5951,4.5878,4.5757,4.5784,4.5787,4.5757,4.559,4.5514,4.5437,4.53,4.5178,4.5132,4.5055,4.4979,4.4933,4.4887,4.484,4.4794,4.4825,4.4963,4.504,4.5242,4.5483,4.5711,4.5893,4.5984,4.609,4.6208,4.6298,4.6298,4.6298,4.6343,4.6479,4.6751,4.693,4.7185,4.7482,4.772,4.785,4.7982,4.8098,4.8156,4.8185,4.812,4.8015,4.7805,4.7542,4.7298,4.6974,4.6731,4.6746,4.723,4.7576,4.7527,4.7568,4.9455,4.9967,4.9982,4.9982,4.9982,4.9982,4.9982,4.9883,4.9383,4.9096,4.9011,4.8475,4.82,4.82,4.82,4.82,4.82,4.82,4.82,4.82,4.82,4.82,4.82,4.82,4.82,4.82,4.82,4.8187,4.8083,4.7718,4.7337,4.7036,4.6763,4.6524,4.6358,4.6298,4.6298,4.6298,4.6298,4.6298,4.6298,4.6298,4.6298,4.6298,4.6298,4.6298,4.6298,4.6298,4.6298,4.6298,4.6298,4.6298,4.6298,4.6298,4.6178,4.6147,4.6075,4.5969,4.5863,4.5711,4.5635,4.5514,4.53,4.5254,4.5331,4.5361,4.5254,4.5147,4.5104,4.5043,4.4963,4.4871,4.4748,4.464,4.4579,4.4517,4.444,4.4347,4.447,4.4625,4.481,4.4997,4.5211,4.544,4.5681,4.5833,4.5969,4.6117,4.6223,4.6298,4.6298,4.6313,4.6434,4.6614,4.6766,4.6915,4.717,4.7453,4.769,4.7836,4.7997,4.8048,4.8027,4.7924,4.7779,4.7478,4.7086,4.6693,4.637,4.6139,4.5962,4.6255,4.6596,4.6719,4.6799,4.9455,4.9982,4.9982,4.9982,4.9982,4.9982,4.9982,4.9925,4.9355,4.9096,4.8996,4.8475,4.82,4.82,4.82,4.82,4.82,4.82,4.82,4.82,4.82,4.82,4.82,4.82,4.82,4.82,4.8172,4.8143,4.7967,4.7587,4.7157,4.6793,4.6494,4.6313,4.6313,4.6298,4.6298,4.6298,4.6298,4.6298,4.6298,4.6298,4.6298,4.6298,4.6298,4.6298,4.6298,4.6298,4.6298,4.6298,4.6298,4.6298,4.6223,4.6208,4.6044,4.5863,4.5772,4.5666,4.5498,4.5334,4.5285,4.5162,4.4963,4.484,4.4871,4.4963,4.4871,4.481,4.4751,4.469,4.4625,4.4594,4.4501,4.4455,4.4424,4.4393,4.4362,4.4316,4.4362,4.4486,4.4579,4.4736,4.4813,4.5043,4.5376,4.562,4.5848,4.5996,4.6163,4.6283,4.6298,4.6298,4.6373,4.6479,4.6584,4.6733,4.6885,4.714,4.7409,4.7674,4.7821,4.7852,4.7857,4.757,4.7244,4.6917,4.6552,4.6211,4.5884,4.5559,4.5423,4.5379,4.5582,4.5942,4.6301,4.9455,4.9982,4.9982,4.9982,4.9982,4.9982,4.9996,4.9939,4.9369,4.9096,4.8996,4.8505,4.82,4.82,4.82,4.82,4.82,4.82,4.82,4.82,4.82,4.82,4.82,4.82,4.82,4.82,4.8157,4.8026,4.7749,4.7396,4.7053,4.6778,4.6464,4.6298,4.6298,4.6298,4.6298,4.6298,4.6298,4.6298,4.6298,4.6298,4.6298,4.6298,4.6298,4.6298,4.6298,4.6298,4.6298,4.6298,4.6298,4.6163,4.5951,4.5923,4.5742,4.5483,4.5395,4.5346,4.5208,4.5025,4.4933,4.4825,4.4656,4.4501,4.4467,4.4513,4.4517,4.447,4.4412,4.4378,4.4331,4.4316,4.4316,4.4316,4.4316,4.4316,4.4316,4.4316,4.4316,4.4347,4.4393,4.4443,4.4505,4.4717,4.504,4.5361,4.5666,4.5893,4.6147,4.6298,4.6298,4.6298,4.6298,4.6373,4.6461,4.6536,4.6673,4.6808,4.7019,4.7318,4.7604,4.7435,4.7247,4.6928,4.6618,4.6316,4.6068,4.5845,4.5505,4.5166,4.5051,4.5098,4.5287,4.5622,4.6008,4.9455,4.9967,4.9982,4.9982,4.9982,4.9982,4.9925,4.9741,4.9312,4.9011,4.8879,4.8433,4.82,4.82,4.82,4.82,4.82,4.82,4.82,4.82,4.82,4.82,4.82,4.82,4.82,4.8172,4.7997,4.7793,4.7514,4.7172,4.687,4.6614,4.6358,4.6298,4.6298,4.6298,4.6298,4.6298,4.6298,4.6298,4.6298,4.6298,4.6298,4.6298,4.6298,4.6283,4.6298,4.6283,4.6193,4.6044,4.5908,4.5784,4.5617,4.5574,4.5407,4.5193,4.5071,4.5012,4.4871,4.4745,4.4622,4.4517,4.447,4.4347,4.4347,4.4409,4.4409,4.4362,4.4362,4.4316,4.4316,4.4316,4.4316,4.4316,4.4316,4.4316,4.4316,4.4316,4.4316,4.4316,4.4347,4.4362,4.4409,4.4424,4.4779,4.5239,4.5544,4.5863,4.6117,4.6298,4.6298,4.6298,4.6298,4.6298,4.6358,4.6401,4.6446,4.6566,4.6691,4.688,4.7074,4.6828,4.6573,4.6243,4.5974,4.5767,4.5544,4.5374,4.5204,4.4904,4.484,4.4843,4.5086,4.5328,4.5715,4.9498,4.9954,4.9982,4.9982,4.9982,4.9982,4.9854,4.9584,4.9241,4.8951,4.8692,4.8359,4.8214,4.82,4.82,4.82,4.82,4.82,4.82,4.82,4.82,4.82,4.82,4.82,4.82,4.8084,4.7894,4.7587,4.7279,4.6991,4.6718,4.6373,4.6298,4.6298,4.6298,4.6298,4.6298,4.6298,4.6298,4.6298,4.6298,4.6298,4.6298,4.6298,4.6268,4.6225,4.6238,4.6132,4.5984,4.5802,4.5516,4.5376,4.527,4.5224,4.5025,4.484,4.4733,4.4609,4.4467,4.4409,4.4362,4.4331,4.4316,4.43,4.43,4.4285,4.4285,4.4285,4.4285,4.43,4.43,4.4316,4.4316,4.4316,4.4316,4.4316,4.4316,4.4316,4.4316,4.4316,4.4316,4.4316,4.4316,4.4316,4.4609,4.5071,4.5453,4.5787,4.6059,4.6223,4.6298,4.6298,4.6298,4.6298,4.6298,4.6313,4.6341,4.63,4.6419,4.6509,4.6494,4.6157,4.5837,4.5508,4.5265,4.5243,4.51,4.4943,4.476,4.4708,4.4735,4.4776,4.4924,4.5193,4.5448,4.9698,4.9996,4.9982,4.9982,4.9982,4.9982,4.984,4.9556,4.9254,4.8938,4.8648,4.836,4.82,4.82,4.82,4.82,4.82,4.82,4.82,4.82,4.82,4.82,4.82,4.82,4.82,4.8026,4.7806,4.7528,4.7129,4.6885,4.6629,4.6313,4.6298,4.6298,4.6298,4.6298,4.6298,4.6298,4.6283,4.6271,4.6256,4.6268,4.6298,4.6208,4.6042,4.5954,4.5833,4.562,4.5498,4.5392,4.5273,4.5101,4.4979,4.4874,4.4733,4.4594,4.447,4.4424,4.4331,4.4316,4.4316,4.43,4.4285,4.4226,4.4211,4.4192,4.4192,4.4164,4.418,4.4238,4.4254,4.43,4.4316,4.4316,4.4316,4.4316,4.4316,4.4316,4.4316,4.4316,4.4316,4.4316,4.4316,4.4393,4.4579,4.4979,4.527,4.5632,4.6072,4.6193,4.6298,4.6298,4.6298,4.6298,4.6298,4.6298,4.6301,4.6205,4.594,4.5688,4.5502,4.5371,4.5076,4.4916,4.4885,4.4877,4.4721,4.4708,4.4708,4.4708,4.4708,4.4748,4.4883,4.5018,4.5247]}]]